     2              OBSERVATION DATA    GPS                 RINEX VERSION / TYPE
teqc 1998Mar9 19980312 00:57:54UTC                          PGM / RUN BY / DATE
                                                            COMMENT
Original Marker Name: unknown                               COMMENT
Campaign Name: Cholame 1989                                 COMMENT
4-Character Station Name: MILL                              COMMENT
6-Character Antenna Code: TI4100                            COMMENT
Vertical Measurement Point: PAE                             COMMENT
Vertical Offset to Rinex Ref. Point: 0.0000                 COMMENT
Radial Measurement Point: PAE                               COMMENT
Radial Offset to Rinex Ref. Point: 0.0842                   COMMENT
Antenna Height from Field Measurement: 1.1170 m             COMMENT
Original XYZ: -2603003.7672 -4492451.0995 3693087.9744      COMMENT
New XYZ position is based on association with SCEC monument COMMENT
E1F1E8I9+0011. Position of that monument is believed to be  COMMENT
valid to within 1 m horizontally; vertical accuracy         COMMENT
should be no worse than 3-times this value.                 COMMENT
                                                            COMMENT
Revised Rinex header created by UCSD GPS archive for        COMMENT
GSAC on 15-Apr-1999 (1999:105) 00:39:50 GMT                 COMMENT
For assistance contact dagnew@ucsd.edu or hjohnson@ucsd.edu COMMENT
                                                            COMMENT
MILLER                                                      MARKER NAME
unknown UCLA                                                OBSERVER / AGENCY
UN03 TI 4100 1.9                                            REC # / TYPE / VERS
UN03 TI 4100                                                ANT # / TYPE
 -2602988.0000 -4492422.0000  3693072.0000                  APPROX POSITION XYZ
        1.1138        0.0000        0.0000                  ANTENNA: DELTA H/E/N
     1     1     0                                          WAVELENGTH FACT L1/2
     4    P1    P2    L1    L2                              # / TYPES OF OBSERV
     0                                                      INTERVAL
  1989    11    12    10     2   29.000000                  TIME OF FIRST OBS
  1989    11    12    17     0   59.000000                  TIME OF LAST OBS
     0                                                      # OF SATELLITES
                                                            END OF HEADER
 89 11 12 10  2 29.0800000  0  3G 2G 6G11
  22427610.488    22427610.601     1251151.923 9   -522954.562 8
  22024529.232    22024529.888      603376.096 9   -894779.080 9
  24088909.852    24088911.966      332602.606 8  -1098289.123 9
 89 11 12 10  2 59.0800000  0  3G 2G 6G11
  22441882.513    22441883.807     1326156.766 9   -464509.247 9
  22013640.718    22013641.722      546156.460 9   -939365.779 9
  24067529.721    24067531.330      220248.028 8  -1185838.104 9
 89 11 12 10  3 29.0800000  0  3G 2G 6G11
  22456176.748    22456177.030     1401271.111 8   -405978.615 9
  22002767.839    22002768.253      489016.528 9   -983890.393 9
  24046166.102    24046170.141      107990.395 8  -1273311.535 7
 89 11 12 10  3 59.0800000  0  3G 2G 6G11
  22470491.198    22470492.061     1476493.645 9   -347363.673 8
  21991909.575    21991910.021      431957.543 9  -1028351.927 9
  24024825.494    24024826.945       -4167.462 7  -1360707.211 9
 89 11 12 10  4 29.0800000  0  3G 2G 6G11
  22484825.842    22484826.454     1551822.114 8   -288666.187 8
  21981066.979    21981066.866      374979.685 9  -1072750.251 9
  24003500.820    24003502.637     -116223.450 8  -1448023.544 8
 89 11 12 10  4 59.0800000  0  3G 2G 6G11
  22499180.699    22499180.941     1627256.701 9   -229885.992 9
  21970240.578    21970240.930      318085.102 9  -1117083.691 9
  23982197.850    23982199.705     -228173.094 9  -1535257.002 7
 89 11 12 10  5 29.0800000  0  3G 2G 6G11
  22513554.598    22513554.945     1702795.765 9   -171024.414 9
  21959430.124    21959429.495      261274.899 9  -1161351.368 9
  23960915.084    23960917.231     -340013.544 9  -1622405.390 8
 89 11 12 10  5 59.0800000  0  3G 2G 6G11
  22527948.372    22527949.432     1778437.451 8   -112082.864 9
  21948635.421    21948635.626      204549.135 9  -1205553.246 9
  23939654.052    23939655.314     -451742.886 9  -1709467.206 8
 89 11 12 10  6 29.0800000  0  3G 2G 6G11
  22542362.888    22542364.116     1854181.744 9    -53061.345 9
  21937856.642    21937856.038      147909.862 9  -1249687.731 9
  23918414.845    23918416.287     -563357.460 9  -1796439.580 9
 89 11 12 10  6 59.0800000  0  3G 2G 6G11
  22556794.195    22556796.315     1930025.893 9      6037.963 9
  21927095.478    21927095.946       91356.569 9  -1293755.230 8
  23897196.985    23897199.962     -674855.395 9  -1883321.080 8
 89 11 12 10  7 29.0800000  0  3G 2G 6G11
  22571246.765    22571247.597     2005969.644 9     65214.888 8
  21916350.549    21916349.960       34891.729 9  -1337753.802 8
  23876002.800    23876004.614     -786232.220 9  -1970108.190 9
 89 11 12 10  7 59.0800000  0  3G 2G 6G11
  22585716.982    22585718.675     2082011.757 8    124468.464 9
  21905622.296    21905622.929      -21483.608 9  -1381682.626 9
  23854830.959    23854834.050     -897485.327 9  -2056798.905 9
 89 11 12 10  8 29.0800000  0  3G 2G 6G11
  22600206.806    22600207.206     2158150.920 9    183797.679 9
  21894912.185    21894911.589      -77769.041 9  -1425541.381 9
  23833684.515    23833687.210    -1008612.091 9  -2143391.141 9
 89 11 12 10  8 59.0800000  0  3G 2G 6G11
  22614712.245    22614713.620     2234385.221 9    243200.993 9
  21884217.889    21884218.108     -133963.528 9  -1469329.285 8
  23812562.659    23812565.363    -1119609.973 9  -2229883.003 9
 89 11 12 10  9 29.0800000  0  3G 2G 6G11
  22629237.318    22629239.155     2310713.955 9    302677.899 9
  21873542.588    21873543.092     -190065.387 9  -1513045.026 9
  23791465.867    23791468.323    -1230475.290 9  -2316271.541 9
 89 11 12 10  9 59.0800000  0  3G 2G 6G11
  22643781.220    22643782.062     2387137.225 9    362228.477 8
  21862884.393    21862884.690     -246072.269 9  -1556686.744 8
  23770394.764    23770397.306    -1341203.770 9  -2402553.444 9
 89 11 12 10 10 29.0800000  0  3G 2G 6G11
  22658340.269    22658342.262     2463651.557 9    421850.005 8
  21852243.970    21852244.775     -301985.709 9  -1600255.647 8
  23749349.411    23749351.632    -1451795.281 7  -2488728.629 9
 89 11 12 10 10 59.0800000  0  3G 2G 6G11
  22672918.333    22672918.917     2540256.869 8    481542.437 9
  21841622.314    21841622.280     -357803.675 9  -1643750.156 9
  23728330.559    23728334.090    -1562245.913 8  -2574794.014 9
 89 11 12 10 11 29.0800000  0  3G 2G 6G11
  22687513.993    22687514.494     2616953.948 9    541306.370 9
  21831019.989    21831019.069     -413522.851 9  -1687167.677 8
  23707341.070    23707343.943    -1672550.296 8  -2660745.449 9
 89 11 12 10 11 59.0800000  0  3G 2G 6G11
  22702125.626    22702126.640     2693739.852 8    601139.519 9
  21820434.863    21820434.760     -469143.775 9  -1730508.646 8
  23686378.669    23686381.924    -1782707.245 9  -2746581.988 8
 89 11 12 10 12 29.0800000  0  3G 2G 6G11
  22716753.885    22716754.940     2770611.699 8    661039.634 9
  21809868.676    21809870.083     -524666.945 9  -1773773.450 8
  23665445.850    23665448.122    -1892715.859 9  -2832302.959 9
 89 11 12 10 12 59.0800000  0  3G 2G 6G11
  22731399.116    22731399.310     2847570.599 9    721007.577 9
  21799322.894    21799323.649     -580088.962 9  -1816959.430 9
  23644540.911    23644543.604    -2002570.614 9  -2917904.038 9
 89 11 12 10 13 29.0800000  0  3G 2G 6G11
  22746059.744    22746060.443     2924615.948 8    781042.885 9
  21788796.079    21788796.407     -635408.018 9  -1860065.182 8
  23623665.082    23623668.267    -2112267.867 9  -3003382.397 9
 89 11 12 10 13 59.0800000  0  3G 2G 6G11
  22760736.566    22760737.288     3001744.130 8    841142.734 9
  21778288.575    21778289.280     -690624.939 9  -1903091.333 9
  23602821.111    23602823.841    -2221806.690 9  -3088737.310 9
 89 11 12 10 14 29.0800000  0  3G 2G 6G11
  22775430.169    22775430.351     3078954.962 9    901306.990 9
  21767801.254    21767802.064     -745738.200 9  -1946036.722 9
  23582008.024    23582010.316    -2331183.695 9  -3173966.145 9
 89 11 12 10 14 59.0800000  0  3G 2G 6G11
  22790137.359    22790138.634     3156248.050 9    961535.348 8
  21757334.256    21757334.245     -800745.602 9  -1988899.617 9
  23561225.983    23561227.142    -2440395.180 9  -3259065.993 8
 89 11 12 10 15 29.0800000  0  3G 2G 6G11
  22804862.376    22804862.597     3233622.607 9   1021827.177 9
  21746887.036    21746887.311     -855645.814 9  -2031678.991 8
  23540475.715    23540477.707    -2549437.845 8  -3344034.310 9
 89 11 12 10 15 59.0800000  0  3G 2G 6G11
  22819600.398    22819602.406     3311077.487 8   1082181.604 8
  21736460.364    21736460.302     -910437.481 9  -2074373.801 9
  23519757.539    23519759.548    -2658308.771 9  -3428868.781 9
 89 11 12 10 16 29.0800000  0  3G 2G 6G11
  22834355.218    22834355.821     3388611.155 9   1142597.425 9
  21726054.547    21726054.822     -965119.891 9  -2116983.458 9
  23499073.821    23499075.786    -2767005.602 9  -3513567.599 9
 89 11 12 10 16 59.0800000  0  3G 2G 6G11
  22849124.937    22849124.547     3466221.856 9   1203073.261 9
  21715669.937    21715669.575    -1019692.252 9  -2159507.372 9
  23478422.370    23478425.189    -2875525.602 9  -3598128.628 9
 89 11 12 10 17 29.0800000  0  3G 2G 6G11
  22863907.837    22863908.596     3543908.564 9   1263608.324 9
  21705305.932    21705305.801    -1074153.819 9  -2201944.941 9
  23457805.859    23457808.362    -2983866.324 9  -3682549.947 9
 89 11 12 10 17 59.0800000  0  3G 2G 6G11
  22878705.661    22878706.810     3621671.716 9   1324202.963 8
  21694963.691    21694963.903    -1128501.149 9  -2244293.496 8
  23437224.845    23437227.384    -3092023.022 9  -3766827.865 9
 89 11 12 10 18 29.0800000  0  3G 2G 6G11
  22893517.374    22893517.969     3699509.987 9   1384856.139 8
  21684643.651    21684643.334    -1182733.710 9  -2286552.633 8
  23416677.784    23416680.843    -3199993.587 9  -3850960.764 9
 89 11 12 10 18 59.0800000  0  4G 2G 6G11G 9
  22908343.118    22908344.262     3777420.383 9   1445565.507 9
  21674345.265    21674345.227    -1236851.836 9  -2328722.594 8
  23396168.312    23396170.782    -3307776.586 9  -3934947.503 9
                  24493271.142    -5794896.087 8
 89 11 12 10 19 29.0800000  0  4G 2G 6G11G 9
  22923183.355    22923183.283     3855403.750 9   1506331.736 9
  21664069.263    21664069.221    -1290852.260 9  -2370800.832 8
  23375693.931    23375696.242    -3415367.151 9  -4018784.282 9
  24476985.888    24476990.681    -5880564.483 7   7551668.280 9
 89 11 12 10 19 59.0800000  0  4G 2G 6G11G 9
  22938036.593    22938037.210     3933458.505 9   1567153.597 9
  21653815.811    21653816.428    -1344734.004 9  -2412786.605 8
  23355257.342    23355259.342    -3522762.352 9  -4102468.829 9
  24460682.633    24460681.606    -5966274.392 8   7484881.352 8
 89 11 12 10 20 29.0800000  0  4G 2G 6G11G 9
  22952903.347    22952904.326     4011583.048 9   1628029.824 8
  21643585.567    21643585.527    -1398496.649 9  -2454679.565 8
  23334857.688    23334860.965    -3629960.298 9  -4185999.668 9
  24444361.036    24444360.379    -6052026.454 8   7418061.609 8
 89 11 12 10 20 59.0800000  0  4G 2G 6G11G 9
  22967783.018    22967784.606     4089777.114 8   1688960.241 9
  21633377.762    21633377.977    -1452137.967 9  -2496477.980 9
  23314496.682    23314500.222    -3736957.104 9  -4269373.769 9
  24428032.782    24428035.951    -6137819.308 9   7351210.073 9
 89 11 12 10 21 29.0800000  0  4G 2G 6G11G 9
  22982676.265    22982677.495     4168039.494 9   1749943.873 9
  21623193.451    21623194.182    -1505657.030 9  -2538181.139 8
  23294176.095    23294176.870    -3843750.324 9  -4352589.250 8
  24411698.788    24411701.607    -6223652.720 8   7284326.906 8
 89 11 12 10 21 59.0800000  0  4G 2G 6G11G 9
  22997582.267    22997582.468     4246369.033 9   1810979.846 9
  21613032.292    21613032.709    -1559052.196 9  -2579787.762 8
  23273892.867    23273895.621    -3950337.117 9  -4435643.868 9
  24395356.167    24395361.526    -6309525.904 9   7217412.785 8
 89 11 12 10 22 29.0800000  0  4G 2G 6G11G 9
  23012499.561    23012500.345     4324765.492 9   1872067.973 9
  21602895.102    21602896.190    -1612321.685 9  -2621296.447 8
  23253649.505    23253652.518    -4056713.721 9  -4518534.726 8
  24379009.582    24379015.871    -6395437.982 9   7150468.339 9
 89 11 12 10 22 59.0800000  0  4G 2G 6G11G 9
  23027430.345    23027431.435     4403227.724 9   1933207.328 9
  21592783.139    21592783.400    -1665464.065 8  -2662706.086 9
  23233447.697    23233450.063    -4162877.155 9  -4601259.460 8
  24362656.779    24362658.213    -6481388.022 9   7083494.340 9
 89 11 12 10 23 29.0800000  0  4G 2G 6G11G 9
  23042374.540    23042374.410     4481753.572 9   1994396.274 9
  21582694.371    21582695.533    -1718479.162 8  -2704016.541 9
  23213285.827    23213288.236    -4268825.968 9  -4683816.958 9
  24346297.082    24346291.935    -6567376.832 9   7016490.111 8
 89 11 12 10 23 59.0800000  0  4G 2G 6G11G 9
  23057328.735    23057330.292     4560343.656 9   2055635.270 9
  21572630.773    21572630.932    -1771364.512 9  -2745225.887 9
  23193166.084    23193168.351    -4374555.800 9  -4766203.829 9
  24329923.748    24329926.165    -6653402.695 9   6949456.968 8
 89 11 12 10 24 29.0800000  0  4G 2G 6G11G 9
  23072297.201    23072296.983     4638996.597 9   2116923.236 9
  21562591.630    21562592.261    -1824118.328 9  -2786332.750 9
  23173088.640    23173090.952    -4480063.845 9  -4848417.873 9
  24313542.612    24313545.723    -6739464.552 9   6882395.839 7
 89 11 12 10 24 59.0800000  0  4G 2G 6G11G 9
  23087275.422    23087276.631     4717711.229 9   2178259.291 9
  21552577.770    21552578.745    -1876739.433 9  -2827336.194 9
  23153054.759    23153055.911    -4585347.366 9  -4930456.959 9
  24297159.989    24297162.058    -6825562.259 9   6815306.771 8
 89 11 12 10 25 29.0800000  0  4G 2G 6G11G 9
  23102265.848    23102266.323     4796485.997 9   2239642.188 9
  21542590.726    21542590.701    -1929227.489 9  -2868235.982 8
  23133061.945    23133065.066    -4690404.535 8  -5012319.675 9
  24280771.548    24280768.635    -6911696.133 9   6748189.503 8
 89 11 12 10 25 59.0800000  0  4G 2G 6G11G 9
  23117267.202    23117267.594     4875319.506 9   2301070.867 9
  21532627.521    21532627.552    -1981581.022 9  -2909030.919 9
  23113114.536    23113116.440    -4795232.309 9  -5094003.633 9
  24264373.066    24264377.324    -6997865.408 8   6681044.637 8
 89 11 12 10 26 29.0800000  0  4G 2G 6G11G 9
  23132279.826    23132281.248     4954211.464 9   2362545.066 9
  21522691.719    21522691.507    -2033797.865 9  -2949719.357 9
  23093210.261    23093212.951    -4899826.958 9  -5175505.940 9
  24247968.894    24247969.414    -7084068.747 8   6613873.238 7
 89 11 12 10 26 59.0800000  0  4G 2G 6G11G 9
  23147303.593    23147305.389     5033162.458 9   2424065.277 9
  21512782.043    21512781.417    -2085875.546 9  -2990299.370 9
  23073352.256    23073353.948    -5004184.713 9  -5256823.652 9
  24231557.518    24231561.151    -7170304.476 8   6546676.604 8
 89 11 12 10 27 29.0800000  0  4G 2G 6G11G 9
  23162339.263    23162339.673     5112170.178 9   2485629.707 9
  21502897.927    21502898.342    -2137813.339 9  -3030770.360 9
  23053539.521    23053541.475    -5108303.275 9  -5337954.987 9
  24215141.718    24215146.105    -7256572.784 8   6479454.567 8
 89 11 12 10 27 59.0800000  0  4G 2G 6G11G 9
  23177383.461    23177385.138     5191234.260 9   2547238.044 9
  21493040.922    21493040.797    -2189609.677 9  -3071131.141 9
  23033771.183    23033774.099    -5212179.700 9  -5418897.635 9
  24198719.962    24198724.151    -7342872.687 8   6412207.905 8
 89 11 12 10 28 29.0800000  0  4G 2G 6G11G 9
  23192439.393    23192440.616     5270352.735 9   2608888.775 9
  21483212.254    21483212.355    -2241264.192 9  -3111381.407 9
  23014050.753    23014052.913    -5315812.539 9  -5499650.474 9
  24182296.866    24182293.409    -7429204.686 8   6344936.282 7
 89 11 12 10 28 59.0800000  0  4G 2G 6G11G 9
  23207505.562    23207506.675     5349525.895 9   2670582.085 9
  21473409.782    21473409.842    -2292774.612 9  -3151519.385 9
  22994378.270    22994379.611    -5419197.930 9  -5580210.518 9
  24165853.426    24165860.111    -7515567.162 7   6277640.842 8
 89 11 12 10 29 29.0800000  0  4G 2G 6G11G 9
  23222583.262    23222583.739     5428752.899 9   2732317.357 9
  21463635.633    21463636.464    -2344138.638 9  -3191543.298 8
  22974752.487    22974754.789    -5522332.374 9  -5660575.006 9
  24149419.605    24149418.645    -7601958.897 8   6210322.648 8
 89 11 12 10 29 59.0800000  0  4G 2G 6G11G 9
  23237667.926    23237669.708     5508031.984 9   2794093.240 9
  21453888.682    21453889.099    -2395355.791 9  -3231452.759 9
  22955174.295    22955175.830    -5625214.021 9  -5740742.493 9
  24132972.971    24132973.083    -7688379.877 8   6142981.657 7
 89 11 12 10 30 29.0800000  0  4G 2G 6G11G 9
  23252764.603    23252765.432     5587362.658 9   2855909.338 9
  21444171.267    21444171.324    -2446424.163 9  -3271246.255 9
  22935644.693    22935646.936    -5727839.538 9  -5820710.383 9
  24116522.006    24116521.347    -7774829.077 8   6075618.696 8
 89 11 12 10 30 59.0800000  0  4G 2G 6G11G 9
  23267870.939    23267872.026     5666744.070 8   2917764.947 9
  21434481.452    21434482.371    -2497342.125 9  -3310922.599 8
  22916165.779    22916167.261    -5830205.850 9  -5900476.324 9
  24100068.024    24100069.977    -7861305.805 9   6008234.260 9
 89 11 12 10 31 29.0800000  0  4G 2G 6G11G 9
  23282985.494    23282987.075     5746174.966 9   2979659.083 9
  21424820.686    21424821.346    -2548108.329 9  -3350480.703 9
  22896735.145    22896737.902    -5932310.447 9  -5980038.356 9
  24083603.467    24083607.818    -7947809.257 9   5940828.953 9
 89 11 12 10 31 59.0800000  0  4G 2G 6G11G 9
  23298109.691    23298110.984     5825656.100 9   3041592.417 9
  21415190.213    21415190.744    -2598720.536 9  -3389918.764 8
  22877355.995    22877358.375    -6034149.670 9  -6059393.560 9
  24067137.814    24067136.858    -8034337.937 9   5873404.051 9
 89 11 12 10 32 29.0800000  0  4G 2G 6G11G 9
  23313244.940    23313245.682     5905186.323 9   3103564.005 9
  21405588.988    21405588.703    -2649176.834 9  -3429235.325 9
  22858028.117    22858030.361    -6135720.580 9  -6138539.696 9
  24050666.311    24050668.584    -8120890.760 9   5805960.313 8
 89 11 12 10 32 59.0800000  0  4G 2G 6G11G 9
  23328387.367    23328388.249     5984762.737 9   3165571.528 9
  21396016.281    21396016.884    -2699477.505 8  -3468430.684 9
  22838749.972    22838753.487    -6237022.130 9  -6217475.968 9
  24034193.217    24034193.999    -8207468.992 9   5738496.774 9
 89 11 12 10 33 29.0800000  0  4G 2G 6G11G 9
  23343539.360    23343541.050     6064386.401 9   3227615.917 9
  21386474.825    21386475.541    -2749619.584 9  -3507502.420 9
  22819525.756    22819528.171    -6338049.899 9  -6296198.892 9
  24017715.519    24017714.860    -8294070.116 9   5671015.396 8
 89 11 12 10 33 59.0800000  0  4G 2G 6G11G 9
  23358700.753    23358700.907     6144055.627 9   3289695.791 8
  21376963.877    21376963.535    -2799601.863 9  -3546449.657 9
  22800353.036    22800356.070    -6438801.722 9  -6374706.790 9
  24001230.951    24001230.478    -8380694.056 9   5603516.239 9
 89 11 12 10 34 29.0800000  0  4G 2G 6G11G 9
  23373869.261    23373870.585     6223770.097 9   3351810.936 9
  21367483.351    21367483.579    -2849422.607 9  -3585270.998 8
  22781233.878    22781234.970    -6539274.559 9  -6452997.285 9
  23984739.686    23984741.610    -8467339.564 9   5536000.276 9
 89 11 12 10 34 59.0800000  0  4G 2G 6G11G 9
  23389047.305    23389047.912     6303529.056 9   3413960.741 9
  21358033.373    21358033.074    -2899080.016 8  -3623965.097 8
  22762168.558    22762171.113    -6639465.422 9  -6531068.093 9
  23968247.653    23968249.801    -8554005.761 8   5468468.184 9
 89 11 12 10 35 29.0800000  0  4G 2G 6G11G 9
  23404232.204    23404232.712     6383330.783 9   3476143.866 9
  21348615.333    21348616.135    -2948573.118 9  -3662531.142 9
  22743156.632    22743159.268    -6739372.122 9  -6608917.444 9
  23951753.714    23951755.868    -8640692.197 9   5400920.343 9
 89 11 12 10 35 59.0800000  0  4G 2G 6G11G 9
  23419426.886    23419426.756     6463175.098 9   3538360.179 8
  21339228.602    21339228.705    -2997899.488 9  -3700967.264 8
  22724198.843    22724201.321    -6838991.279 9  -6686542.745 9
  23935252.611    23935253.053    -8727397.257 9   5333358.004 9
 89 11 12 10 36 29.0800000  0  4G 2G 6G11G 9
  23434628.381    23434629.185     6543062.016 9   3600609.690 9
  21329873.879    21329873.868    -3047057.255 9  -3739272.019 9
  22705297.980    22705301.152    -6938319.758 9  -6763941.546 9
  23918752.382    23918751.744    -8814119.998 9   5265781.867 9
 89 11 12 10 36 59.0800000  0  4G 2G 6G11G 9
  23449837.715    23449839.366     6622990.239 8   3662891.402 9
  21320552.872    21320552.059    -3096045.002 9  -3777444.277 9
  22686451.642    22686454.372    -7037354.823 8  -6841111.688 9
  23902244.616    23902246.400    -8900859.732 8   5198192.521 8
 89 11 12 10 37 29.0800000  0  4G 2G 6G11G 9
  23465055.232    23465057.249     6702958.932 9   3725204.617 9
  21311262.772    21311263.560    -3144861.534 9  -3815483.124 8
  22667662.123    22667665.533    -7136094.610 8  -6918051.769 9
  23885736.867    23885737.282    -8987615.753 8   5130590.454 8
 89 11 12 10 37 59.0800000  0  4G 2G 6G11G 9
  23480280.117    23480281.583     6782966.159 8   3787547.872 9
  21302006.311    21302006.543    -3193505.951 9  -3853387.861 9
  22648930.516    22648931.436    -7234536.575 9  -6994759.776 9
  23869225.225    23869224.990    -9074388.216 8   5062975.565 9
 89 11 12 10 38 29.0800000  0  4G 2G 6G11G 9
  23495512.528    23495514.119     6863012.375 8   3849921.490 9
  21292783.350    21292783.439    -3241975.304 9  -3891156.184 9
  22630254.174    22630256.503    -7332677.068 9  -7071232.873 9
  23852706.086    23852708.669    -9161174.799 7   4995349.688 9
 89 11 12 10 38 59.0800000  0  4G 2G 6G11G 9
  23510752.593    23510754.061     6943096.360 8   3912324.562 9
  21283592.041    21283591.929    -3290268.532 8  -3928787.266 9
  22611636.537    22611638.593    -7430513.700 9  -7147469.183 9
  23836189.736    23836188.915    -9247974.976 7   4927713.230 8
 89 11 12 10 39 29.0800000  0  4G 2G 6G11G 9
  23525998.701    23526000.448     7023218.056 9   3974757.015 9
  21274436.918    21274437.250    -3338382.995 9  -3966279.044 9
  22593077.152    22593079.374    -7528042.971 9  -7223465.991 9
  23819672.953    23819670.870    -9334787.243 7   4860067.341 9
 89 11 12 10 39 59.0800000  0  4G 2G 6G11G 9
  23541252.478    23541254.122     7103376.984 9   4037218.465 9
  21265315.222    21265315.453    -3386316.952 9  -4003630.161 9
  22574576.621    22574579.345    -7625261.845 9  -7299220.957 9
  23803149.098    23803148.267    -9421610.335 8   4792413.034 8
 89 11 12 10 40 29.0800000  0  4G 2G 6G11G 9
  23556513.667    23556514.823     7183572.196 9   4099708.199 9
  21256228.499    21256228.002    -3434069.517 9  -4040839.941 8
  22556136.803    22556138.948    -7722168.770 9  -7374732.835 9
  23786627.610    23786626.401    -9508444.136 7   4724750.356 7
 89 11 12 10 40 59.0800000  0  4G 2G 6G11G 9
  23571781.318    23571781.977     7263802.125 9   4162225.025 9
  21247176.201    21247175.747    -3481639.335 9  -4077907.303 8
  22537755.959    22537758.069    -7818761.251 9  -7449999.659 9
  23770100.158    23770101.674    -9595287.919 8   4657079.930 8
 89 11 12 10 41 29.0800000  0  4G 2G 6G11G 9
  23587054.231    23587056.816     7344066.685 9   4224768.790 9
  21238159.148    21238158.723    -3529023.885 9  -4114830.315 9
  22519434.703    22519437.516    -7915035.663 9  -7525018.665 9
  23753573.462    23753574.306    -9682140.090 8   4589402.921 9
 89 11 12 10 41 59.0800000  0  4G 2G 6G11G 9
  23602335.392    23602336.726     7424365.083 9   4287338.940 9
  21229177.741    21229177.556    -3576221.808 9  -4151607.925 8
  22501175.446    22501178.523    -8010989.910 9  -7599788.194 9
  23737042.497    23737043.398    -9768999.917 9   4521719.979 8
 89 11 12 10 42 29.0800000  0  4G 2G 6G11G 9
  23617621.960    23617622.979     7504696.115 9   4349934.518 9
  21220231.646    21220232.536    -3623231.497 9  -4188238.851 9
  22482978.012    22482978.796    -8106621.177 9  -7674306.038 9
  23720512.525    23720512.955    -9855866.567 8   4454031.698 8
 89 11 12 10 42 59.0800000  0  4G 2G 6G11G 9
  23632914.654    23632915.899     7585060.969 9   4412556.442 9
  21211322.801    21211322.486    -3670049.585 9  -4224720.464 9
  22464842.068    22464843.385    -8201925.109 9  -7748568.824 9
  23703982.474    23703983.247    -9942737.301 8   4386340.230 8
 89 11 12 10 43 29.0800000  0  4G 2G 6G11G 9
  23648213.250    23648214.297     7665456.221 9   4475202.021 9
  21202449.511    21202450.272    -3716676.752 9  -4261053.362 9
  22446767.743    22446770.945    -8296901.831 9  -7822576.687 9
  23687449.190    23687450.456   -10029613.459 9   4318644.502 8
 89 11 12 10 43 59.0800000  0  4G 2G 6G11G 9
  23663518.144    23663519.524     7745882.347 9   4537871.696 8
  21193613.100    21193614.975    -3763110.608 8  -4297235.580 8
  22428758.272    22428758.974    -8391547.805 8  -7896326.768 8
  23670916.365    23670917.818   -10116493.361 8   4250945.893 8
 89 11 12 10 44 29.0800000  0  4G 2G 6G11G 9
  23678828.903    23678828.820     7826340.284 9   4600566.177 9
  21184815.821    21184815.137    -3809347.871 9  -4333264.599 9
  22410811.352    22410813.522    -8485858.862 9  -7969815.883 9
  23654383.645    23654384.309   -10203374.455 9   4183246.360 8
 89 11 12 10 44 59.0800000  0  4G 2G 6G11G 9
  23694145.671    23694146.003     7906828.901 9   4663284.563 9
  21176054.417    21176055.135    -3855386.772 9  -4369139.030 9
  22392928.733    22392930.509    -8579832.543 9  -8043042.085 9
  23637851.212    23637851.629   -10290255.799 9   4115546.650 9
 89 11 12 10 45 29.0800000  0  4G 2G 6G11G 9
  23709467.795    23709467.519     7987344.803 9   4726024.203 9
  21167331.030    21167331.049    -3901228.172 9  -4404859.598 8
  22375109.816    22375112.235    -8673468.763 9  -8116005.356 9
  23621318.164    23621318.636   -10377138.755 9   4047845.663 9
 89 11 12 10 45 59.0800000  0  4G 2G 6G11G 9
  23724794.298    23724795.231     8015085.315 9   4788786.900 9
                  21158646.610    -3946868.381 9
  22357357.183    22357358.054    -8784347.465 9  -8188701.739 9
  23604785.553    23604785.924   -10464019.824 9   4040074.652 9
 89 11 12 10 46 29.0800000  0  4G 2G 6G11G 9
  23740127.825    23740128.772     8095659.761 9   4851572.146 9
  21150000.380    21150000.130    -3992303.768 9  -4328263.586 9
  22339669.558    22339671.238    -8877295.876 9  -8261129.062 9
  23588252.646    23588253.655   -10550897.669 9   3972377.141 8
 89 11 12 10 46 59.0800000  0  4G 2G 6G11G 9
  23755464.080    23755465.395     8176260.819 9   4914378.123 9
  21141392.785    21141392.319    -4037535.595 9  -4363509.158 8
  22322047.800    22322049.850    -8969897.703 9  -8333286.315 9
  23571720.380    23571721.072   -10637772.542 9   3904682.471 9
 89 11 12 10 47 29.0800000  0  4G 2G 6G11G 9
  23770808.476    23770808.224     8256888.248 9   4977204.636 9
  21132824.423    21132824.832    -4082561.321 9  -4398594.153 9
  22304492.993    22304494.898    -9062150.070 9  -8405171.267 9
  23555190.344    23555190.063   -10724643.246 9   3836991.022 9
 89 11 12 10 47 59.0800000  0  4G 2G 6G11G 9
  23786155.866    23786157.472     8337541.989 9   5040051.671 9
  21124295.518    21124296.352    -4127378.589 9  -4433516.699 9
  22287004.801    22287006.432    -9154049.923 9  -8476781.528 8
  23538659.978    23538660.714   -10811508.191 9   3769304.077 9
 89 11 12 10 48 29.0800000  0  4G 2G 6G11G 9
  23801507.909    23801510.097     8418221.010 8   5102918.395 9
  21115806.730    21115807.480    -4171985.845 9  -4468275.599 9
  22269584.476    22269585.502    -9245595.146 9  -8548115.460 8
  23522131.650    23522132.725   -10898366.242 9   3701622.491 9
 89 11 12 10 48 59.0800000  0  4G 2G 6G11G 9
  23816867.526    23816866.972     8498925.553 8   5165805.005 8
  21107359.212    21107359.162    -4216380.431 9  -4502868.770 9
  22252232.132    22252233.595    -9336782.229 9  -8619170.312 9
  23505604.399    23505605.515   -10985215.702 9   3633947.619 9
 89 11 12 10 49 29.0800000  0  4G 2G 6G11G 9
  23832227.118    23832229.735     8579654.881 8   5228710.949 9
  21098952.460    21098952.109    -4260560.726 9  -4537294.951 8
  22234947.957    22234949.684    -9427608.871 9  -8689944.285 9
  23489079.521    23489080.487   -11072055.202 9   3566280.543 9
 89 11 12 10 49 59.0800000  0  4G 2G 6G11G 9
  23847595.887    23847595.998     8660407.561 8   5291635.084 8
  21090586.089    21090586.412    -4304525.782 9  -4571553.423 9
  22217733.365    22217733.990    -9518073.191 9  -8760435.947 8
  23472556.168    23472556.840   -11158884.583 8   3498621.314 9
 89 11 12 10 50 29.0800000  0  4G 2G 6G11G 9
  23862966.669    23862967.184     8741183.442 8   5354577.253 8
  21082261.214    21082261.150    -4348273.398 8  -4605642.460 9
  22200587.997    22200589.552    -9608172.211 9  -8830642.961 9
  23456034.594    23456035.132   -11245702.379 9   3430971.124 8
 89 11 12 10 50 59.0800000  0  4G 2G 6G11G 9
  23878341.835    23878343.161     8821981.779 8   5417536.942 9
  21073978.181    21073977.186    -4391801.728 9  -4639560.626 9
  22183512.510    22183514.549    -9697903.735 9  -8900563.617 9
  23439516.565    23439517.809   -11332507.298 9   3363330.968 9
 89 11 12 10 51 29.0800000  0  4G 2G 6G11G 9
  23893720.783    23893723.791     8902801.984 8   5480513.669 8
  21065737.044    21065737.150    -4435108.628 9  -4673306.258 8
  22166508.154    22166509.772    -9787264.910 9  -8970195.683 9
  23423000.501    23423002.589   -11419298.023 8   3295701.879 8
 89 11 12 10 51 59.0800000  0  4G 2G 6G11G 9
  23909105.546    23909106.019     8983643.518 8   5543506.981 9
  21057537.490    21057538.470    -4478192.746 9  -4706878.324 9
  22149573.732    22149576.001    -9876253.814 9  -9039537.716 8
  23406487.671    23406489.560   -11506073.544 9   3228084.588 9
 89 11 12 10 52 29.0800000  0  4G 2G 6G11G 9
  23924493.677    23924494.174     9064505.890 9   5606516.565 9
  21049382.306    21049382.230    -4521052.109 9  -4740275.222 9
  22132710.631    22132712.565    -9964868.066 9  -9108587.768 8
  23389978.320    23389979.456   -11592832.597 8   3160480.162 8
 89 11 12 10 52 59.0800000  0  4G 2G 6G11G 9
  23939884.020    23939886.968     9145389.775 8   5669542.927 9
  21041269.466    21041270.519    -4563683.371 9  -4773494.378 9
  22115920.781    22115922.590   -10053103.077 9  -9177342.305 9
  23373471.658    23373472.917   -11679572.405 9   3092890.728 9
 89 11 12 10 53 29.0800000  0  4G 2G 6G11G 9
  23955280.454    23955280.940     9226294.127 9   5732585.227 8
  21033201.158    21033200.908    -4606085.167 8  -4806534.746 9
  22099202.056    22099203.951   -10140957.394 9  -9245800.203 9
  23356970.075    23356970.427   -11766292.560 9   3025316.600 9
 89 11 12 10 53 59.0800000  0  4G 2G 6G11G 9
  23970679.730    23970681.431     9307217.280 9   5795642.168 9
  21025176.559    21025176.512    -4648257.048 9  -4839395.952 9
  22082556.802    22082559.360   -10228429.771 9  -9313960.498 9
  23340471.418    23340473.079   -11852992.669 9   2957758.119 9
 89 11 12 10 54 29.0800000  0  4G 2G 6G11G 9
  23986081.391    23986083.475     9388158.749 9   5858713.399 9
  21017195.121    21017194.956    -4690196.606 9  -4872076.110 8
  22065985.114    22065985.899   -10315517.306 9  -9381820.881 9
  23323977.635    23323977.851   -11939671.135 9   2890216.476 9
 89 11 12 10 54 59.0800000  0  4G 2G 6G11G 9
  24001487.411    24001489.340     9469119.568 9   5921799.715 9
  21009259.100    21009259.536    -4731900.779 9  -4904572.853 8
  22049486.117    22049487.718   -10402216.483 9  -9449378.666 9
  23307487.471    23307487.629   -12026325.711 9   2822693.453 8
 89 11 12 10 55 29.0800000  0  4G 2G 6G11G 9
  24016897.867    24016899.859     9550098.673 9   5984900.262 9
  21001368.666    21001367.756    -4773367.866 9  -4936884.882 8
  22033062.153    22033063.527   -10488524.941 8  -9516632.006 9
  23291003.425    23291003.439   -12112955.030 9   2755190.118 8
 89 11 12 10 55 59.0800000  0  4G 2G 6G11G 9
  24032310.708    24032312.983     9631095.316 9   6048014.476 9
  20993522.805    20993522.428    -4814596.680 8  -4969011.249 8
  22016712.581    22016715.449   -10574441.142 9  -9583579.692 8
  23274522.648    23274522.963   -12199558.439 9   2687706.952 8
 89 11 12 10 56 29.0800000  0  4G 2G 6G11G 9
  24047727.782    24047729.941     9712108.083 9   6111141.259 9
  20985722.592    20985722.402    -4855585.604 8  -5000950.665 9
  22000438.263    22000440.834   -10659963.164 9  -9650220.211 9
  23258047.748    23258048.368   -12286135.157 9   2620244.597 8
 89 11 12 10 56 59.0800000  0  4G 2G 6G11G 9
  24063146.639    24063148.771     9793137.425 9   6174280.946 9
  20977968.542    20977969.764    -4896331.776 9  -5032700.924 8
  21984239.828    21984241.925   -10745087.733 9  -9716551.023 9
  23241578.031    23241578.387   -12372682.623 9   2552805.015 9
 89 11 12 10 57 29.0800000  0  4G 2G 6G11G 9
  24078570.123    24078571.997     9874183.214 9   6237433.475 9
  20970261.682    20970261.830    -4936832.890 9  -5064260.236 9
  21968118.287    21968119.027   -10829811.992 9  -9782569.901 9
  23225113.910    23225114.946   -12459199.186 9   2485389.547 7
 89 11 12 10 57 59.0800000  0  4G 2G 6G11G 9
  24093997.289    24093995.652     9955244.029 9   6300597.703 8
  20962601.210    20962601.430    -4977088.594 9  -5095628.288 9
  21952071.280    21952073.273   -10914135.075 9  -9848276.176 8
  23208656.470    23208656.669   -12545684.950 9   2417998.059 8
 89 11 12 10 58 29.0800000  0  4G 2G 6G11G 9
  24109425.524    24109424.985    10036320.066 9   6363773.776 8
  20954988.361    20954987.825    -5017095.940 9  -5126802.848 8
  21936102.091    21936103.834   -10998053.828 9  -9913667.401 9
  23192205.185    23192206.143   -12632137.735 8   2350632.276 9
 89 11 12 10 58 59.0800000  0  4G 2G 6G11G 9
  24124854.487    24124855.846    10117409.993 8   6426960.662 9
  20947423.089    20947422.041    -5056853.737 9  -5157782.953 8
  21920210.130    21920212.134   -11081566.522 9  -9978742.207 9
  23175759.925    23175760.739   -12718556.683 9   2283292.855 8
 89 11 12 10 59 29.0800000  0  4G 2G 6G11G 9
  24140287.116    24140289.254    10198514.086 9   6490158.601 9
  20939905.355    20939905.190    -5096359.307 9  -5188566.512 8
  21904395.746    21904398.275   -11164670.117 9 -10043498.237 8
  23159322.754    23159322.934   -12804939.497 9   2215981.609 8
 89 11 12 10 59 59.0800000  0  4G 2G 6G11G 9
  24155722.022    24155725.554    10279632.569 9   6553367.720 9
  20932435.483    20932436.161    -5135610.014 9  -5219151.486 8
  21888660.971    21888661.938   -11247361.464 9 -10107933.060 9
  23142891.044    23142891.187   -12891284.334 9   2148699.922 8
 89 11 12 11  0 29.0800000  0  4G 2G 6G11G 9
  24171161.783    24171164.204    10360763.749 8   6616586.778 8
  20925015.563    20925015.529    -5174605.236 9  -5249537.365 8
  21873003.309    21873005.784   -11329639.724 9 -10172045.976 9
  23126467.254    23126467.953   -12977590.837 8   2081448.118 8
 89 11 12 11  0 59.0800000  0  4G 2G 6G11G 9
  24186605.522    24186606.805    10441907.675 9   6679815.755 9
  20917643.597    20917643.834    -5213342.555 8  -5279722.286 8
  21857425.509    21857427.645   -11411502.337 9 -10235835.009 9
  23110050.838    23110052.764   -13063857.209 8   2014227.634 9
 89 11 12 11  1 29.0800000  0  4G 2G 6G11G 9
  24202050.318    24202049.038    10523064.056 9   6743054.425 8
  20910321.025    20910321.562    -5251819.582 9  -5309704.389 8
  21841926.634    21841928.989   -11492946.589 9 -10299298.045 9
  23093643.361    23093643.833   -13150081.765 8   1947039.696 8
 89 11 12 11  1 59.0800000  0  4G 2G 6G11G 9
  24217498.820    24217494.392    10604233.051 9   6806302.917 8
  20903049.720    20903049.114    -5290033.705 9  -5339481.630 8
  21826509.494    21826510.771   -11573969.476 9 -10362432.753 9
  23077243.603    23077244.919   -13236262.031 9   1879886.282 9
 89 11 12 11  2 29.0800000  0  4G 2G 6G11G 9
  24232941.939    24232942.522    10685413.737 8   6869560.525 9
  20895828.387    20895827.606    -5327983.574 9  -5369052.948 8
  21811171.622    21811172.740   -11654569.491 9 -10425237.954 9
  23060853.559    23060854.289   -13322397.262 9   1812767.953 9
 89 11 12 11  2 59.0800000  0  4G 2G 6G11G 9
  24248390.309    24248393.536    10766605.973 7   6932827.186 8
  20888655.945    20888657.439    -5365667.331 9  -5398416.887 9
  21795914.462    21795917.288   -11734744.515 9 -10487711.949 8
  23044471.130    23044472.197   -13408486.066 9   1745685.826 8
 89 11 12 11  3 29.0800000  0  4G 2G 6G11G 9
  24263845.594    24263846.073    10847808.196 9   6996101.584 9
  20881536.805    20881537.187    -5403083.931 9  -5427572.671 9
  21780739.078    21780740.290   -11814493.430 9 -10549853.952 9
  23028097.221    23028097.932   -13494527.778 8   1678640.355 8
 89 11 12 11  3 59.0800000  0  4G 2G 6G11G 9
  24279297.226    24279300.093    10929020.752 8   7059384.040 8
  20874468.222    20874468.699    -5440230.411 9  -5456517.967 8
  21765644.516    21765646.799   -11893812.889 9 -10611661.287 8
  23011733.867    23011734.104   -13580520.015 9   1611633.465 8
 89 11 12 11  4 29.0800000  0  4G 2G 6G11G 9
  24294753.968    24294756.763    11010242.533 9   7122673.694 8
  20867450.521    20867452.044    -5477105.742 9  -5485251.987 8
  21750633.253    21750634.479   -11972701.628 9 -10673133.037 8
  22995379.792    22995380.642   -13666462.150 9   1544665.589 9
 89 11 12 11  4 59.0800000  0  4G 2G 6G11G 9
  24310214.055    24310215.498    11091474.868 8   7185971.527 8
  20860486.693    20860486.270    -5513706.292 9  -5513771.918 8
  21735702.788    21735705.740   -12051155.691 9 -10734266.070 8
  22979035.644    22979035.280   -13752350.993 9   1477739.245 9
 89 11 12 11  5 29.0800000  0  4G 2G 6G11G 9
  24325673.337    24325674.897    11172717.811 9   7249277.642 8
  20853574.336    20853574.013    -5550029.634 8  -5542075.828 8
  21720856.785    21720858.889   -12129173.038 9 -10795058.796 8
  22962701.938    22962702.047   -13838184.493 9   1410856.001 9
 89 11 12 11  5 59.0800000  0  4G 2G 6G11G 9
  24341135.303    24341136.464    11253968.568 9   7312589.869 8
  20846714.623    20846715.159    -5586075.951 9  -5570163.852 8
  21706093.738    21706094.752   -12206753.609 8 -10855511.172 8
  22946378.716    22946379.136   -13923963.351 9   1344015.355 8
 89 11 12 11  6 29.0800000  0  4G 2G 6G11G 9
  24356596.983    24356598.654    11335227.255 9   7375908.270 8
  20839907.983    20839908.560    -5621842.715 9  -5598034.059 9
  21691414.323    21691416.044   -12283894.501 8 -10915620.941 9
  22930066.592    22930066.790   -14009685.427 9   1277218.963 9
 89 11 12 11  6 59.0800000  0  4G 2G 6G11G 9
  24372064.702    24372063.112    11416493.494 9   7439232.561 9
  20833155.704    20833157.083    -5657327.544 9  -5625684.571 8
  21676819.315    21676820.488   -12360593.535 9 -10975386.410 9
  22913764.913    22913765.186   -14095348.620 9   1210468.445 9
 89 11 12 11  7 29.0800000  0  4G 2G 6G11G 9
  24387526.868    24387528.440    11497768.093 9   7502563.350 8
  20826457.697    20826457.289    -5692527.771 9  -5653113.310 8
  21662308.334    21662311.266   -12436847.883 9 -11034805.365 9
  22897474.959    22897475.659   -14180950.667 9   1143765.571 9
 89 11 12 11  7 59.0800000  0  4G 2G 6G11G 9
  24402996.551    24402996.420    11579049.346 9   7565899.323 9
  20819813.038    20819813.586    -5727442.232 9  -5680319.369 8
  21647882.481    21647884.943   -12512656.236 9 -11093876.781 8
  22881197.515    22881198.510   -14266490.790 9   1077110.950 9
 89 11 12 11  8 29.0800000  0  4G 2G 6G11G 9
  24418467.240    24418464.518    11660337.909 9   7629241.041 9
  20813224.638    20813223.917    -5762068.497 9  -5707300.881 9
  21633541.826    21633544.559   -12588016.117 9 -11152598.751 9
  22864932.314    22864933.480   -14351967.069 9   1010506.088 9
 89 11 12 11  8 59.0800000  0  4G 2G 6G11G 9
  24433932.392    24433936.269    11741634.307 9   7692588.805 9
  20806690.461    20806690.082    -5796403.730 9  -5734055.601 8
  21619287.536    21619289.192   -12662924.611 9 -11210968.981 9
  22848679.502    22848678.967   -14437376.732 9    943953.105 8
 89 11 12 11  9 29.0800000  0  4G 2G 6G11G 9
  24449406.881    24449410.105    11822936.812 9   7755941.362 9
  20800212.702    20800212.280    -5830447.065 8  -5760582.872 9
  21605119.269    21605120.898   -12737380.872 9 -11268986.843 9
  22832438.454    22832439.541   -14522719.464 9    877452.294 9
 89 11 12 11  9 59.0800000  0  4G 2G 6G11G 9
  24464880.526    24464881.633    11904244.306 9   7819297.826 9
  20793789.961    20793789.770    -5864197.203 9  -5786881.677 8
  21591037.009    21591038.568   -12811383.860 9 -11326651.480 8
  22816210.688    22816211.839   -14607994.284 8    811004.397 8
 89 11 12 11 10 29.0800000  0  4G 2G 6G11G 9
  24480354.922    24480352.439    11985557.879 9   7882658.972 8
  20787423.600    20787424.037    -5897650.617 9  -5812949.273 8
  21577041.360    21577042.780   -12884930.044 9 -11383960.181 8
  22799997.669    22799998.256   -14693198.005 9    744611.907 9
 89 11 12 11 10 59.0800000  0  3G 6G11G 9
  20781115.036    20781115.405    -5930805.395 9  -5838784.162 8
  21563133.854    21563134.966   -12958017.429 9 -11440911.375 9
  22783798.276    22783798.702   -14778329.033 9    678276.070 8
 89 11 12 11 11 29.0800000  0  3G 6G11G 9
  20774862.673    20774862.174    -5963660.053 9  -5864385.183 8
  21549312.575    21549314.589   -13030644.871 9 -11497504.170 9
  22767612.693    22767611.911   -14863386.339 9    611997.681 9
 89 11 12 11 11 59.0800000  0  3G 6G11G 9
  20768668.325    20768668.739    -5996213.007 9  -5889751.103 9
  21535580.098    21535581.068   -13102810.791 9 -11553737.338 9
  22751440.463    22751440.991   -14948368.243 9    545778.038 8
 89 11 12 11 12 29.0800000  0  3G 6G11G 9
  20762531.814    20762532.190    -6028461.212 9  -5914879.583 9
  21521935.967    21521937.410   -13174512.002 9 -11609608.400 9
  22735283.715    22735284.809   -15033272.306 9    479619.040 8
 89 11 12 11 12 59.0800000  0  3G 6G11G 9
  20756452.948    20756453.166    -6060403.297 9  -5939769.513 8
  21508379.780    21508382.123   -13245747.516 9 -11665116.582 9
  22719141.842    22719141.943   -15118097.179 9    413521.754 8
 89 11 12 11 13 29.0800000  0  3G 6G11G 9
  20750434.073    20750432.711    -6092036.821 9  -5964419.000 8
  21494912.881    21494915.166   -13316515.084 9 -11720260.122 9
  22703016.174    22703017.057   -15202840.936 9    347487.679 9
 89 11 12 11 13 59.0800000  0  3G 6G11G 9
  20744472.265    20744473.626    -6123358.866 9  -5988825.790 8
  21481536.246    21481538.919   -13386811.839 9 -11775036.811 8
  22686905.787    22686905.904   -15287500.639 9    281519.104 8
 89 11 12 11 14 29.0800000  0  3G 6G11G 9
  20738572.458    20738572.345    -6154367.605 8  -6012988.446 9
  21468248.672    21468251.359   -13456636.434 9 -11829445.568 9
  22670811.286    22670812.372   -15372074.971 9    215617.050 9
 89 11 12 11 14 59.0800000  0  3G 6G11G 9
  20732731.496    20732731.035    -6185063.118 8  -6036907.028 7
  21455051.789    21455053.774   -13525988.681 9 -11883486.256 9
  22654733.460    22654733.934   -15456564.090 9    149781.394 8
 89 11 12 11 15 29.0800000  0  3G 6G11G 9
  20726950.274    20726949.900    -6215442.635 9  -6060579.375 7
  21441944.422    21441945.565   -13594866.375 9 -11937157.182 9
  22638673.253    22638673.391   -15540965.655 9     84013.959 9
 89 11 12 11 15 59.0800000  0  3G 6G11G 9
  20721230.238    20721229.818    -6245503.166 9  -6084003.175 8
  21428928.351    21428931.094   -13663266.592 9 -11990456.034 9
  22622628.706    22622629.597   -15625276.601 9     18317.133 9
 89 11 12 11 16 29.0800000  0  3G 6G11G 9
  20715570.107    20715569.828    -6275242.520 9  -6107176.695 8
  21416003.427    21416005.313   -13731187.437 9 -12043381.351 9
  22606602.623    22606603.817   -15709495.070 9    -47307.625 9
 89 11 12 11 16 59.0800000  0  3G 6G11G 9
  20709972.878    20709972.536    -6304659.979 9  -6130099.383 9
  21403170.484    21403172.212   -13798628.484 9 -12095932.797 8
  22590594.492    22590595.576   -15793620.424 9   -112859.831 9
 89 11 12 11 17 29.0800000  0  3G 6G11G 9
  20704436.670    20704436.729    -6333751.893 8  -6152768.406 9
  21390428.032    21390430.175   -13865586.377 9 -12148107.752 9
  22574604.142    22574603.881   -15877649.122 9   -178336.707 9
 89 11 12 11 17 59.0800000  0  3G 6G11G 9
  20698963.328    20698962.536    -6362517.665 9  -6175183.281 8
  21377778.303    21377780.487   -13932060.815 9 -12199905.999 9
  22558631.880    22558632.619   -15961580.991 9   -243738.141 8
 89 11 12 11 18 29.0800000  0  3G 6G11G 9
  20693551.731    20693551.968    -6390954.562 9  -6197341.907 9
  21365221.270    21365223.728   -13998049.447 9 -12251325.685 8
  22542679.545    22542680.494   -16045413.264 9   -309061.972 9
 89 11 12 11 18 59.0800000  0  3G 6G11G 9
  20688203.629    20688202.889    -6419059.994 9  -6219242.247 9
  21352756.790    21352758.731   -14063550.051 9 -12302365.089 9
  22526746.548    22526746.726   -16129143.627 9   -374306.396 8
 89 11 12 11 19 29.0800000  0  3G 6G11G 9
  20682917.925    20682917.722    -6446833.428 8  -6240883.872 8
  21340385.544    21340387.214   -14128562.478 8 -12353024.109 9
  22510832.177    22510832.640   -16212771.414 9   -439470.884 8
 89 11 12 11 19 59.0800000  0  3G 6G11G 9
  20677696.112    20677696.802    -6474271.899 9  -6262264.503 8
  21328107.483    21328109.138   -14193084.233 9 -12403300.790 9
  22494938.510    22494939.236   -16296294.052 9   -504553.440 9
 89 11 12 11 20 29.0800000  0  3G 6G11G 9
  20672539.178    20672539.935    -6501372.713 9  -6283382.005 8
  21315923.146    21315924.915   -14257112.747 9 -12453193.121 8
  22479065.294    22479065.305   -16379708.616 9   -569551.785 9
 89 11 12 11 20 59.0800000  0  3G 6G11G 9
  20667446.924    20667446.252    -6528135.481 9  -6304236.131 8
  21303833.194    21303834.880   -14320648.352 9 -12502701.370 9
  22463211.646    22463212.822   -16463015.214 9   -634465.998 8
 89 11 12 11 21 29.0800000  0  3G 6G11G 9
  20662419.166    20662419.155    -6554557.928 9  -6324825.034 8
  21291837.825    21291838.951   -14383689.072 9 -12551823.989 9
  22447380.385    22447381.508   -16546211.334 9   -699294.120 8
 89 11 12 11 21 59.0800000  0  3G 6G11G 9
  20657456.299    20657456.035    -6580636.448 9  -6345145.968 8
  21279935.093    21279937.308   -14446231.773 9 -12600558.560 9
  22431570.046    22431570.329   -16629293.595 9   -764033.521 8
 89 11 12 11 22 29.0800000  0  4G13G 6G11G 9
                  24554180.753   -28744787.627 9
  20652559.321    20652559.940    -6606369.262 9  -6365197.507 9
  21268128.308    21268130.137   -14508275.110 8 -12648903.998 9
  22415783.535    22415782.858   -16712260.173 9   -828682.780 9
 89 11 12 11 22 59.0800000  0  4G13G 6G11G 9
  24531704.734    24531706.754   -28863101.310 8  36554404.276 7
  20647728.627    20647728.881    -6631755.585 9  -6384979.062 8
  21256417.094    21256418.658   -14569818.824 9 -12696860.122 9
  22400017.539    22400018.021   -16795110.243 9   -893241.251 9
 89 11 12 11 23 29.0800000  0  4G13G 6G11G 9
  24509211.085    24509213.404   -28981302.759 9  36462299.227 8
  20642964.200    20642963.763    -6656792.881 9  -6404488.646 8
  21244801.390    21244802.421   -14630860.946 9 -12744425.396 8
  22384274.335    22384274.759   -16877841.466 9   -957707.130 9
 89 11 12 11 23 59.0800000  0  4G13G 6G11G 9
  24486738.508    24486741.739   -29099389.555 7  36370283.561 7
  20638266.400    20638266.473    -6681479.150 9  -6423724.711 9
  21233280.884    21233282.602   -14691399.982 9 -12791598.659 9
  22368554.098    22368554.452   -16960451.670 9  -1022078.689 9
 89 11 12 11 24 29.0800000  0  4G13G 6G11G 9
  24464290.498    24464293.433   -29217359.175 6  36278359.252 7
  20633635.761    20633635.275    -6705812.357 9  -6442685.650 8
  21221855.804    21221858.742   -14751434.466 9 -12838378.767 8
  22352856.042    22352856.667   -17042938.957 9  -1086354.483 9
 89 11 12 11 24 59.0800000  0  4G13G 6G11G 9
  24441865.865    24441866.386   -29335209.111 6  36186528.222 8
  20629073.176    20629072.892    -6729790.569 9  -6461369.968 8
  21210529.441    21210530.263   -14810963.269 9 -12884764.826 8
  22337183.068    22337183.435   -17125301.058 9  -1150532.732 9
 89 11 12 11 25 29.0800000  0  4G13G 6G11G 9
  24419462.357    24419463.815   -29452936.720 7  36094792.481 9
  20624578.232    20624578.038    -6753411.655 9  -6479776.011 8
  21199298.311    21199300.129   -14869984.547 9 -12930755.408 8
  22321533.963    22321534.961   -17207536.396 9  -1214612.198 8
 89 11 12 11 25 59.0800000  0  4G13G 6G11G 9
  24397082.019    24397085.468   -29570539.267 8  36003154.140 9
  20620151.206    20620152.510    -6776673.587 9  -6497902.180 8
  21188162.432    21188164.947   -14928496.665 9 -12976349.249 9
  22305910.628    22305909.865   -17289642.405 9  -1278590.884 8
 89 11 12 11 26 29.0800000  0  4G13G 6G11G 9
  24374729.431    24374730.417   -29688014.121 9  35911615.326 8
                  20615793.662                    -6515736.602 6
  21177125.844    21177127.694   -14986498.391 9 -13021545.372 9
                  22290312.509   -17371626.543 1
 89 11 12 11 26 59.0800000  0  4G13G 6G11G 9
  24352397.530    24352400.764   -29805358.501 9  35820178.159 9
  20611504.994    20611504.925    -6877721.173 9  -6533292.087 9
  21166186.210    21166187.231   -15043988.518 6 -13066342.852 6
  22274737.902    22274736.941   -17453467.723 9  -1310087.152 9
 89 11 12 11 27 29.0800000  0  4G13G 6G11G 9
  24330094.368    24330095.321   -29922571.348 9  35728843.493 9
  20607285.713    20607286.271    -6899894.599 9  -6550570.081 9
  21155343.021    21155345.468   -15100967.160 9 -13110741.792 9
  22259188.605    22259190.234   -17535174.556 9  -1373754.795 8
 89 11 12 11 27 59.0800000  0  4G13G 6G11G 9
  24307815.181    24307817.295   -30039648.964 9  35637614.210 9
  20603136.170    20603136.805    -6921701.426 9  -6567562.406 9
  21144598.002    21144599.733   -15157432.147 9 -13154740.452 9
  22243666.390    22243667.506   -17616744.564 9  -1437315.820 8
 89 11 12 11 28 29.0800000  0  4G13G 6G11G 9
  24285561.767    24285563.582   -30156587.795 9  35546493.056 8
  20599057.514    20599056.257    -6943138.326 8  -6584266.484 9
  21133951.430    21133952.474   -15213380.650 9 -13198336.674 8
  22228171.095    22228171.798   -17698174.102 9  -1500767.397 9
 89 11 12 11 28 59.0800000  0  4G13G 6G11G 9
  24263336.157    24263337.883   -30273385.355 9  35455481.974 7
  20595047.863    20595047.561    -6964203.349 9  -6600680.800 8
  21123403.158    21123405.160   -15268811.481 9 -13241529.513 9
  22212702.929    22212702.985   -17779461.130 9  -1564107.936 9
 89 11 12 11 29 29.0800000  0  4G13G 6G11G 9
  24241137.255    24241137.931   -30390040.336 9  35364581.993 8
  20591110.241    20591110.316    -6984896.303 9  -6616805.185 8
  21112953.971    21112954.567   -15323725.313 9 -13284319.497 8
  22197261.298    22197261.908   -17860605.293 9  -1627337.137 8
 89 11 12 11 29 59.0800000  0  4G13G 6G11G 9
  24218967.533    24218969.003   -30506549.570 9  35273795.567 7
  20587244.269    20587244.572    -7005214.394 9  -6632637.467 9
  21102602.521    21102603.939   -15378119.904 9 -13326704.873 9
  22181848.543    22181848.727   -17941603.594 9  -1690452.676 8
 89 11 12 11 30 29.0800000  0  4G13G 6G11G 9
  24196823.286    24196824.964   -30622909.624 9  35183125.411 8
  20583449.064    20583450.056    -7025154.422 9  -6648175.157 8
  21092350.415    21092351.871   -15431992.839 9 -13368683.769 9
  22166462.815    22166463.630   -18022452.777 9  -1753452.034 8
 89 11 12 11 30 59.0800000  0  4G13G 6G11G 9
  24174709.844    24174710.843   -30739118.324 9  35092573.193 8
  20579727.878    20579726.516    -7044715.412 9  -6663417.475 9
  21082197.959    21082199.461   -15485344.330 9 -13410256.356 9
  22151107.546    22151106.488   -18103151.667 9  -1816334.278 9
 89 11 12 11 31 29.0800000  0  4G13G 6G11G 9
  24152625.285    24152626.613   -30855173.632 9  35002140.473 7
  20576077.543    20576076.812    -7063896.101 9  -6678363.480 8
  21072145.309    21072146.360   -15538173.574 9 -13451421.980 9
  22135778.965    22135779.311   -18183698.597 9  -1879098.104 8
 89 11 12 11 31 59.0800000  0  4G13G 6G11G 9
  24130570.050    24130573.213   -30971071.938 8  34911830.109 8
  20572500.352    20572500.864    -7082693.163 9  -6693010.551 8
  21062192.290    21062192.686   -15590478.158 9 -13492178.784 8
  22120480.863    22120481.209   -18264090.182 9  -1941740.888 9
 89 11 12 11 32 29.0800000  0  4G13G 6G11G 9
  24108545.904    24108546.689   -31086811.774 9  34821643.239 7
  20568996.551    20568997.259    -7101105.712 8  -6707357.984 8
  21052338.681    21052340.132   -15642257.782 9 -13532526.526 8
  22105212.083    22105212.782   -18344325.255 9  -2004261.707 9
 89 11 12 11 32 59.0800000  0  4G13G 6G11G 9
  24086551.858    24086554.650   -31202391.810 9  34731580.883 8
  20565565.842    20565565.319    -7119133.044 9  -6721405.259 8
  21042585.088    21042586.320   -15693512.791 9 -13572465.482 8
  22089974.564    22089974.609   -18424402.642 9  -2066659.659 8
 89 11 12 11 33 29.0800000  0  4G13G 6G11G 9
  24064589.086    24064590.470   -31317807.355 8  34641646.718 8
  20562209.205    20562209.824    -7136770.969 9  -6735149.089 9
  21032931.741    21032933.960   -15744239.701 9 -13611992.928 8
  22074766.884    22074768.028   -18504318.091 9  -2128931.417 9
 89 11 12 11 33 59.0800000  0  4G13G 6G11G 9
  24042657.457    24042658.636   -31433056.372 9  34551842.297 8
  20558927.371    20558927.724    -7154018.423 9  -6748588.655 9
  21023379.303    21023381.336   -15794438.424 9 -13651108.793 9
  22059589.994    22059591.781   -18584070.267 9  -2191075.965 9
 89 11 12 11 34 29.0800000  0  4G13G 6G11G 9
  24020758.440    24020760.123   -31548135.824 8  34462170.006 8
  20555720.060    20555720.615    -7170873.055 9  -6761722.145 9
  21013928.750    21013928.321   -15844107.482 9 -13689811.942 9
  22044445.632    22044446.361   -18663656.438 9  -2253091.147 9
 89 11 12 11 34 59.0800000  0  4G13G 6G11G 9
  23998892.341    23998894.937   -31663043.396 9  34372631.661 8
  20552587.463    20552588.361    -7187333.250 9  -6774548.260 9
  21004577.804    21004577.667   -15893246.142 9 -13728101.798 9
  22029332.988    22029334.079   -18743074.906 9  -2314975.652 9
 89 11 12 11 35 29.0800000  0  4G13G 6G11G 9
  23977059.279    23977060.340   -31777777.571 8  34283228.430 8
  20549530.835    20549531.143    -7203397.997 9  -6787066.251 9
  20995328.010    20995328.330   -15941854.423 9 -13765978.361 9
  22014252.372    22014252.587   -18822324.088 9  -2376728.254 9
 89 11 12 11 35 59.0800000  0  4G13G 6G11G 9
  23955260.615    23955261.439   -31892334.558 9  34193963.260 9
  20546549.616    20546549.221    -7219064.011 9  -6799273.534 9
  20986179.295    20986180.245   -15989930.089 9 -13803439.902 8
  21999205.024    21999204.898   -18901400.499 9  -2438346.227 9
 89 11 12 11 36 29.0800000  0  4G13G 6G11G 9
  23933495.331    23933496.761   -32006712.097 9  34104837.925 8
  20543644.327    20543645.211    -7234329.957 9  -6811169.080 9
  20977131.996    20977133.738   -16037472.542 9 -13840485.959 9
  21984190.175    21984190.232   -18980302.274 9  -2499828.114 9
 89 11 12 11 36 59.0800000  0  4G13G 6G11G 9
  23911762.927    23911765.861   -32120908.678 9  34015853.570 7
  20540815.945    20540816.540    -7249194.838 9  -6822752.115 8
  20968185.908    20968187.785   -16084481.641 9 -13877116.412 8
  21969208.905    21969209.823   -19059027.958 9  -2561172.779 9
 89 11 12 11 37 29.0800000  0  4G13G 6G11G 9
  23890068.318    23890070.334   -32234920.341 9  33927013.326 8
  20538063.777    20538064.035    -7263655.692 8  -6834020.319 8
  20959342.563    20959344.448   -16130955.736 9 -13913329.983 8
  21954261.811    21954262.811   -19137574.263 9  -2622377.676 9
 89 11 12 11 37 59.0800000  0  4G13G 6G11G 9
  23868408.345    23868409.688   -32348744.805 9  33838318.940 8
  20535389.106    20535390.534    -7277710.390 9  -6844972.027 9
  20950600.773    20950602.324   -16176893.779 9 -13949125.851 8
  21939350.471    21939350.572   -19215938.791 9  -2683440.929 8
 89 11 12 11 38 29.0800000  0  4G13G 6G11G 9
  23846784.774    23846786.173   -32462379.275 9  33749772.608 9
  20532792.513    20532793.002    -7291357.327 9  -6855606.009 9
  20941960.607    20941962.865   -16222294.937 9 -13984503.353 8
  21924471.758    21924472.901   -19294119.395 9  -2744360.879 9
 89 11 12 11 38 59.0800000  0  4G13G 6G11G 9
  23825196.641    23825198.544   -32575821.860 9  33661375.778 9
  20530273.398    20530273.891    -7304594.473 9  -6865920.665 8
  20933424.093    20933425.562   -16267158.335 9 -14019461.835 8
  21909630.418    21909631.577   -19372113.600 9  -2805135.565 9
 89 11 12 11 39 29.0800000  0  4G13G 6G11G 9
  23803646.107    23803647.695   -32689070.172 9  33573130.357 8
  20527832.315    20527832.072    -7317420.726 9  -6875915.151 8
  20924989.369    20924990.342   -16311483.380 9 -14054000.815 9
  21894824.409    21894823.939   -19449919.805 9  -2865763.754 8
 89 11 12 11 39 59.0800000  0  4G13G 6G11G 9
  23782132.956    23782135.096   -32802121.621 8  33485038.331 8
  20525470.331    20525470.603    -7329833.777 9  -6885587.659 9
  20916656.121    20916658.569   -16355269.237 9 -14088119.654 8
  21880055.402    21880055.048   -19527535.334 9  -2926243.381 9
 89 11 12 11 40 29.0800000  0  4G13G 6G11G 9
  23760657.539    23760659.628   -32914973.718 9  33397101.648 8
  20523187.458    20523187.822    -7341832.231 8  -6894937.109 9
  20908427.368    20908429.057   -16398515.592 9 -14121818.099 9
  21865321.259    21865321.758   -19604958.233 9  -2986572.906 8
 89 11 12 11 40 59.0800000  0  4G13G 6G11G 9
  23739221.179    23739222.958   -33027623.302 8  33309322.751 9
  20520983.419    20520984.085    -7353413.613 9  -6903961.560 9
  20900300.264    20900302.697   -16441221.182 9 -14155095.167 8
  21850625.871    21850625.988   -19682185.344 9  -3046749.870 9
 89 11 12 11 41 29.0800000  0  4G13G 6G11G 9
  23717823.528    23717825.540   -33140067.912 8  33221703.594 9
  20518859.193    20518860.698    -7364576.167 9  -6912659.655 9
  20892277.245    20892278.657   -16483385.068 9 -14187950.126 9
  21835967.579    21835968.650   -19759214.496 9  -3106772.561 9
 89 11 12 11 41 59.0800000  0  4G13G 6G11G 9
  23696465.643    23696468.094   -33252305.232 7  33134245.975 8
  20516815.318    20516816.074    -7375318.242 9  -6921030.108 9
  20884356.664    20884358.674   -16525007.097 9 -14220382.871 8
  21821347.915    21821348.059   -19836043.454 9  -3166639.267 9
 89 11 12 11 42 29.0800000  0  4G13G 6G11G 9
  23675147.305    23675149.323   -33364333.463 7  33046951.267 7
  20514851.871    20514851.621    -7385638.379 9  -6929071.779 9
  20876539.741    20876541.917   -16566086.628 9 -14252392.878 8
  21806766.562    21806766.189   -19912670.226 9  -3226348.428 8
 89 11 12 11 42 59.0800000  0  4G13G 6G11G 9
  23653871.199    23653871.566   -33476149.615 7  32959821.819 7
  20512967.865    20512968.353    -7395534.417 9  -6936782.973 9
  20868826.219    20868827.850   -16606622.719 9 -14283979.435 8
  21792223.226    21792223.958   -19989092.242 9  -3285898.045 9
 89 11 12 11 43 29.0800000  0  4G13G 6G11G 9
  23632632.705    23632634.550   -33587750.520 8  32872860.082 9
  20511166.645    20511166.522    -7405004.055 8  -6944161.908 9
  20861214.426    20861216.802   -16646614.235 9 -14315141.641 8
  21777720.758    21777721.559   -20065306.196 9  -3345285.536 8
 89 11 12 11 43 59.0800000  0  4G13G 6G11G 9
  23611437.684    23611440.074   -33699134.804 9  32786067.128 8
  20509444.980    20509445.761    -7414047.126 9  -6951208.469 9
  20853709.514    20853710.525   -16686062.285 9 -14345880.361 9
  21763256.871    21763258.001   -20141311.688 9  -3404510.565 9
 89 11 12 11 44 29.0800000  0  4G13G 6G11G 9
  23590283.839    23590285.339   -33810299.487 9  32699445.281 8
  20507806.028    20507807.369    -7422660.673 9  -6957920.324 9
  20846305.028    20846307.733   -16724964.903 9 -14376194.078 9
  21748834.703    21748833.992   -20217104.851 9  -3463570.171 8
 89 11 12 11 44 59.0800000  0  4G13G 6G11G 9
  23569171.647    23569173.002   -33921242.481 9  32612996.186 9
  20506249.410    20506249.848    -7430843.258 8  -6964296.358 8
  20839006.354    20839008.100   -16763321.985 9 -14406082.701 8
  21734451.931    21734452.593   -20292683.819 9  -3522462.861 9
 89 11 12 11 45 29.0800000  0  4G13G 6G11G 9
  23548103.234    23548104.797   -34031960.725 9  32526722.236 9
  20504774.080    20504775.388    -7438592.999 8  -6970335.120 8
  20831810.978    20831812.963   -16801132.514 9 -14435545.431 9
  21720110.627    21720111.056   -20368045.903 9  -3581186.548 8
 89 11 12 11 45 59.0800000  0  4G13G 6G11G 9
  23527077.278    23527078.037   -34142451.470 9  32440625.543 9
  20503381.775    20503382.850    -7445907.550 8  -6976034.783 8
  20824720.698    20824721.882   -16838395.816 9 -14464581.754 8
  21705811.434    21705812.449   -20443187.978 9  -3639738.816 9
 89 11 12 11 46 29.0800000  0  4G13G 6G11G 9
  23506095.264    23506097.061   -34252712.147 9  32354708.140 8
  20502073.538    20502074.445    -7452785.578 9  -6981394.278 9
  20817733.579    20817735.000   -16875111.732 9 -14493191.540 9
  21691555.657    21691555.969   -20518108.205 9  -3698118.193 9
 89 11 12 11 46 59.0800000  0  4G13G 6G11G 9
  23485157.421    23485158.552   -34362741.821 9  32268970.746 9
  20500848.562    20500848.359    -7459225.984 9  -6986412.763 9
  20810850.720    20810852.681   -16911280.331 9 -14521374.860 9
  21677341.064    21677341.562   -20592804.660 9  -3756323.217 8
 89 11 12 11 47 29.0800000  0  4G13G 6G11G 9
  23464263.752    23464265.418   -34472537.753 9  32183415.494 9
  20499705.947    20499707.040    -7465227.632 9  -6991089.378 9
  20804072.753    20804074.638   -16946901.769 9 -14549131.805 9
  21663169.809    21663169.020   -20667275.229 9  -3814352.223 9
 89 11 12 11 47 59.0800000  0  4G13G 6G11G 9
  23443415.695    23443416.929   -34582096.732 9  32098044.848 8
  20498648.051    20498649.160    -7470787.971 9  -6995422.115 8
  20797398.355    20797400.250   -16981974.812 8 -14576461.436 9
  21649041.811    21649042.612   -20741517.024 9  -3872202.964 9
 89 11 12 11 48 29.0800000  0  4G13G 6G11G 9
  23422612.729    23422614.524   -34691415.593 9  32012861.330 8
  20497674.636    20497675.442    -7475904.396 9  -6999408.945 8
  20790828.630    20790831.398   -17016498.084 9 -14603362.671 8
  21634958.916    21634958.756   -20815526.507 8  -3929872.669 9
 89 11 12 11 48 59.0800000  0  4G13G 6G11G 9
  23401856.085    23401857.492   -34800492.649 9  31927866.224 9
  20496786.311    20496786.364    -7480576.321 9  -7003049.414 8
  20784363.400    20784366.362   -17050472.275 9 -14629836.059 9
  21620919.994    21620919.782   -20889302.152 9  -3987360.186 9
 89 11 12 11 49 29.0800000  0  4G13G 6G11G 9
  23381144.560    23381146.821   -34909326.344 9  31843060.747 8
  20495981.515    20495982.240    -7484802.645 9  -7006342.657 8
  20778002.598    20778004.450   -17083897.772 9 -14655881.889 9
  21606924.975    21606925.559   -20962842.104 9  -4044664.040 8
 89 11 12 11 49 59.0800000  0  4G13G 6G11G 9
  23360481.784    23360483.583   -35017913.185 9  31758447.648 8
  20495262.208    20495261.565    -7488580.284 9  -7009286.267 8
  20771746.234    20771748.929   -17116772.630 9 -14681498.648 9
  21592977.358    21592977.276   -21036142.594 9  -4101781.291 8
 89 11 12 11 50 29.0800000  0  4G13G 6G11G 9
  23339866.607    23339867.794   -35126250.976 8  31674028.584 8
  20494628.597    20494629.356    -7491907.919 9  -7011879.236 9
  20765595.830    20765597.933   -17149096.843 9 -14706686.331 8
  21579073.844    21579074.289   -21109201.398 8  -4158710.209 9
 89 11 12 11 50 59.0800000  0  4G13G 6G11G 9
  23319297.642    23319299.150   -35234337.757 8  31589805.138 8
  20494081.396    20494081.456    -7494784.687 9  -7014120.868 9
  20759549.955    20759550.938   -17180870.973 8 -14731445.372 9
  21565218.009    21565218.578   -21182016.547 9  -4215449.292 9
 89 11 12 11 51 29.0800000  0  4G13G 6G11G 9
  23298777.408    23298779.805   -35342170.951 7  31505779.323 9
  20493619.628    20493621.157    -7497208.660 9  -7016009.696 9
  20753607.755    20753610.372   -17212094.306 9 -14755775.220 8
  21551408.234    21551409.319   -21254585.272 9  -4271996.340 8
 89 11 12 11 51 59.0800000  0  4G13G 6G11G 9
  23278305.740    23278309.103   -35449747.716 8  31421953.281 8
  20493245.531    20493245.293    -7499178.175 9  -7017544.379 8
  20747770.258    20747773.540   -17242766.562 9 -14779675.670 8
  21537647.082    21537647.197   -21326905.064 9  -4328349.415 9
 89 11 12 11 52 29.0800000  0  4G13G 6G11G 9
  23257884.929    23257885.720   -35557066.432 9  31338328.317 7
  20492957.812    20492958.176    -7500692.020 9  -7018724.011 8
  20742038.990    20742041.003   -17272888.158 9 -14803147.022 9
  21523931.832    21523933.206   -21398973.883 9  -4384506.924 9
 89 11 12 11 52 59.0800000  0  4G13G 6G11G 9
  23237512.331    23237513.220   -35664123.663 9  31254907.111 9
  20492756.605    20492758.499    -7501747.211 9  -7019546.230 8
  20736412.167    20736414.677   -17302457.153 9 -14826187.796 8
  21510265.520    21510266.351   -21470787.821 9  -4440465.835 9
 89 11 12 11 53 29.0800000  0  4G13G 6G11G 9
  23217190.212    23217191.719   -35770917.508 9  31171691.117 8
  20492643.206    20492642.307    -7502343.225 9  -7020010.658 8
  20730890.704    20730892.580   -17331474.798 9 -14848798.926 8
  21496649.307    21496650.178   -21542345.266 9  -4496224.873 9
 89 11 12 11 53 59.0800000  0  4G13G 6G11G 9
  23196918.255    23196919.895   -35877446.902 9  31088681.188 9
  20492616.690    20492617.289    -7502479.751 9  -7020117.054 9
  20725473.616    20725474.283   -17359941.999 9 -14870981.146 8
  21483080.873    21483082.432   -21613645.026 9  -4551783.122 8
 89 11 12 11 54 29.0800000  0  4G13G 6G11G 9
  23176697.627    23176699.236   -35983708.428 9  31005880.000 9
  20492678.371    20492679.035    -7502154.068 9  -7019863.280 9
  20720160.894    20720162.967   -17387857.748 8 -14892733.670 8
  21469563.376    21469563.019   -21684683.296 9  -4607137.612 9
 89 11 12 11 54 59.0800000  0  4G13G 6G11G 9
  23156527.746    23156529.408   -36089700.213 9  30923289.000 8
  20492829.505    20492830.453    -7501365.000 8  -7019248.419 7
  20714954.667    20714955.245   -17415222.126 9 -14914056.544 8
  21456095.751    21456095.344   -21755457.840 9  -4662286.597 9
 89 11 12 11 55 29.0800000  0  4G13G 6G11G 9
  23136410.553    23136411.313   -36195419.021 9  30840910.710 8
  20493068.950    20493068.249    -7500110.137 8  -7018270.614 9
  20709851.408    20709853.579   -17442034.290 9 -14934949.130 9
  21442677.945    21442677.985   -21825965.182 9  -4717227.370 8
 89 11 12 11 55 59.0800000  0  4G13G 6G11G 9
  23116345.501    23116346.703   -36300862.237 9  30758747.148 8
  20493395.241    20493396.352    -7498387.858 8  -7016928.579 8
  20704854.636    20704856.419   -17468293.922 9 -14955411.168 8
  21429312.429    21429313.545   -21896202.835 9  -4771957.999 9
 89 11 12 11 56 29.0800000  0  4G13G 6G11G 9
  23096332.630    23096334.370   -36406029.070 9  30676798.970 8
  20493812.597    20493813.252    -7496198.154 8  -7015222.317 8
  20699962.596    20699963.479   -17494002.544 9 -14975443.844 8
  21415997.293    21415998.268   -21966169.455 9  -4826477.438 8
 89 11 12 11 56 59.0800000  0  4G13G 6G11G 9
  23076371.961    23076374.200   -36510917.395 8  30595067.813 9
  20494319.330    20494318.738    -7493539.723 9  -7013150.822 9
  20695176.193    20695176.798   -17519159.953 9 -14995047.010 8
  21402736.190    21402736.505   -22035862.923 9  -4880784.021 9
 89 11 12 11 57 29.0800000  0  4G13G 6G11G 9
  23056466.810    23056469.467   -36615522.831 8  30513557.107 8
  20494914.511    20494914.662    -7490408.897 9  -7010711.214 9
  20690493.261    20690494.116   -17543764.436 9 -15014219.324 8
  21389526.386    21389527.198   -22105278.226 9  -4934873.850 8
 89 11 12 11 57 59.0800000  0  4G13G 6G11G 9
  23036616.042    23036616.805   -36719844.575 8  30432267.465 8
  20495599.610    20495601.218    -7486805.507 9  -7007903.388 9
  20685916.258    20685917.580   -17567817.399 9 -15032961.879 8
  21376370.210    21376370.667   -22174414.183 9  -4988746.021 8
 89 11 12 11 58 29.0800000  0  4G13G 6G11G 9
  23016818.149    23016819.474   -36823880.223 9  30351200.742 9
  20496375.587    20496376.975    -7482728.934 8  -7004726.843 8
  20681443.693    20681444.490   -17591319.435 9 -15051275.145 7
  21363267.237    21363268.795   -22243268.995 8  -5042399.118 8
 89 11 12 11 58 59.0800000  0  4G13G 6G11G 9
  22997075.940    22997076.807   -36927626.918 8  30270359.187 9
  20497243.204    20497242.417    -7478176.569 9  -7001179.538 9
  20677076.681    20677077.487   -17614269.457 9 -15069158.259 7
  21350219.547    21350219.331   -22311839.048 9  -5095830.316 9
 89 11 12 11 59 29.0800000  0  4G13G 6G11G 9
  22977388.899    22977390.270   -37031082.560 8  30189744.413 9
  20498198.920    20498199.691    -7473147.216 9  -6997260.568 8
  20672814.681    20672815.315   -17636667.769 9 -15086611.492 8
  21337225.763    21337226.865   -22380121.645 9  -5149037.535 8
 89 11 12 11 59 59.0800000  0  4G13G 6G11G 9
  22957757.517    22957759.301   -37134244.786 9  30109358.284 9
  20499248.164    20499248.456    -7467639.488 9  -6992968.835 9
  20668656.498    20668658.305   -17658514.684 8 -15103635.040 8
  21324287.990    21324287.116   -22448114.307 9  -5202018.800 9
 89 11 12 12  0 29.0800000  0  4G13G 6G11G 9
  22938182.700    22938183.628   -37237111.932 9  30029202.067 9
  20500387.152    20500387.066    -7461652.540 8  -6988303.684 8
  20664604.779    20664605.705   -17679810.768 9 -15120229.374 8
  21311403.332    21311405.008   -22515814.991 9  -5254772.570 9
 89 11 12 12  0 59.0800000  0  4G13G 6G11G 9
  22918663.662    22918666.213   -37339682.578 9  29949276.867 9
  20501617.191    20501618.206    -7455185.496 9  -6983264.437 9
  20660656.383    20660657.590   -17700556.695 9 -15136395.035 8
  21298576.940    21298577.156   -22583221.662 9  -5307297.246 8
 89 11 12 12  1 29.0800000  0  4G13G 6G11G 9
  22899202.378    22899203.958   -37441953.171 9  29869585.496 8
  20502939.564    20502940.287    -7448235.715 9  -6977849.035 9
  20656813.566    20656814.935   -17720751.373 8 -15152131.126 9
  21285806.490    21285806.859   -22650330.352 9  -5359589.725 9
 89 11 12 12  1 59.0800000  0  4G13G 6G11G 9
  22879799.396    22879799.937   -37543920.909 9  29790130.108 9
  20504354.525    20504355.134    -7440801.754 9  -6972056.347 9
  20653075.287    20653076.782   -17740394.643 9 -15167437.565 7
  21273093.856    21273093.655   -22717138.422 9  -5411647.948 9
 89 11 12 12  2 29.0800000  0  4G13G 6G11G 9
  22860452.967    22860453.529   -37645584.750 9  29710911.536 8
  20505860.721    20505861.646    -7432883.412 9  -6965886.198 9
  20649442.526    20649442.364   -17759488.170 9 -15182315.630 8
  21260437.687    21260438.515   -22783644.008 8  -5463470.466 9
 89 11 12 12  2 59.0800000  0  4G13G 6G11G 9
  22841165.371    22841166.386   -37746942.767 9  29631931.264 8
  20507459.870    20507460.972    -7424479.572 9  -6959337.758 8
  20645913.260    20645914.682   -17778032.499 9 -15196765.752 9
  21247839.672    21247840.125   -22849845.043 9  -5515055.681 8
 89 11 12 12  3 29.0800000  0  4G13G 6G11G 9
  22821935.705    22821937.297   -37847992.396 9  29553191.288 9
  20509153.066    20509153.209    -7415588.356 9  -6952409.542 8
  20642489.297    20642490.333   -17796027.486 9 -15210787.801 8
  21235301.527    21235300.871   -22915738.231 9  -5566401.007 9
 89 11 12 12  3 59.0800000  0  4G13G 6G11G 9
  22802764.857    22802767.383   -37948731.189 9  29474693.522 8
  20510936.718    20510936.558    -7406208.366 9  -6945100.461 8
  20639169.641    20639169.800   -17813472.919 9 -15224381.625 7
  21222820.890    21222821.702   -22981320.895 9  -5617504.369 9
 89 11 12 12  4 29.0800000  0  4G13G 6G11G 9
  22783655.378    22783656.603   -38049156.551 9  29396440.021 8
  20512815.156    20512815.617    -7396338.311 9  -6937409.526 9
  20635954.702    20635954.688   -17830369.205 8 -15237547.566 9
  21210400.131    21210400.894   -23046590.073 9  -5668363.463 9
 89 11 12 12  4 59.0800000  0  4G13G 6G11G 9
  22764604.679    22764606.625   -38149267.323 9  29318431.636 8
  20514787.517    20514787.944    -7385977.412 9  -6929336.093 9
  20632843.188    20632843.966   -17846717.438 8 -15250286.441 8
  21198039.878    21198041.010   -23111543.929 8  -5718976.839 8
 89 11 12 12  5 29.0800000  0  4G13G 6G11G 9
  22745614.721    22745616.736   -38249061.019 9  29240670.322 9
  20516852.565    20516852.628    -7375124.589 8  -6920879.365 9
  20629835.577    20629837.406   -17862518.223 8 -15262598.732 7
  21185739.753    21185740.482   -23176179.605 9  -5769342.299 9
 89 11 12 12  5 59.0800000  0  4G13G 6G11G 9
  22726686.076    22726687.307   -38348535.911 9  29163157.433 8
  20519011.302    20519012.187    -7363778.368 9  -6912038.148 9
  20626933.785    20626935.741   -17877771.367 9 -15274484.284 8
  21173501.884    21173502.544   -23240494.503 9  -5819457.792 9
 89 11 12 12  6 29.0800000  0  4G13G 6G11G 9
  22707816.935    22707818.049   -38447689.290 8  29085895.065 9
  20521265.200    20521265.306    -7351937.428 8  -6902811.455 8
  20624134.984    20624135.290   -17892476.698 8 -15285942.981 8
  21161325.005    21161325.333   -23304485.755 9  -5869321.091 8
 89 11 12 12  6 59.0800000  0  4G13G 6G11G 9
  22689010.624    22689011.961   -38546518.513 9  29008885.288 9
  20523612.462    20523613.443    -7339600.364 8  -6893198.160 9
  20621440.651    20621442.827   -17906635.088 9 -15296975.474 8
  21149210.037    21149210.339   -23368150.333 9  -5918929.850 8
 89 11 12 12  7 29.0800000  0  4G13G 6G11G 9
  22670265.783    22670267.410   -38645022.024 9  28932129.322 9
  20526054.394    20526055.661    -7326766.619 9  -6883197.844 9
  20618850.570    20618851.748   -17920247.369 9 -15307582.444 8
  21137156.931    21137157.131   -23431486.418 9  -5968282.634 9
 89 11 12 12  7 59.0800000  0  4G13G 6G11G 9
  22651583.800    22651585.386   -38743198.606 9  28855628.093 8
  20528590.969    20528591.764    -7313435.504 8  -6872809.974 9
  20616363.323    20616366.205   -17933314.457 9 -15317764.568 8
  21125168.402    21125168.516   -23494491.656 8  -6017377.626 8
 89 11 12 12  8 29.0800000  0  4G13G 6G11G 9
  22632964.589    22632965.902   -38841045.583 9  28779383.688 8
  20531223.843    20531223.676    -7299605.655 9  -6862033.475 8
  20613981.459    20613982.801   -17945836.919 9 -15327522.331 8
  21113241.257    21113241.829   -23557163.270 9  -6066212.634 8
 89 11 12 12  8 59.0800000  0  4G13G 6G11G 9
  22614408.740    22614409.664   -38938559.105 9  28703399.126 9
  20533950.223    20533951.248    -7285273.990 9  -6850865.958 9
  20611702.469    20611703.528   -17957813.406 9 -15336854.642 8
  21101379.879    21101380.820   -23619496.511 9  -6114783.990 8
 89 11 12 12  9 29.0800000  0  4G13G 6G11G 9
  22595915.336    22595916.092   -39035738.801 9  28627674.691 9
  20536773.663    20536773.501    -7270440.975 9  -6839307.771 9
  20609526.234    20609528.752   -17969245.511 8 -15345762.775 8
  21089583.147    21089583.233   -23681490.314 9  -6163090.842 9
 89 11 12 12  9 59.0800000  0  4G13G 6G11G 9
  22577487.417    22577487.402   -39132583.115 9  28552211.606 9
  20539691.264    20539691.624    -7255106.156 9  -6827358.572 8
  20607454.177    20607455.934   -17980134.580 9 -15354247.753 7
  21077851.538    21077851.666   -23743143.013 9  -6211131.900 8
 89 11 12 12 10 29.0800000  0  4G13G 6G11G 9
  22559122.033    22559122.937   -39229089.347 9  28477011.948 8
  20542704.530    20542705.398    -7239268.364 9  -6815017.438 8
  20605485.372    20605486.942   -17990481.473 9 -15362310.250 8
  21066185.166    21066184.891   -23804451.387 9  -6258904.647 9
 89 11 12 12 10 59.0800000  0  4G13G 6G11G 9
  22540822.065    22540823.647   -39325255.866 9  28402076.994 8
  20545814.140    20545814.692    -7222926.522 9  -6802283.537 9
  20603619.684    20603620.852   -18000286.738 9 -15369950.718 8
  21054583.254    21054584.316   -23865412.803 9  -6306407.035 8
 89 11 12 12 11 29.0800000  0  4G13G 6G11G 9
  22522586.604    22522588.491   -39421080.569 9  28327408.408 9
  20549020.811    20549020.265    -7206079.248 9  -6789155.788 9
  20601856.987    20601858.314   -18009550.590 8 -15377169.292 8
  21043048.870    21043049.960   -23926024.395 9  -6353636.848 9
 89 11 12 12 11 59.0800000  0  4G13G 6G11G 9
  22504417.176    22504419.819   -39516561.194 9  28253007.914 8
  20552322.845    20552323.300    -7188725.797 8  -6775633.627 9
  20600197.072    20600198.374   -18018273.600 9 -15383966.430 8
  21031582.686    21031582.398   -23986283.446 8  -6400591.943 9
 89 11 12 12 12 29.0800000  0  4G13G 6G11G 9
  22486314.000    22486315.176   -39611695.153 9  28178877.567 9
  20555721.089    20555722.002    -7170864.697 9  -6761715.900 8
  20598640.251    20598641.306   -18026456.100 9 -15390342.386 8
  21020183.249    21020184.293   -24046187.241 9  -6447270.222 9
 89 11 12 12 12 59.0800000  0  4G13G 6G11G 9
  22468277.094    22468278.672   -39706481.002 9  28105018.476 9
  20559217.110    20559217.863    -7152495.666 9  -6747402.381 8
  20597185.175    20597187.379   -18034099.515 9 -15396298.288 8
  21008852.179    21008852.183   -24105733.605 9  -6493669.972 8
 89 11 12 12 13 29.0800000  0  4G13G 6G11G 9
  22450307.102    22450308.924   -39800916.477 9  28031432.396 9
  20562808.822    20562809.698    -7133617.285 9  -6732691.956 9
  20595833.452    20595835.486   -18041204.124 9 -15401834.338 9
  20997588.887    20997589.757   -24164919.271 9  -6539788.670 9
 89 11 12 12 13 59.0800000  0  4G13G 6G11G 9
  22432403.205    22432404.494   -39894999.458 9  27958120.980 8
  20566499.062    20566499.924    -7114228.260 9  -6717583.621 8
  20594583.885    20594584.702   -18047770.494 8 -15406950.964 8
  20986395.558    20986395.848   -24223741.372 9  -6585624.068 8
 89 11 12 12 14 29.0800000  0  4G13G 6G11G 9
  22414566.682    22414568.335   -39988730.064 9  27885084.157 8
  20570286.031    20570286.026    -7094329.454 9  -6702078.076 9
  20593436.652    20593437.574   -18053800.989 8 -15411650.052 8
  20975271.220    20975272.678   -24282198.989 9  -6631175.457 8
 89 11 12 12 14 59.0800000  0  4G13G 6G11G 9
  22396797.237    22396799.238   -40082106.107 9  27812323.604 8
  20574170.043    20574171.274    -7073919.731 9  -6686174.408 8
  20592390.432    20592391.287   -18059296.100 9 -15415931.954 7
  20964217.120    20964217.710   -24340289.174 9  -6676440.525 9
 89 11 12 12 15 29.0800000  0  4G13G 6G11G 9
  22379097.198    22379098.850   -40175123.875 9  27739842.236 8
  20578151.584    20578151.817    -7052996.856 9  -6669870.879 8
  20591446.628    20591447.864   -18064255.473 8 -15419796.396 9
  20953233.958    20953234.655   -24398008.046 9  -6721416.264 8
 89 11 12 12 15 59.0800000  0  4G13G 6G11G 9
  22361464.662    22361467.174   -40267781.179 9  27667641.757 9
  20582232.098    20582231.840    -7031559.547 9  -6653166.491 9
  20590605.291    20590606.207   -18068679.534 9 -15423243.699 8
  20942321.820    20942322.379   -24455352.476 8  -6766100.231 8
 89 11 12 12 16 29.0800000  0  4G13G 6G11G 9
  22343901.882    22343903.279   -40360076.521 8  27595723.326 9
  20586408.868    20586409.059    -7009607.899 9  -6636061.318 8
  20589864.654    20589865.918   -18072570.063 8 -15426275.272 8
  20931481.527    20931481.900   -24512320.660 9  -6810491.004 8
 89 11 12 12 16 59.0800000  0  4G13G 6G11G 9
  22326408.061    22326409.147   -40452009.322 9  27524087.387 9
  20590683.235    20590684.074    -6987142.433 8  -6618555.758 9
  20589226.228    20589226.937   -18075929.314 9 -15428892.862 7
  20920713.543    20920712.943   -24568911.526 8  -6854587.785 8
 89 11 12 12 17 29.0800000  0  4G13G 6G11G 9
  22308982.979    22308984.832   -40543577.529 9  27452735.535 9
  20595056.800    20595056.812    -6964161.478 9  -6600648.528 9
  20588687.520    20588688.934   -18078757.083 9 -15431096.306 8
  20910016.432    20910016.964   -24625121.343 8  -6898387.639 9
 89 11 12 12 17 59.0800000  0  4G13G 6G11G 9
  22291627.455    22291629.679   -40634777.430 9  27381670.687 8
  20599527.349    20599528.210    -6940662.819 9  -6582337.898 8
  20588249.856    20588250.949   -18081052.825 8 -15432885.189 9
  20899392.584    20899393.788   -24680946.006 9  -6941887.375 8
 89 11 12 12 18 29.0800000  0  4G13G 6G11G 9
  22274343.390    22274344.752   -40725607.917 9  27310893.686 9
  20604098.028    20604098.337    -6916646.547 8  -6563623.934 9
  20587914.307    20587915.065   -18082818.178 8 -15434260.789 7
  20888843.832    20888843.616   -24736383.595 9  -6985085.483 8
 89 11 12 12 18 59.0800000  0  4G13G 6G11G 9
  22257130.011    22257131.567   -40816068.826 9  27240404.673 9
  20608766.506    20608767.059    -6892113.110 9  -6544506.989 8
  20587679.785    20587679.719   -18084055.524 9 -15435224.949 8
  20878368.370    20878368.139   -24791433.165 9  -7027981.255 9
 89 11 12 12 19 29.0800000  0  4G13G 6G11G 9
  22239986.603    22239988.492   -40906156.594 9  27170206.424 9
  20613534.277    20613534.640    -6867060.405 9  -6524985.408 9
  20587543.934    20587544.305   -18084764.637 8 -15435777.515 8
  20867966.956    20867966.842   -24846090.166 9  -7070571.110 8
 89 11 12 12 19 59.0800000  0  4G13G 6G11G 9
  22222915.316    22222915.934   -40995869.997 9  27100299.877 8
  20618400.331    20618400.360    -6841488.337 9  -6505059.134 9
  20587509.365    20587510.292   -18084946.993 9 -15435919.586 8
  20857641.267    20857642.413   -24900352.955 9  -7112853.792 8
 89 11 12 12 20 29.0800000  0  4G13G 6G11G 9
  22205913.649    22205915.554   -41085208.076 9  27030685.801 8
  20623364.948    20623365.975    -6815396.921 9  -6484728.167 9
  20587574.330    20587575.572   -18084604.288 9 -15435652.532 8
  20847391.015    20847391.214   -24954219.335 9  -7154827.605 9
 89 11 12 12 20 59.0800000  0  4G13G 6G11G 9
  22188985.855    22188986.804   -41174168.422 9  26961366.050 8
  20628428.932    20628429.396    -6788784.989 9  -6463991.602 8
  20587739.222    20587740.318   -18083737.278 9 -15434976.926 8
  20837216.294    20837216.262   -25007686.214 9  -7196490.085 8
 89 11 12 12 21 29.0800000  0  4G13G 6G11G 9
  22172128.863    22172130.225   -41262749.798 8  26892341.607 7
  20633592.896    20633592.799    -6761652.348 9  -6442849.303 9
  20588004.620    20588005.460   -18082347.023 9 -15433893.616 8
  20827118.292    20827118.378   -25060751.491 9  -7237839.666 9
 89 11 12 12 21 59.0800000  0  4G13G 6G11G 9
  22155344.902    22155346.491   -41350948.978 9  26823614.989 8
  20638855.089    20638855.542    -6733997.189 9  -6421299.831 8
  20588368.647    20588370.098   -18080433.657 9 -15432402.664 8
  20817097.406    20817098.764   -25113411.306 8  -7278873.267 9
 89 11 12 12 22 29.0800000  0  4G13G 6G11G 9
  22138633.667    22138635.628   -41438764.204 9  26755187.549 8
  20644217.635    20644217.841    -6705819.321 8  -6399343.063 9
  20588830.739    20588832.697   -18077998.642 9 -15430505.245 8
  20807154.228    20807154.931   -25165663.407 9  -7319589.181 9
 89 11 12 12 22 59.0800000  0  4G13G 6G11G 9
  22121996.550    22121998.056   -41526195.965 9  26687058.914 9
  20649679.756    20649679.693    -6677119.337 9  -6376979.442 9
  20589394.055    20589394.086   -18075044.262 9 -15428203.128 8
  20797288.568    20797289.624   -25217506.467 9  -7359986.367 9
 89 11 12 12 23 29.0800000  0  4G13G 6G11G 9
  22105432.619    22105434.259   -41613241.565 9  26619231.184 8
  20655240.216    20655239.214    -6647895.980 9  -6354208.004 9
  20590054.965    20590055.294   -18071570.932 9 -15425496.625 8
  20787501.619    20787502.307   -25268937.133 9  -7400062.214 8
 89 11 12 12 23 59.0800000  0  4G13G 6G11G 9
  22088941.883    22088943.692   -41699897.265 9  26551707.275 8
  20660901.169    20660900.949    -6618147.627 9  -6331027.484 9
  20590814.536    20590816.087   -18067578.614 9 -15422385.728 8
  20777794.141    20777793.771   -25319951.731 8  -7439813.837 8
 89 11 12 12 24 29.0800000  0  4G13G 6G11G 9
  22072526.539    22072528.424   -41786162.932 9  26484487.279 9
  20666661.772    20666662.504    -6587874.403 9  -6307437.957 9
  20591671.953    20591673.656   -18063069.203 9 -15418871.889 8
  20768165.930    20768166.061   -25370548.359 9  -7479239.768 8
 89 11 12 12 24 59.0800000  0  4G13G 6G11G 9
  22056185.365    22056186.227   -41872038.188 9  26417571.503 8
  20672522.167    20672521.985    -6557077.442 9  -6283440.326 9
  20592629.227    20592630.677   -18058045.565 8 -15414957.353 7
  20758616.561    20758618.845   -25420725.924 9  -7518339.175 8
 89 11 12 12 25 29.0800000  0  4G13G 6G11G 9
  22039918.309    22039919.800   -41957519.841 9  26350962.425 8
  20678482.252    20678483.039    -6525754.745 9  -6259033.049 9
  20593681.921    20593682.871   -18052507.379 8 -15410641.880 8
  20749149.422    20749149.535   -25470480.447 9  -7557108.929 9
 89 11 12 12 25 59.0800000  0  4G13G 6G11G 9
  22023727.054    22023728.597   -42042607.251 9  26284660.567 8
  20684542.836    20684542.873    -6493906.704 9  -6234216.407 9
  20594834.162    20594834.237   -18046456.706 9 -15405927.059 8
  20739762.176    20739762.128   -25519809.974 9  -7595547.506 9
 89 11 12 12 26 29.0800000  0  4G13G 6G11G 9
  22007610.000    22007612.376   -42127299.003 9  26218666.988 9
  20690703.440    20690703.877    -6461533.340 9  -6208990.412 9
  20596082.863    20596084.451   -18039895.313 8 -15400814.284 9
  20730456.777    20730455.826   -25568712.609 9  -7633653.455 8
 89 11 12 12 26 59.0800000  0  4G13G 6G11G 9
  21991570.390    21991571.334   -42211592.206 9  26152983.991 9
  20696964.206    20696964.532    -6428632.947 9  -6183353.761 9
  20597428.253    20597429.528   -18032822.991 8 -15395303.368 8
  20721232.280    20721232.463   -25617184.346 8  -7671423.636 9
 89 11 12 12 27 29.0800000  0  4G13G 6G11G 9
  21975605.653    21975607.100   -42295484.848 9  26087613.114 8
  20703325.324    20703325.498    -6395204.447 9  -6157305.577 8
  20598870.635    20598873.422   -18025240.500 9 -15389394.922 7
  20712091.362    20712092.379   -25665222.104 9  -7708855.660 8
 89 11 12 12 27 59.0800000  0  4G13G 6G11G 9
  21959718.200    21959718.222   -42378977.005 9  26022554.288 8
  20709786.156    20709786.877    -6361249.469 9  -6130847.170 8
  20600410.176    20600410.591   -18017150.916 9 -15383091.360 7
  20703032.564    20703032.536   -25712825.057 8  -7745948.856 8
 89 11 12 12 28 29.0800000  0  4G13G 6G11G 9
  21943906.133    21943907.588   -42462068.161 9  25957807.937 9
  20716347.340    20716348.282    -6326768.473 9  -6103978.874 9
  20602045.159    20602047.374   -18008556.389 9 -15376394.317 7
  20694056.851    20694057.638   -25759991.665 9  -7782702.062 9
 89 11 12 12 28 59.0800000  0  4G13G 6G11G 9
  21928171.426    21928172.547   -42544754.440 9  25893377.072 8
  20723009.997    20723011.064    -6291758.501 9  -6076698.384 9
  20603777.889    20603777.929   -17999455.929 9 -15369303.045 8
  20685165.758    20685167.046   -25806716.682 8  -7819111.140 8
 89 11 12 12 29 29.0800000  0  4G13G 6G11G 9
  21912514.067    21912514.913   -42627034.620 9  25829262.663 9
  20729772.927    20729773.519    -6256220.026 9  -6049006.074 8
  20605605.591    20605605.498   -17989851.548 9 -15361819.107 7
  20676359.166    20676358.560   -25852998.570 9  -7855174.946 7
 89 11 12 12 29 59.0800000  0  4G13G 6G11G 9
  21896934.176    21896935.891   -42708908.409 9  25765464.921 8
  20736636.599    20736637.060    -6220153.896 9  -6020902.604 9
  20607528.143    20607529.649   -17979745.576 9 -15353944.325 8
  20667636.776    20667636.389   -25898835.672 9  -7890892.164 8
 89 11 12 12 30 29.0800000  0  4G13G 6G11G 9
  21881431.581    21881433.468   -42790373.302 9  25701985.807 9
  20743600.412    20743599.980    -6183558.918 9  -5992387.053 9
  20609546.659    20609546.988   -17969138.581 8 -15345679.124 8
  20658998.073    20658998.043   -25944224.784 8  -7926260.305 8
 89 11 12 12 30 59.0800000  0  4G13G 6G11G 9
  21866006.800    21866008.258   -42871427.915 9  25638826.373 9
  20750663.698    20750664.810    -6146434.988 9  -5963459.321 9
  20611660.333    20611662.453   -17958032.026 9 -15337024.653 9
  20650446.764    20650448.957   -25989163.080 9  -7961277.156 9
 89 11 12 12 31 29.0800000  0  4G13G 6G11G 9
  21850661.751    21850663.035   -42952071.619 9  25575987.137 8
  20757829.451    20757830.418    -6108782.670 9  -5934119.863 8
  20613868.043    20613869.283   -17946428.140 8 -15327982.661 7
  20641982.389    20641982.603   -26033649.278 9  -7995941.728 9
 89 11 12 12 31 59.0800000  0  4G13G 6G11G 9
  21835394.504    21835395.954   -43032302.141 9  25513469.850 8
  20765094.914    20765095.932    -6070601.517 9  -5904368.312 9
  20616170.550    20616171.194   -17934328.120 9 -15318554.066 8
  20633602.636    20633603.907   -26077680.440 8  -8030251.712 9
 89 11 12 12 32 29.0800000  0  4G13G 6G11G 9
  21820205.831    21820207.442   -43112118.045 9  25451275.647 8
  20772461.305    20772461.720    -6031890.767 9  -5874204.110 9
  20618568.801    20618569.006   -17921732.859 8 -15308739.572 8
  20625310.828    20625312.075   -26121253.581 9  -8064204.800 9
 89 11 12 12 32 59.0800000  0  4G13G 6G11G 9
  21805096.452    21805097.377   -43191517.474 9  25389405.972 8
  20779928.484    20779930.161    -5992649.613 9  -5843626.598 9
  20621058.611    20621060.371   -17908643.347 8 -15298539.949 8
  20617107.774    20617107.091   -26164365.504 8  -8097798.498 8
 89 11 12 12 33 29.0800000  0  4G13G 6G11G 9
  21790067.361    21790067.500   -43270499.302 9  25327861.690 8
  20787497.408    20787497.410    -5952878.642 9  -5812636.235 8
  20623643.562    20623645.692   -17895061.627 8 -15287956.782 7
  20608991.683    20608992.457   -26207014.664 9  -8131031.609 8
 89 11 12 12 33 59.0800000  0  4G13G 6G11G 9
  21775116.668    21775118.418   -43349062.069 9  25266643.962 8
  20795165.792    20795165.798    -5912577.578 9  -5781232.813 9
  20626320.532    20626321.366   -17880988.828 9 -15276990.961 8
  20600964.768    20600964.457   -26249198.048 9  -8163901.781 8
 89 11 12 12 34 29.0800000  0  4G13G 6G11G 9
  21760246.603    21760247.435   -43427205.333 9  25205753.118 8
  20802935.840    20802935.917    -5871747.499 9  -5749417.174 9
  20629091.417    20629092.897   -17866427.701 9 -15265644.620 8
  20593026.153    20593026.881   -26290914.644 9  -8196408.219 8
 89 11 12 12 34 59.0800000  0  4G13G 6G11G 9
  21745456.469    21745456.546   -43504927.942 9  25145190.052 8
  20810805.943    20810805.926    -5830388.746 9  -5717189.594 9
  20631955.537    20631957.017   -17851380.201 8 -15253919.295 8
  20585176.902    20585177.261   -26332162.096 8  -8228549.079 8
 89 11 12 12 35 29.0800000  0  4G13G 6G11G 9
  21730746.867    21730747.915   -43582228.587 9  25084955.788 8
  20818777.769    20818777.610    -5788500.295 9  -5684549.252 9
  20634912.133    20634912.866   -17835846.962 8 -15241815.466 7
  20577417.979    20577417.552   -26372937.351 9  -8260322.003 8
 89 11 12 12 35 59.0800000  0  4G13G 6G11G 9
  21716117.294    21716119.351   -43659104.578 9  25025052.427 8
  20826849.087    20826850.140    -5746081.508 9  -5651495.669 9
  20637959.185    20637960.937   -17819829.149 8 -15229334.038 8
  20569748.220    20569748.707   -26413237.338 9  -8291724.582 9
 89 11 12 12 36 29.0800000  0  4G13G 6G11G 9
  21701569.879    21701571.069   -43735555.971 9  24965479.922 8
  20835022.168    20835022.749    -5703133.694 9  -5618029.838 9
  20641099.735    20641100.079   -17803329.638 8 -15216477.285 7
  20562170.612    20562170.675   -26453060.851 9  -8322755.890 9
 89 11 12 12 36 59.0800000  0  4G13G 6G11G 9
  21687102.061    21687103.772   -43811581.212 9  24906239.484 8
  20843295.813    20843296.288    -5659656.714 9  -5584151.695 9
  20644330.137    20644330.362   -17786349.632 8 -15203246.105 8
  20554684.280    20554684.294   -26492405.302 9  -8353413.900 9
 89 11 12 12 37 29.0800000  0  4G13G 6G11G 9
  21672716.855    21672718.505   -43887177.254 9  24847333.482 9
  20851669.511    20851670.627    -5615648.949 9  -5549859.939 8
  20647653.776    20647654.685   -17768889.163 8 -15189640.532 9
  20547288.503    20547289.273   -26531266.717 8  -8383695.516 9
 89 11 12 12 37 59.0800000  0  4G13G 6G11G 9
  21658412.731    21658413.843   -43962344.755 9  24788761.403 8
  20860144.939    20860145.693    -5571112.062 9  -5515155.872 9
  20651066.053    20651068.791   -17750951.456 9 -15175663.091 8
  20539985.500    20539986.343   -26569644.320 9  -8413600.137 8
 89 11 12 12 38 29.0800000  0  4G13G 6G11G 9
  21644190.404    21644192.248   -44037082.537 9  24730524.187 8
  20868721.029    20868721.265    -5526046.412 9  -5480039.801 9
  20654570.432    20654572.360   -17732538.103 9 -15161315.042 8
  20532775.119    20532775.368   -26607535.776 8  -8443125.957 8
 89 11 12 12 38 59.0800000  0  4G13G 6G11G 9
  21630050.932    21630051.782   -44111388.751 9  24672623.248 9
  20877397.073    20877397.608    -5480451.192 9  -5444511.071 8
  20658164.015    20658165.733   -17713650.128 9 -15146597.126 8
  20525657.887    20525658.316   -26644938.335 8  -8472270.797 8
 89 11 12 12 39 29.0800000  0  4G13G 6G11G 9
  21615992.960    21615994.211   -44185262.153 9  24615059.581 8
  20886174.568    20886175.289    -5434326.695 9  -5408569.911 8
  20661848.251    20661849.750   -17694289.457 9 -15131510.882 8
  20518633.515    20518633.870   -26681849.378 9  -8501032.644 9
 89 11 12 12 39 59.0800000  0  4G13G 6G11G 9
  21602017.933    21602020.182   -44258702.104 9  24557833.657 9
  20895052.785    20895052.156    -5387673.675 9  -5372216.917 8
  20665621.750    20665624.135   -17674458.208 9 -15116057.958 9
  20511704.012    20511703.434   -26718267.343 9  -8529410.278 9
 89 11 12 12 40 29.0800000  0  4G13G 6G11G 9
  21588124.886    21588127.269   -44331707.196 9  24500946.572 8
  20904030.799    20904031.098    -5340492.254 9  -5335452.188 8
  20669485.357    20669486.272   -17654158.049 8 -15100239.661 8
  20504867.790    20504867.794   -26754189.822 9  -8557401.813 8
 89 11 12 12 40 59.0800000  0  4G13G 6G11G 9
  21574315.806    21574317.627   -44404275.514 9  24444399.840 9
  20913109.344    20913110.131    -5292782.337 9  -5298275.649 8
  20673437.104    20673439.370   -17633390.679 9 -15084057.293 8
  20498127.340    20498127.096   -26789614.260 9  -8585005.276 9
 89 11 12 12 41 29.0800000  0  4G13G 6G11G 9
  21560590.476    21560591.654   -44476405.848 9  24388194.398 9
  20922288.819    20922290.244    -5244543.406 9  -5260686.883 9
  20677477.652    20677479.160   -17612156.790 8 -15067511.400 8
  20491481.875    20491481.563   -26824537.475 9  -8612218.171 8
 89 11 12 12 41 59.0800000  0  4G13G 6G11G 9
  21546947.713    21546948.371   -44548098.208 9  24332330.240 9
  20931569.543    20931568.684    -5195776.916 9  -5222687.028 9
  20681606.080    20681607.821   -17590459.331 8 -15050604.280 8
  20484930.982    20484930.923   -26858958.339 9  -8639039.628 8
 89 11 12 12 42 29.0800000  0  4G13G 6G11G 9
  21533388.167    21533390.437   -44619351.945 9  24276807.860 8
  20940948.914    20940948.839    -5146483.513 9  -5184276.598 9
  20685823.893    20685825.582   -17568300.431 8 -15033337.600 8
  20478476.886    20478476.727   -26892875.348 9  -8665468.466 8
 89 11 12 12 42 59.0800000  0  4G13G 6G11G 9
  21519913.377    21519913.491   -44690165.285 9  24221628.642 8
  20950430.833    20950430.675    -5096662.785 9  -5145455.271 9
  20690128.447    20690129.541   -17545681.339 9 -15015712.332 8
  20472119.177    20472119.124   -26926285.295 8  -8691502.184 8
 89 11 12 12 43 29.0800000  0  4G13G 6G11G 9
  21506521.996    21506523.404   -44760537.401 9  24166793.243 9
  20960011.079    20960011.160    -5046315.324 9  -5106223.495 9
  20694518.661    20694520.974   -17522604.021 8 -14997730.002 8
  20465859.071    20465858.332   -26959186.055 9  -8717139.136 9
 89 11 12 12 43 59.0800000  0  4G13G 6G11G 9
  21493214.901    21493216.465   -44830466.605 9  24112302.964 8
  20969691.862    20969692.312    -4995441.397 9  -5066581.478 8
  20698997.997    20698999.333   -17499070.051 8 -14979391.843 9
  20459695.074    20459695.076   -26991575.562 9  -8742377.712 7
 89 11 12 12 44 29.0800000  0  4G13G 6G11G 9
  21479991.856    21479993.488   -44899951.889 9  24058158.594 8
  20979473.028    20979473.589    -4944040.865 9  -5026529.136 8
  20703561.595    20703563.661   -17475080.919 8 -14960699.001 9
  20453628.858    20453628.974   -27023451.082 9  -8767215.773 8
 89 11 12 12 44 59.0800000  0  4G13G 6G11G 9
  21466854.539    21466856.215   -44968992.330 9  24004360.854 8
  20989354.176    20989354.915    -4892114.129 9  -4986066.755 9
  20708213.849    20708216.048   -17450638.431 8 -14941652.912 8
  20447661.574    20447662.264   -27054810.426 8  -8791651.629 8
 89 11 12 12 45 29.0800000  0  4G13G 6G11G 9
  21453800.717    21453802.303   -45037587.685 9  23950909.935 8
  20999335.613    20999335.633    -4839662.547 9  -4945195.404 9
  20712950.546    20712952.126   -17425745.309 8 -14922255.671 8
  20441792.386    20441792.768   -27085652.469 8  -8815684.397 8
 89 11 12 12 45 59.0800000  0  4G13G 6G11G 9
  21440832.168    21440834.242   -45105735.554 9  23897807.719 9
  21009416.200    21009418.003    -4786685.331 9  -4903914.471 9
  20717773.893    20717775.592   -17400401.829 8 -14902507.498 9
  20436022.100    20436023.532   -27115973.657 9  -8839311.304 8
 89 11 12 12 46 29.0800000  0  4G13G 6G11G 9
  21427949.751    21427951.767   -45173436.118 9  23845054.039 8
  21019597.747    21019598.465    -4733183.857 9  -4862225.026 9
  20722681.819    20722683.495   -17374611.100 8 -14882410.838 8
  20430352.090    20430351.307   -27145772.744 8  -8862531.364 8
 89 11 12 12 46 59.0800000  0  4G13G 6G11G 9
  21415152.019    21415152.792   -45240689.094 9  23792649.126 8
  21029878.621    21029878.863    -4679159.199 9  -4820127.908 9
  20727673.205    20727674.724   -17348375.801 9 -14861967.736 8
  20424781.621    20424781.965   -27175048.219 8  -8885343.433 8
 89 11 12 12 47 29.0800000  0  4G13G 6G11G 9
  21402439.723    21402441.205   -45307493.185 9  23740593.997 8
  21040258.182    21040258.825    -4624611.054 9  -4777622.874 9
  20732751.158    20732752.197   -17321696.592 9 -14841178.752 8
  20419309.822    20419311.123   -27203797.231 8  -8907745.239 8
 89 11 12 12 47 59.0800000  0  4G13G 6G11G 9
  21389813.123    21389813.838   -45373845.716 9  23688890.743 8
  21050739.023    21050738.448    -4569538.964 9  -4734709.567 9
  20737911.673    20737913.057   -17294574.710 8 -14820044.830 9
  20413940.478    20413940.281   -27232016.765 9  -8929734.500 8
 89 11 12 12 48 29.0800000  0  4G13G 6G11G 9
  21377272.703    21377274.735   -45439746.898 9  23637539.179 9
  21061317.626    21061317.954    -4513944.639 9  -4691389.322 9
  20743156.718    20743158.350   -17267013.129 8 -14798568.261 9
  20408671.234    20408671.228   -27259705.791 9  -8951310.351 8
 89 11 12 12 48 59.0800000  0  4G13G 6G11G 9
  21364816.884    21364819.698   -45505197.113 9  23586539.022 9
  21071995.520    21071995.689    -4457829.566 9  -4647663.303 9
  20748484.005    20748486.208   -17239014.519 9 -14776751.169 8
  20403503.356    20403503.437   -27286863.190 9  -8972471.976 8
 89 11 12 12 49 29.0800000  0  4G13G 6G11G 9
  21352448.646    21352450.018   -45570194.526 9  23535891.702 8
  21082773.783    21082774.440    -4401193.330 9  -4603531.175 9
  20753895.718    20753896.453   -17210580.140 8 -14754594.511 8
  20398437.563    20398437.249   -27313485.933 8  -8993216.964 8
 89 11 12 12 49 59.0800000  0  4G13G 6G11G 9
  21340166.633    21340167.811   -45634738.408 9  23485597.777 8
  21093649.807    21093650.547    -4344036.417 9  -4558993.338 9
  20759387.820    20759390.575   -17181711.632 8 -14732099.572 9
  20393472.541    20393473.410   -27339571.906 9  -9013543.704 8
 89 11 12 12 50 29.0800000  0  4G13G 6G11G 9
  21327971.148    21327971.928   -45698827.582 9  23435658.166 8
  21104625.625    21104625.997    -4286359.162 9  -4514050.035 9
  20764964.914    20764965.960   -17152410.755 8 -14709267.717 8
  20388611.629    20388612.263   -27365118.962 9  -9033450.501 8
 89 11 12 12 50 59.0800000  0  4G13G 6G11G 9
  21315861.782    21315862.569   -45762462.253 9  23386072.731 8
  21115699.426    21115700.201    -4228163.253 9  -4468702.588 8
  20770621.686    20770622.632   -17122680.605 9 -14686101.369 8
  20383852.902    20383852.684   -27390125.791 8  -9052936.337 8
 89 11 12 12 51 29.0800000  0  4G13G 6G11G 9
  21303839.455    21303839.922   -45825641.371 9  23336842.254 8
  21126872.712    21126873.976    -4169449.438 9  -4422951.580 9
  20776361.332    20776361.817   -17092523.065 9 -14662601.990 8
  20379197.988    20379198.419   -27414590.511 8  -9071999.751 8
 89 11 12 12 51 59.0800000  0  4G13G 6G11G 9
  21291903.352    21291903.986   -45888363.907 9  23287967.547 8
  21138144.122    21138144.778    -4110217.463 9  -4376796.809 9
  20782181.372    20782181.808   -17061938.829 9 -14638770.102 8
  20374645.453    20374646.245   -27438510.377 7  -9090638.606 9
 89 11 12 12 52 29.0800000  0  4G13G 6G11G 9
  21280055.029    21280055.710   -45950627.795 9  23239450.252 8
  21149514.669    21149514.352    -4050467.204 9  -4330238.175 9
  20788081.040    20788083.434   -17030929.226 8 -14614606.780 8
  20370197.660    20370198.701   -27461882.511 8  -9108850.667 7
 89 11 12 12 52 59.0800000  0  4G13G 6G11G 9
  21268293.882    21268295.002   -46012433.114 9  23191290.273 8
  21160982.464    21160983.233    -3990200.333 9  -4283276.999 9
  20794063.192    20794064.401   -16999497.587 8 -14590114.606 9
  20365853.662    20365855.671   -27484705.957 9  -9126635.180 8
 89 11 12 12 53 29.0800000  0  4G13G 6G11G 9
  21256619.449    21256620.187   -46073781.183 9  23143486.585 9
  21172549.136    21172549.488    -3929419.301 9  -4235915.169 9
  20800123.947    20800125.849   -16967647.327 9 -14565296.219 8
  20361616.740    20361617.481   -27506980.556 8  -9143992.008 8
 89 11 12 12 53 59.0800000  0  4G13G 6G11G 9
  21245031.970    21245033.821   -46134669.872 9  23096040.862 9
  21184213.107    21184212.991    -3868123.786 9  -4188152.428 9
  20806264.158    20806264.787   -16935379.450 8 -14540152.426 8
  20357482.524    20357483.574   -27528703.117 9  -9160918.670 8
 89 11 12 12 54 29.0800000  0  4G13G 6G11G 9
  21233533.503    21233534.824   -46195097.990 9  23048954.042 8
  21195975.184    21195975.766    -3806313.789 9  -4139988.813 8
  20812484.146    20812485.462   -16902695.113 9 -14514684.111 9
  20353453.981    20353454.621   -27549871.101 8  -9177413.206 8
 89 11 12 12 54 59.0800000  0  4G13G 6G11G 9
  21222121.987    21222123.835   -46255065.396 9  23002226.193 9
  21207835.136    21207835.017    -3743990.811 9  -4091425.473 9
  20818781.529    20818783.395   -16869596.974 8 -14488893.354 8
  20349531.685    20349532.929   -27570483.196 8  -9193474.583 8
 89 11 12 12 55 29.0800000  0  4G13G 6G11G 9
  21210798.579    21210801.105   -46314570.770 9  22955858.382 9
  21219792.298    21219793.186    -3681154.844 9  -4042462.385 9
  20825159.073    20825160.455   -16836086.320 9 -14462781.166 8
  20345715.619    20345716.106   -27590536.899 7  -9209100.839 8
 89 11 12 12 55 59.0800000  0  4G13G 6G11G 9
  21199563.008    21199565.082   -46373613.970 9  22909850.709 8
  21231847.342    21231847.200    -3617807.403 9  -3993100.769 9
  20831612.862    20831615.517   -16802166.052 9 -14436349.764 8
  20342007.073    20342006.640   -27610031.096 8  -9224291.131 8
 89 11 12 12 56 29.0800000  0  4G13G 6G11G 9
  21188415.210    21188416.998   -46432195.820 9  22864202.521 8
  21243998.140    21243998.155    -3553950.713 9  -3943342.313 8
  20838145.866    20838148.327   -16767839.323 9 -14409601.674 8
  20338403.504    20338404.101   -27628964.996 8  -9239044.829 8
 89 11 12 12 56 59.0800000  0  4G13G 6G11G 9
  21177355.275    21177356.866   -46490314.342 9  22818915.369 9
  21256247.046    21256247.284    -3489584.353 9  -3893186.718 8
  20844755.379    20844756.821   -16733106.699 9 -14382537.292 8
  20334907.163    20334908.576   -27647335.516 8  -9253359.504 8
 89 11 12 12 57 29.0800000  0  4G13G 6G11G 9
  21166384.724    21166385.986   -46547968.768 9  22773989.855 8
  21268592.480    21268592.207    -3424709.203 9  -3842634.660 9
  20851442.517    20851443.154   -16697970.351 8 -14355158.313 8
  20331519.639    20331519.339   -27665141.154 8  -9267234.034 7
 89 11 12 12 57 59.0800000  0  4G13G 6G11G 9
  21155501.906    21155503.933   -46605158.668 9  22729426.302 8
  21281034.331    21281035.472    -3359326.089 9  -3791686.795 9
  20858205.338    20858205.695   -16662432.401 9 -14327466.399 7
  20328238.580    20328239.587   -27682379.566 8  -9280666.567 7
 89 11 12 12 58 29.0800000  0  4G13G 6G11G 9
  21144706.577    21144707.751   -46661883.776 9  22685224.932 8
  21293572.421    21293572.992    -3293436.359 9  -3740344.165 9
  20865043.603    20865044.592   -16626495.172 9 -14299463.359 8
  20325067.097    20325066.782   -27699049.890 8  -9293656.426 8
 89 11 12 12 58 59.0800000  0  4G13G 6G11G 9
  21134000.725    21134002.546   -46718145.051 9  22641384.988 8
  21306207.214    21306207.280    -3227041.619 9  -3688608.018 9
  20871957.432    20871958.439   -16590161.419 9 -14271151.348 8
  20322002.507    20322003.004   -27715150.853 9  -9306202.639 8
 89 11 12 12 59 29.0800000  0  4G13G 6G11G 9
  21123384.006    21123384.505   -46773940.761 9  22597907.823 8
  21318937.423    21318938.108    -3160142.774 9  -3636479.064 9
  20878946.814    20878947.887   -16553432.903 8 -14242531.725 8
  20319047.792    20319046.916   -27730680.656 8  -9318303.778 8
 89 11 12 12 59 59.0800000  0  4G13G 6G11G 9
  21112854.251    21112855.629   -46829269.780 9  22554794.303 8
  21331763.472    21331764.762    -3092739.627 9  -3583957.144 9
  20886010.639    20886012.615   -16516310.768 9 -14213605.385 8
  20316201.170    20316202.068   -27745636.261 8  -9329957.505 8
 89 11 12 13  0 29.0800000  0  4G13G 6G11G 9
  21102415.016    21102415.436   -46884132.433 9  22512044.202 7
  21344686.339    21344686.407    -3024833.879 9  -3531043.589 9
  20893148.676    20893150.781   -16478797.860 8 -14184374.568 9
  20313464.748    20313465.273   -27760016.755 8  -9341163.085 8
 89 11 12 13  0 59.0800000  0  4G13G 6G11G 9
  21092063.966    21092064.603   -46938528.809 9  22469657.423 7
  21357703.813    21357704.140    -2956427.392 9  -3477739.844 9
  20900361.475    20900363.404   -16440896.871 9 -14154841.319 9
  20310837.715    20310838.774   -27773821.523 8  -9351920.058 7
 89 11 12 13  1 29.0800000  0  4G13G 6G11G 9
  21081801.474    21081801.934   -46992458.079 9  22427634.627 8
  21370816.049    21370816.064    -2887520.970 9  -3424046.540 9
  20907647.172    20907649.117   -16402609.600 9 -14125007.086 8
  20308320.681    20308321.043   -27787048.369 8  -9362226.688 7
 89 11 12 13  1 59.0800000  0  4G13G 6G11G 9
  21071627.903    21071628.259   -47045919.221 9  22385976.601 7
  21384023.700    21384024.541    -2818114.801 9  -3369963.831 9
  20915006.401    20915006.761   -16363937.228 8 -14094872.769 8
  20305915.458    20305915.622   -27799694.905 8  -9372081.123 8
 89 11 12 13  2 29.0800000  0  4G13G 6G11G 9
  21061543.205    21061545.399   -47098910.827 9  22344684.455 7
  21397325.875    21397326.499    -2748209.643 9  -3315492.292 9
  20922438.119    20922439.653   -16324881.631 9 -14064439.840 8
  20303618.262    20303619.532   -27811759.113 8  -9381481.810 7
 89 11 12 13  2 59.0800000  0  4G13G 6G11G 9
  21051548.173    21051550.265   -47151434.851 9  22303756.655 8
  21410723.120    21410724.464    -2677808.351 9  -3260634.165 9
  20929942.529    20929943.698   -16285446.883 9 -14033711.473 8
  20301434.274    20301433.879   -27823241.290 8  -9390428.979 8
 89 11 12 13  3 29.0800000  0  4G13G 6G11G 9
  21041643.074    21041643.143   -47203491.737 9  22263192.844 9
  21424213.684    21424214.760    -2606913.006 9  -3205391.056 9
  20937518.405    20937519.074   -16245635.929 9 -14002689.946 9
  20299359.957    20299360.564   -27834140.670 9  -9398922.004 7
 89 11 12 13  3 59.0800000  0  4G13G 6G11G 9
  21031825.700    21031827.183   -47255079.410 9  22222994.673 9
  21437798.638    21437798.949    -2535522.978 9  -3149762.477 9
  20945165.918    20945167.829   -16205449.096 9 -13971375.544 9
  20297396.966    20297397.581   -27844454.007 9  -9406958.366 7
 89 11 12 13  4 29.0800000  0  4G13G 6G11G 9
  21022097.975    21022100.190   -47306196.885 9  22183162.887 8
  21451478.176    21451478.802    -2463638.803 9  -3093748.853 9
  20952883.689    20952885.603   -16164887.684 9 -13939769.245 7
  20295546.731    20295546.450   -27854179.182 9  -9414536.424 8
 89 11 12 13  4 59.0800000  0  4G13G 6G11G 9
  21012461.257    21012461.793   -47356844.812 9  22143696.978 8
  21465251.065    21465251.473    -2391262.225 9  -3037351.535 9
  20960674.414    20960674.788   -16123954.284 9 -13907873.092 8
  20293807.616    20293808.094   -27863315.181 9  -9421655.382 8
 89 11 12 13  5 29.0800000  0  4G13G 6G11G 9
  21002912.061    21002913.971   -47407023.129 9  22104596.999 9
  21479116.823    21479117.520    -2318395.472 9  -2980572.266 8
  20968533.423    20968534.776   -16082652.376 9 -13875689.793 7
  20292181.530    20292182.713   -27871861.379 8  -9428314.772 8
 89 11 12 13  5 59.0800000  0  4G13G 6G11G 9
  20993452.033    20993453.896   -47456732.627 8  22065862.332 8
  21493076.304    21493076.886    -2245040.385 9  -2923412.476 9
  20976462.071    20976463.181   -16040984.408 9 -13843221.232 8
  20290667.962    20290667.790   -27879817.169 8  -9434514.082 8
 89 11 12 13  6 29.0800000  0  4G13G 6G11G 9
  20984082.251    20984083.455   -47505972.105 9  22027493.924 7
  21507127.679    21507128.698    -2171197.377 9  -2865872.484 9
  20984461.058    20984462.279   -15998951.963 9 -13810468.683 8
  20289265.861    20289265.337   -27887180.254 8  -9440251.563 7
 89 11 12 13  6 59.0800000  0  4G13G 6G11G 9
  20974801.991    20974804.132   -47554740.003 9  21989492.979 8
  21521272.465    21521273.504    -2096866.667 9  -2807952.469 9
  20992528.529    20992529.724   -15956556.061 9 -13777432.912 8
  20287979.065    20287979.285   -27893948.055 8  -9445525.171 8
 89 11 12 13  7 29.0800000  0  4G13G 6G11G 9
  20965611.722    20965613.043   -47603036.982 9  21951858.979 9
  21535509.826    21535510.463    -2022050.486 9  -2749654.166 9
  21000664.569    21000665.539   -15913799.828 9 -13744116.380 7
  20286804.839    20286804.271   -27900120.262 8  -9450334.697 7
 89 11 12 13  7 59.0800000  0  4G13G 6G11G 9
  20956510.609    20956512.298   -47650864.146 9  21914591.075 9
  21549838.713    21549839.797    -1946750.744 9  -2690979.074 9
  21008868.916    21008870.051   -15870685.875 9 -13710521.093 7
  20285743.360    20285742.979   -27905696.051 9  -9454679.462 7
 89 11 12 13  8 29.0800000  0  4G13G 6G11G 9
  20947497.886    20947500.426   -47698221.059 9  21877689.592 9
  21564259.438    21564260.653    -1870968.946 9  -2631928.332 9
  21017140.436    21017142.968   -15827216.577 9 -13676648.916 8
  20284794.695    20284796.312   -27910674.293 8  -9458558.613 8
 89 11 12 13  8 59.0800000  0  4G13G 6G11G 9
  20938575.724    20938578.111   -47745107.204 9  21841154.937 8
  21578771.970    21578771.475    -1794706.027 9  -2572502.697 9
  21025480.085    21025481.017   -15783393.810 9 -13642501.305 8
  20283963.789    20283963.012   -27915053.192 8  -9461970.758 8
 89 11 12 13  9 29.0800000  0  4G13G 6G11G 9
  20929743.688    20929745.131   -47791522.411 9  21804987.260 8
  21593375.252    21593376.153    -1717963.377 9  -2512703.258 9
  21033885.619    21033886.757   -15739219.822 9 -13608080.015 8
  20283243.890    20283243.900   -27918831.568 8  -9464914.945 7
 89 11 12 13  9 59.0800000  0  4G13G 6G11G 9
  20921000.686    20921001.916   -47837465.639 9  21769187.355 8
  21608070.109    21608071.524    -1640741.651 9  -2452530.507 8
  21042359.064    21042359.333   -15694695.560 9 -13573385.787 8
  20282640.358    20282639.566   -27922007.439 8  -9467389.665 8
 89 11 12 13 10 29.0800000  0  4G13G 6G11G 9
  20912348.059    20912350.539   -47882937.244 9  21733754.945 8
  21622856.174    21622856.642    -1563042.745 9  -2391985.923 9
  21050897.462    21050900.036   -15649824.201 9 -13538421.093 7
  20282149.591    20282150.450   -27924579.935 8  -9469394.207 8
 89 11 12 13 10 59.0800000  0  4G13G 6G11G 9
  20903784.898    20903786.016   -47927938.770 9  21698688.835 8
  21637731.990    21637732.772    -1484869.770 9  -2331071.935 9
  21059502.048    21059503.366   -15604609.139 9 -13503188.585 9
  20281773.407    20281775.769   -27926549.472 8  -9470928.909 7
 89 11 12 13 11 29.0800000  0  4G13G 6G11G 9
  20895311.259    20895312.451   -47972469.581 9  21663989.518 9
  21652697.926    21652698.005    -1406223.123 9  -2269788.846 9
  21068171.489    21068172.035   -15559051.544 9 -13467689.161 8
  20281515.375    20281516.898   -27927913.879 9  -9471992.095 7
 89 11 12 13 11 59.0800000  0  4G13G 6G11G 9
  20886927.127    20886928.999   -48016527.974 9  21629658.318 8
  21667754.030    21667753.463    -1327102.738 9  -2208136.617 9
  21076905.814    21076906.947   -15513152.436 9 -13431923.625 8
  20281372.432    20281371.651   -27928670.586 8  -9472581.738 7
 89 11 12 13 12 29.0800000  0  4G13G 6G11G 9
  20878632.144    20878632.472   -48060115.813 9  21595693.765 8
  21682899.428    21682899.626    -1247512.087 9  -2146117.938 8
  21085704.341    21085706.424   -15466915.772 9 -13395895.068 8
  20281342.389    20281341.869   -27928820.297 8  -9472698.403 7
 89 11 12 13 12 59.0800000  0  4G13G 6G11G 9
  20870426.190    20870428.904   -48103234.165 9  21562095.067 8
  21698134.288    21698134.272    -1167453.807 9  -2083734.875 9
  21094566.334    21094567.134   -15420345.099 9 -13359606.236 9
  20281430.200    20281429.546   -27928363.038 9  -9472342.099 7
 89 11 12 13 13 29.0800000  0  4G13G 6G11G 9
  20862311.891    20862313.109   -48145881.507 9  21528863.385 7
  21713457.549    21713458.922    -1086927.495 9  -2020987.122 9
  21103491.858    21103493.977   -15373440.480 9 -13323057.185 8
  20281632.847    20281632.538   -27927295.715 9  -9471510.434 8
 89 11 12 13 13 59.0800000  0  4G13G 6G11G 9
  20854286.527    20854287.294   -48188056.955 9  21495999.416 8
  21728869.814    21728871.270    -1005934.540 9  -1957875.742 9
  21112480.857    21112481.418   -15326204.091 9 -13286249.611 9
  20281952.219    20281952.100   -27925617.382 8  -9470202.630 8
 89 11 12 13 14 29.0800000  0  4G13G 6G11G 9
  20846350.170    20846350.494   -48229761.099 9  21463502.682 8
  21744370.685    21744371.851     -924476.879 9  -1894402.267 9
  21121531.970    21121534.087   -15278638.613 9 -13249185.610 9
  20282389.036    20282387.597   -27923327.109 8  -9468418.010 8
 89 11 12 13 14 59.0800000  0  4G13G 6G11G 9
  20838503.062    20838503.953   -48270994.290 9  21431372.934 8
  21759960.150    21759961.349     -842556.273 9  -1830568.047 9
  21130646.302    21130646.807   -15230746.269 9 -13211866.910 7
  20282940.094    20282940.848   -27920424.217 8  -9466156.031 7
 89 11 12 13 15 29.0800000  0  4G13G 6G11G 9
  20830746.349    20830748.412   -48311757.301 9  21399609.548 8
  21775636.392    21775637.764     -760174.912 9  -1766374.808 9
  21139821.074    21139821.237   -15182529.910 9 -13174295.719 8
  20283610.776    20283609.585   -27916908.085 8  -9463416.192 8
 89 11 12 13 15 59.0800000  0  4G13G 6G11G 9
  20823078.755    20823080.283   -48352049.656 9  21368212.932 8
  21791400.232    21791401.904     -677333.911 9  -1701823.392 9
  21149058.064    21149059.217   -15133991.143 8 -13136473.307 8
  20284396.241    20284396.714   -27912777.535 7  -9460197.577 8
 89 11 12 13 16 29.0800000  0  4G13G 6G11G 9
  20815501.326    20815502.408   -48391873.800 9  21337181.146 8
  21807251.793    21807252.988     -594036.940 9  -1636916.693 9
  21158354.935    21158356.262   -15085134.264 9 -13098403.018 8
  20285298.862    20285299.272   -27908033.523 8  -9456500.950 8
 89 11 12 13 16 59.0800000  0  4G13G 6G11G 9
  20808011.992    20808012.770   -48431227.473 9  21306515.952 8
  21823189.458    21823189.900     -510284.055 9  -1571654.705 9
  21167712.889    21167712.284   -15035959.519 9 -13060085.033 9
  20286318.698    20286318.441   -27902673.550 8  -9452324.351 7
 89 11 12 13 17 29.0800000  0  4G13G 6G11G 9
  20800612.622    20800613.704   -48470109.899 9  21276217.968 8
  21839213.155    21839214.309     -426075.203 9  -1506037.446 9
  21177130.758    21177131.920   -14986467.675 9 -13021519.968 8
  20287456.059    20287456.556   -27896695.038 8  -9447665.783 8
 89 11 12 13 17 59.0800000  0  4G13G 6G11G 9
  20793303.515    20793306.101   -48508521.744 9  21246286.670 8
  21855324.138    21855325.318     -341412.714 9  -1440066.690 9
  21186607.856    21186608.980   -14936661.663 9 -12982710.096 8
  20288712.317    20288711.511   -27890097.644 9  -9442524.958 7
 89 11 12 13 18 29.0800000  0  4G13G 6G11G 9
  20786083.443    20786083.718   -48546465.123 9  21216720.414 8
  21871521.031    21871522.041     -256300.489 9  -1373745.495 9
  21196144.463    21196145.882   -14886545.831 9 -12943658.813 8
  20290084.769    20290084.184   -27882883.077 8  -9436903.229 7
 89 11 12 13 18 59.0800000  0  4G13G 6G11G 9
  20778951.912    20778953.304   -48583939.599 9  21187519.536 8
  21887803.008    21887803.865     -170739.739 9  -1307074.802 8
  21205739.645    21205741.508   -14836122.091 8 -12904367.583 9
  20291574.977    20291574.725   -27875049.567 8  -9430799.206 7
 89 11 12 13 19 29.0800000  0  4G13G 6G11G 9
  20771910.187    20771910.943   -48620945.834 9  21158683.519 8
  21904169.583    21904169.784      -84732.022 9  -1240055.824 9
  21215393.989    21215395.407   -14785392.356 8 -12864837.928 8
  20293183.408    20293183.794   -27866596.348 8  -9424212.279 7
 89 11 12 13 19 59.0800000  0  4G13G 6G11G 9
  20764957.439    20764958.042   -48657483.012 9  21130212.992 9
  21920621.326    21920621.908        1722.125 9  -1172688.983 9
  21225105.082    21225106.647   -14734357.607 9 -12825070.591 8
  20294909.602    20294910.819   -27857521.582 8  -9417141.034 8
 89 11 12 13 20 29.0800000  0  4G13G 6G11G 9
  20758092.824    20758095.316   -48693551.935 9  21102107.359 8
  21937157.031    21937158.347       88620.469 9  -1104976.007 9
  21234874.293    21234875.386   -14683020.332 8 -12785067.534 8
  20296756.271    20296755.208   -27847824.819 8  -9409585.116 8
 89 11 12 13 20 59.0800000  0  4G13G 6G11G 9
  20751318.805    20751319.989   -48729152.806 9  21074366.432 8
  21953777.393    21953778.455      175959.897 9  -1036919.336 9
  21244707.170    21244700.300   -14631384.194 1 -12744831.582 1
  20298719.363    20298719.604   -27837506.793 9  -9401545.108 8
 89 11 12 13 21 29.0800000  0  4G13G 6G11G 9
  20744633.169    20744633.395   -48764286.396 9  21046989.620 8
  21970481.942    21970480.796      263739.029 7   -968520.022 7
                  21628733.703   -71637440.388 1
  20300801.934    20300801.780   -27826566.296 8  -9393020.059 6
 89 11 12 13 21 59.0800000  0  4G13G 6G11G 9
  20738035.619    20738037.205   -48798952.071 8  21019977.414 7
  21987268.676    21987269.081      351956.934 9   -899778.832 9
                  21264493.355   -71654010.862 9
  20303001.620    20303003.004   -27815001.902 6  -9384008.834 6
 89 11 12 13 22 29.0800000  0  4G13G 6G11G 9
  20731528.124    20731529.676   -48833151.535 7  20993328.489 7
  22004139.432    22004139.516      440610.764 9   -830697.949 9
  21274516.798    21274517.554   -71601489.845 9  91110211.312 9
  20305319.879    20305321.540   -27802813.986 8  -9374511.777 6
 89 11 12 13 22 59.0800000  0  4G13G 6G11G 9
  20725109.245    20725110.326   -48866885.810 7  20967042.059 6
  22021092.191    22021092.672      529697.791 9   -761279.510 8
  21284566.466    21284567.026   -71548679.271 9  91151362.411 8
  20307759.788    20307758.319   -27790002.742 7  -9364528.986 6
 89 11 12 13 23 29.0800000  0  4G13G 6G11G 9
  20718777.483    20718778.492   -48900154.122 9  20941118.708 9
  22038126.703    22038126.915      619217.361 9   -691524.021 9
  21294670.468    21294671.199   -71495580.316 9  91192738.214 9
  20310316.862    20310316.184   -27776566.309 2  -9354059.053 3
 89 11 12 13 23 59.0800000  0  4G13G 6G11G 9
  20712536.400    20712537.294   -48932957.066 9  20915557.981 8
  22055243.877    22055244.404      709167.603 9   -621432.947 9
  21304829.251    21304830.204   -71442195.003 9  91234337.147 9
  20312992.395    20312993.246   -27762504.236 7  -9343101.607 8
 89 11 12 13 24 29.0800000  0  4G13G 6G11G 9
  20706382.054    20706383.486   -48965294.792 9  20890359.773 7
  22072441.527    22072443.599      799546.170 9   -551008.130 9
  21315041.796    21315042.958   -71388526.197 9  91276156.983 9
  20315787.628    20315787.087   -27747816.518 8  -9331656.635 7
 89 11 12 13 24 59.0800000  0  4G13G 6G11G 9
  20700317.100    20700318.195   -48997167.069 9  20865524.246 8
  22089721.854    22089723.097      890351.945 9   -480250.415 9
  21325308.945    21325310.586   -71334575.215 9  91318196.700 8
  20318700.949    20318701.422   -27732501.897 8  -9319723.167 8
 89 11 12 13 25 29.0800000  0  4G13G 6G11G 9
  20694340.631    20694340.681   -49028574.965 9  20841050.569 8
  22107082.269    22107082.608      981582.195 9   -409161.923 9
  21335628.993    21335629.629   -71280345.094 9  91360453.939 9
  20321735.066    20321735.707   -27716560.620 7  -9307301.401 8
 89 11 12 13 25 59.0800000  0  4G13G 6G11G 9
  20688452.526    20688453.011   -49059519.514 9  20816937.945 9
  22124523.885    22124523.990     1073234.322 9   -337744.706 9
  21346000.467    21346002.022   -71225838.969 9  91402926.221 8
  20324886.974    20324887.806   -27699992.944 8  -9294391.527 8
 89 11 12 13 26 29.0800000  0  4G13G 6G11G 9
  20682651.434    20682652.846   -49090001.376 9  20793185.844 8
  22142043.954    22142045.204     1165306.554 9   -266000.139 9
  21356425.189    21356424.509   -71171058.489 9  91445612.308 8
  20328159.205    20328160.345   -27682798.192 8  -9280993.027 7
 89 11 12 13 26 59.0800000  0  4G13G 6G11G 9
  20676938.786    20676940.900   -49120019.615 9  20769795.023 8
  22159644.616    22159645.628     1257798.518 9   -193928.518 9
  21366902.064    21366902.883   -71116004.326 9  91488511.646 9
  20331551.071    20331550.225   -27664974.571 9  -9267104.506 8
 89 11 12 13 27 29.0800000  0  4G13G 6G11G 9
  20671313.354    20671316.555   -49149576.453 9  20746763.727 9
  22177324.411    22177325.182     1350706.576 9   -121532.643 9
  21377429.038    21377430.735   -71060680.468 9  91531621.134 8
  20335062.817    20335062.844   -27646523.141 8  -9252726.787 8
 89 11 12 13 27 59.0800000  0  4G13G 6G11G 9
  20665776.990    20665778.221   -49178673.253 9  20724090.900 8
  22195082.688    22195083.359     1444027.661 9    -48814.945 9
                  21388013.894                    91573870.275 4
  20338692.627    20338693.950   -27627444.773 8  -9237860.530 9
 89 11 12 13 28 29.0800000  0  4G13G 6G11G 9
  20660328.772    20660330.422   -49207309.095 9  20701777.266 9
  22212919.715    22212921.113     1537761.499 9     24224.378 9
                  21398636.678                    91610575.766 6
  20342442.940    20342442.672   -27607737.605 8  -9222504.302 8
 89 11 12 13 28 59.0800000  0  4G13G 6G11G 9
  20654966.435    20654967.807   -49235484.729 9  20679822.234 8
  22230834.905    22230836.386     1631905.958 9     97583.663 9
                  21409286.421                   -74163358.775 9
  20346313.242    20346312.696   -27587401.144 8  -9206657.718 8
 89 11 12 13 29 29.0800000  0  4G13G 6G11G 9
  20649692.370    20649694.604   -49263200.233 9  20658225.767 7
  22248828.254    22248829.291     1726459.232 9    171261.501 8
  21420044.619    21420046.777   -74106976.986 9  94303262.189 9
  20350302.537    20350303.164   -27566435.047 9  -9190320.518 7
 89 11 12 13 29 59.0800000  0  4G13G 6G11G 9
  20644506.378    20644507.145   -49290456.559 9  20636987.076 8
  22266897.856    22266899.651     1821418.653 9    245255.828 9
  21430823.488    21430825.378   -74050335.678 9  94347398.264 8
  20354412.380    20354413.287   -27544839.590 4  -9173492.885 3
 89 11 12 13 30 29.0800000  0  4G13G 6G11G 9
  20639405.667    20639407.690   -49317256.050 9  20616104.384 8
  22285045.338    22285045.819     1916780.498 9    319563.714 9
  21441650.210    21441652.719   -73993439.104 8  94391733.237 8
  20358642.183    20358642.092   -27522616.198 5  -9156175.982 4
 89 11 12 13 30 59.0800000  0  4G13G 6G11G 9
  20634393.343    20634394.746   -49343597.467 9  20595578.609 9
  22303268.282    22303269.620     2012544.497 9    394184.978 9
  21452526.229    21452527.649   -73936287.753 9  94436266.755 8
  20362990.003    20362989.770   -27499763.317 8  -9138368.545 8
 89 11 12 13 31 29.0800000  0  4G13G 6G11G 9
  20629467.912    20629468.920   -49369481.689 9  20575409.092 7
  22321567.741    22321568.003     2108708.655 9    469118.049 9
  21463449.839    21463450.984   -73878883.676 9  94480997.199 7
  20367459.925    20367458.889   -27476280.319 6  -9120070.115 4
 89 11 12 13 31 59.0800000  0  4G13G 6G11G 9
  20624629.087    20624630.296   -49394910.736 9  20555594.268 7
  22339942.418    22339943.490     2205269.096 9    544359.935 9
  21474420.641    21474422.191   -73821230.852 9  94525921.452 8
  20372047.034    20372048.651   -27452168.895 4  -9101282.006 4
 89 11 12 13 32 29.0800000  0  4G13G 6G11G 9
  20619876.898    20619878.129   -49419883.595 9  20536134.899 8
  22358393.258    22358393.617     2302225.477 9    619910.321 9
  21485439.301    21485440.636   -73763329.580 9  94571039.324 8
  20376755.615    20376754.476   -27427427.226 8  -9082002.784 8
 89 11 12 13 32 59.0800000  0  4G13G 6G11G 9
  20615210.783    20615211.886   -49444401.333 9  20517030.185 8
  22376918.263    22376918.829     2399575.319 9    695767.313 9
  21496504.136    21496505.819   -73705182.409 9  94616348.788 8
  20381583.683    20381584.431   -27402055.615 9  -9062232.713 9
 89 11 12 13 33 29.0800000  0  4G13G 6G11G 9
  20610631.535    20610633.640   -49468465.393 9  20498278.970 7
  22395517.278    22395517.716     2497315.473 9    771928.440 9
  21507615.607    21507615.908   -73646792.612 9  94661847.316 8
  20386530.849    20386531.012   -27376055.162 8  -9041972.633 7
 89 11 12 13 33 59.0800000  0  4G13G 6G11G 9
  20606139.401    20606139.612   -49492076.522 9  20479880.698 8
  22414190.526    22414191.992     2595443.760 9    848391.994 9
  21518772.869    21518773.372   -73588161.944 9  94707533.543 8
  20391597.994    20391598.381   -27349425.887 8  -9021222.552 7
 89 11 12 13 34 29.0800000  0  4G13G 6G11G 9
  20601731.988    20601732.982   -49515234.640 9  20461835.422 8
  22432937.639    22432938.309     2693958.973 9    925157.059 9
  21529975.907    21529976.918   -73529291.868 9  94753406.313 8
  20396785.369    20396785.937   -27322166.801 9  -8999981.721 8
 89 11 12 13 34 59.0800000  0  4G13G 6G11G 9
  20597410.629    20597412.273   -49537940.747 9  20444142.342 8
  22451757.648    22451758.490     2792858.919 9   1002221.925 9
  21541223.345    21541224.583   -73470184.450 9  94799464.030 9
  20402093.169    20402092.757   -27294277.744 8  -8978249.986 8
 89 11 12 13 35 29.0800000  0  4G13G 6G11G 9
  20593176.109    20593177.988   -49560196.495 9  20426800.220 8
  22470649.951    22470651.239     2892140.266 9   1079583.979 9
  21552515.290    21552516.713   -73410843.199 9  94845703.953 8
  20407519.790    20407519.752   -27265760.079 8  -8956028.442 9
 89 11 12 13 35 59.0800000  0  4G13G 6G11G 9
  20589025.851    20589027.525   -49582002.986 9  20409808.148 8
  22489615.055    22489616.653     2991800.705 9   1157241.412 9
  21563851.186    21563852.661   -73351270.091 9  94892124.537 8
  20413067.099    20413066.114   -27236613.926 8  -8933317.162 8
 89 11 12 13 36 29.0800000  0  3G13G 6G 3
  20584962.698    20584962.931   -49603359.768 9  20393166.505 7
  22508651.739    22508652.800     3091839.040 9   1235193.327 8
                  23967355.089   -76953251.619 9
 89 11 12 13 36 59.0800000  0  4G13G 6G 3G 9
  20580985.768    20580984.289   -49624267.809 1  20376874.541 1
  22527759.472    22527760.579     3192252.810 9   1313437.784 9
  23950948.012    23950947.836   -77039592.685 9  97611693.011 9
                  20424486.204   -76967064.562 8
 89 11 12 13 37 29.0800000  0  4G13G 6G 3G 9
  20577090.311    20577092.225   -49644730.082 1  20360929.913 1
  22546938.368    22546939.032     3293037.613 9   1391971.353 9
  23934562.778    23934563.796   -77125695.914 9  97544599.600 9
  20430422.732    20430423.397   -76936034.500 9  97901182.859 8
 89 11 12 13 37 59.0800000  0  4G13G 6G 3G 9
  20573280.947    20573281.786   -49664746.141 9  20345332.993 9
  22566187.886    22566188.856     3394192.562 9   1470793.345 9
  23918224.191    23918225.206   -77211559.854 9  97477692.639 9
  20436445.405    20436449.608   -76904375.900 1  97925851.884 1
 89 11 12 13 38 29.0800000  0  4G13G 6G 3G 9
  20569557.666    20569557.361   -49684316.432 1  20330083.423 1
  22585506.518    22585507.800     3495716.218 9   1549902.622 9
  23901931.017    23901931.140   -77297182.650 9  97410973.573 9
  20442591.220    20442591.707   -76872089.006 9  97951010.488 8
 89 11 12 13 38 59.0800000  0  4G13G 6G 3G 9
                  19107491.405   -77921192.032 1
  22604895.299    22604896.727     3597606.138 9   1629297.318 8
  23885682.645    23885682.236   -77382563.400 9  97344443.125 9
  20448854.112    20448854.962   -76839174.229 8  97976658.343 8
 89 11 12 13 39 29.0800000  0  4G13G 6G 3G 9
                  19103239.733   -78117158.814 1
  22624354.499    22624355.940     3699858.863 9   1708974.706 9
  23869481.128    23869481.747   -77467702.615 9  97278100.907 9
  20455236.204    20455236.361   -76805632.948 9  98002794.398 7
 89 11 12 13 39 59.0800000  0  4G13G 6G 3G 9
                  20558860.493   -78160120.355 9
  22643880.763    22643881.667     3802472.758 9   1788933.519 9
  23853326.778    23853328.080   -77552598.730 8  97211948.087 9
  20461738.589    20461738.045   -76771465.174 9  98029418.614 8
 89 11 12 13 40 29.0800000  0  4G13G 6G 3G 9
  20555504.478    20555506.708   -78177917.977 9  99243896.582 8
  22663476.407    22663477.068     3905444.694 9   1869171.335 9
  23837216.447    23837218.727   -77637251.598 9  97145984.810 9
  20468360.564    20468360.377   -76736671.765 8  98056530.367 8
 89 11 12 13 40 59.0800000  0  4G13G 6G 3G 9
  20552202.448    20552203.227   -78195274.303 9  99230372.176 8
  22683138.594    22683139.957     4008772.536 9   1949686.483 9
  23821154.127    23821155.573   -77721660.143 9  97080211.920 9
  20475099.534    20475099.634   -76701253.026 9  98084129.353 8
 89 11 12 13 41 29.0800000  0  4G13G 6G 3G 9
  20548983.393    20548984.731   -78212190.805 8  99217190.497 8
  22702869.280    22702870.057     4112454.623 9   2030477.659 9
  23805138.881    23805139.106   -77805822.953 9  97014630.533 8
  20481959.931    20481959.974   -76665208.730 8  98112215.804 9
 89 11 12 13 41 59.0800000  0  4G13G 6G 3G 9
  20545847.980    20545848.393   -78228668.301 9  99204350.890 8
  22722665.074    22722666.994     4216488.376 9   2111542.864 9
  23789169.320    23789171.055   -77889739.394 9  96949241.097 9
  20488937.032    20488937.719   -76628539.543 8  98140789.180 8
 89 11 12 13 42 29.0800000  0  4G13G 6G 3G 9
  20542795.116    20542796.937   -78244708.644 9  99191851.926 8
  22742528.864    22742529.748     4320870.385 9   2192879.438 9
  23773247.253    23773250.144   -77973409.632 9  96884043.512 9
  20496033.531    20496033.403   -76591246.943 8  98169848.335 8
 89 11 12 13 42 59.0800000  0  4G13G 6G 3G 9
  20539826.285    20539827.359   -78260311.885 9  99179693.555 8
  22762458.377    22762459.581     4425599.015 9   2274486.103 9
  23757372.705    23757374.771   -78056831.891 8  96819039.151 8
  20503248.910    20503249.538   -76553330.566 9  98199393.548 8
 89 11 12 13 43 29.0800000  0  4G13G 6G 3G 9
  20536939.206    20536940.034   -78275479.157 9  99167874.910 8
  22782453.159    22782455.015     4530672.074 9   2356361.167 9
  23741545.635    23741547.003   -78140005.595 8  96754228.480 9
  20510583.085    20510583.959   -76514790.814 8  98229424.504 8
 89 11 12 13 43 59.0800000  0  4G13G 6G 3G 9
  20534136.820    20534137.362   -78290212.080 9  99156394.708 8
  22802512.721    22802513.925     4636086.455 9   2438502.182 9
  23725765.206    23725766.293   -78222930.612 9  96689611.595 8
  20518034.850    20518035.223   -76475628.991 8  98259940.191 8
 89 11 12 13 44 29.0800000  0  4G13G 6G 3G 9
  20531414.797    20531416.367   -78304512.431 9  99145251.590 9
  22822637.147    22822638.249     4741839.052 9   2520906.743 9
  23710032.246    23710033.343   -78305606.589 9  96625188.758 8
  20525604.612    20525606.686   -76435846.508 8  98290939.506 8
 89 11 12 13 44 59.0800000  0  4G13G 6G 3G 9
  20528776.720    20528777.883   -78318379.393 9  99134446.160 8
  22842824.639    22842826.558     4847929.157 9   2603574.287 9
  23694348.898    23694348.569   -78388031.344 9  96560961.681 9
  20533294.111    20533293.780   -76395442.262 8  98322423.315 8
 89 11 12 13 45 29.0800000  0  4G13G 6G 3G 9
  20526220.089    20526221.186   -78331814.751 9  99123977.061 8
  22863077.646    22863078.465     4954353.696 9   2686502.418 9
  23678712.222    23678713.064   -78470204.308 9  96496930.805 9
  20541100.231    20541100.116   -76354417.284 8  98354390.794 9
 89 11 12 13 45 59.0800000  0  4G13G 6G 3G 9
  20523745.232    20523745.651   -78344821.102 9  99113842.245 9
  22883391.583    22883393.015     5061108.982 9   2769688.284 8
  23663122.538    23663123.978   -78552126.508 9  96433095.316 8
  20549024.858    20549026.375   -76312773.661 8  98386840.342 9
 89 11 12 13 46 29.0800000  0  4G13G 6G 3G 9
  20521350.411    20521351.711   -78357398.250 9  99104041.889 8
  22903769.696    22903771.436     5168193.531 9   2853130.717 8
  23647580.895    23647583.114   -78633796.067 9  96369456.685 8
  20557066.907    20557068.683   -76270511.097 8  98419772.188 8
 89 11 12 13 46 59.0800000  0  4G13G 6G 3G 9
  20519039.557    20519041.832   -78369547.664 9  99094574.808 8
  22924208.638    22924210.593     5275604.603 9   2936827.575 9
  23632087.198    23632089.230   -78715212.436 9  96306015.348 9
  20565226.523    20565228.827   -76227630.562 9  98453185.575 8
 89 11 12 13 47 29.0800000  0  4G13G 6G 3G 9
  20516808.192    20516809.602   -78381270.560 9  99085440.095 8
  22944710.789    22944711.641     5383339.553 9   3020776.820 9
  23616641.340    23616643.442   -78796375.231 9  96242771.626 9
  20573504.388    20573505.417   -76184133.126 8  98487079.665 8
 89 11 12 13 47 59.0800000  0  4G13G 6G 3G 9
  20514658.227    20514660.202   -78392566.264 9  99076638.243 8
  22965273.426    22965274.973     5491397.440 9   3104977.676 9
  23601246.837    23601247.519   -78877281.974 9  96179727.394 8
  20581900.188    20581900.617   -76140017.852 8  98521455.175 8
 89 11 12 13 48 29.0800000  0  4G13G 6G 3G 9
  20512589.781    20512591.731   -78403436.938 9  99068167.602 8
  22985896.948    22985898.403     5599774.874 9   3189427.553 9
  23585899.812    23585899.835   -78957933.118 9  96116882.354 8
  20590411.751    20590412.080   -76095286.698 8  98556310.603 8
 89 11 12 13 48 59.0800000  0  4G13G 6G 3G 9
  20510601.463    20510603.146   -78413886.604 9  99060025.000 9
  23006580.912    23006581.124     5708466.845 9   3274122.505 9
  23570601.546    23570600.401   -79038330.184 9  96054235.278 8
  20599040.393    20599041.480   -76049942.734 8  98591643.535 8
 89 11 12 13 49 29.0800000  0  4G13G 6G 3G 9
  20508693.134    20508693.564   -78423914.151 9  99052211.339 9
  23027323.751    23027324.248     5817472.797 9   3359062.123 9
  23555350.354    23555350.244   -79118470.937 9  95991787.924 8
  20607785.854    20607785.567   -76003985.067 8  98627454.673 8
 89 11 12 13 49 59.0800000  0  4G13G 6G 3G 9
  20506864.344    20506866.411   -78433520.333 9  99044725.995 8
  23048125.940    23048127.173     5926790.227 9   3444244.453 9
  23540147.683    23540148.364   -79198354.531 9  95929540.964 8
  20616647.962    20616648.335   -75957414.532 9  98663743.380 8
 89 11 12 13 50 29.0800000  0  4G13G 6G 3G 9
  20505117.740    20505117.922   -78442706.653 9  99037567.824 7
  23068987.395    23068989.065     6036416.611 9   3529667.519 9
  23524996.007    23524997.129   -79277980.023 9  95867495.129 8
  20625626.120    20625627.806   -75910231.976 8  98700508.980 9
 89 11 12 13 50 59.0800000  0  4G13G 6G 3G 9
  20503449.272    20503450.149   -78451475.048 9  99030735.323 8
  23089906.496    23089908.730     6146349.535 9   3615329.438 9
  23509894.966    23509894.015   -79357347.159 9  95805650.622 9
  20634721.527    20634722.341   -75862438.253 9  98737750.809 8
 89 11 12 13 51 29.0800000  0  4G13G 6G 3G 9
  20501859.523    20501860.991   -78459826.385 9  99024227.781 7
  23110884.050    23110885.018     6256586.077 9   3701227.949 9
  23494839.756    23494840.322   -79436455.565 9  95744007.689 8
  20643931.694    20643933.453   -75814034.789 8  98775467.770 9
 89 11 12 13 51 59.0800000  0  4G13G 6G 3G 9
  20500349.343    20500350.525   -78467761.217 9  99018044.797 8
  23131919.505    23131920.266     6367123.843 9   3787361.182 9
  23479833.818    23479835.882   -79515304.313 8  95682567.116 9
  20653258.908    20653260.211   -75765022.356 8  98813659.241 8
 89 11 12 13 52 29.0800000  0  4G13G 6G 3G 9
  20498918.626    20498919.565   -78475282.360 8  99012184.161 8
  23153010.924    23153012.271     6477959.120 9   3873726.238 9
  23464880.533    23464880.796   -79593893.871 8  95621328.522 9
  20662701.197    20662702.072   -75715403.074 8  98852323.594 8
 89 11 12 13 52 59.0800000  0  4G13G 6G 3G 9
  20497565.917    20497566.823   -78482391.096 8  99006644.887 8
  23174157.799    23174159.239     6589089.794 9   3960321.460 9
  23449975.624    23449975.031   -79672223.626 8  95560292.346 9
  20672258.906    20672260.009   -75665177.676 8  98891460.236 9
 89 11 12 13 53 29.0800000  0  4G13G 6G 3G 9
  20496291.332    20496292.410   -78489087.696 9  99001426.750 8
  23195361.867    23195362.493     6700513.503 9   4047145.016 9
  23435116.478    23435118.650   -79750292.296 9  95499459.608 9
  20681931.632    20681932.675   -75614346.961 8  98931068.556 8
 89 11 12 13 53 59.0800000  0  4G13G 6G 3G 9
  20495094.912    20495095.953   -78495373.465 8  98996528.762 9
  23216620.202    23216621.715     6812227.957 9   4134195.142 9
  23420312.289    23420313.079   -79828099.162 8  95438830.906 9
  20691719.803    20691720.876   -75562911.640 8  98971147.998 9
 89 11 12 13 54 29.0800000  0  4G13G 6G 3G 9
  20493977.252    20493977.735   -78501249.060 9  98991950.357 8
  23237933.614    23237935.198     6924231.086 9   4221470.183 9
  23405556.870    23405556.181   -79905643.244 9  95378406.944 9
  20701622.535    20701623.579   -75510872.649 8  99011697.836 8
 89 11 12 13 54 59.0800000  0  4G13G 6G 3G 9
  20492937.218    20492937.935   -78506716.380 9  98987690.108 9
  23259301.694    23259302.756     7036519.686 9   4308967.674 9
  23390849.895    23390850.093   -79982924.608 8  95318187.691 8
  20711638.539    20711641.086   -75458231.543 8  99052716.843 8
 89 11 12 13 55 29.0800000  0  4G13G 6G 3G 9
  20491973.371    20491975.127   -78511778.105 9  98983745.891 8
  23280723.369    23280724.052     7149089.866 9   4396684.580 9
  23376192.576    23376194.562   -80059943.757 9  95258172.774 9
  20721771.103    20721771.603   -75404990.906 9  99094203.031 9
 89 11 12 13 55 59.0800000  0  4G13G 6G 3G 9
  20491086.949    20491088.611   -78516435.967 9  98980116.384 8
  23302197.216    23302199.415     7261939.001 9   4484618.853 9
  23361588.595    23361587.693   -80136700.378 9  95198362.418 9
  20732016.567    20732016.782   -75351151.744 8  99136155.600 8
 89 11 12 13 56 29.0800000  0  4G13G 6G 3G 9
  20490276.934    20490279.819   -78520689.176 9  98976802.185 8
  23323724.958    23323725.925     7375066.002 9   4572769.633 9
  23347031.109    23347031.834   -80213192.401 9  95138758.236 8
  20742374.818    20742376.178   -75296713.821 9  99178574.733 8
 89 11 12 13 56 59.0800000  0  4G13G 6G 3G 9
  20489545.195    20489547.017   -78524538.747 9  98973802.517 8
  23345304.521    23345306.349     7488468.620 9   4661135.191 9
  23332525.232    23332526.430   -80289418.818 9  95079361.021 8
  20752848.772    20752849.001   -75241677.944 9  99221459.791 8
 89 11 12 13 57 29.0800000  0  4G13G 6G 3G 9
  20488889.436    20488890.298   -78527987.220 8  98971115.395 8
  23366936.390    23366938.554     7602142.822 9   4749712.361 8
  23318072.299    23318072.376   -80365380.495 9  95020170.112 9
  20763435.396    20763435.682   -75186046.826 8  99264808.672 8
 89 11 12 13 57 59.0800000  0  4G13G 6G 3G 9
  20488308.467    20488310.409   -78531036.680 9  98968739.170 8
  23388618.994    23388620.598     7716085.511 9   4838498.745 9
  23303665.760    23303667.228   -80441077.655 9  94961185.296 9
  20774133.263    20774135.093   -75129822.467 9  99308619.838 9
 89 11 12 13 58 29.0800000  0  4G13G 6G 3G 9
  20487803.461    20487804.640   -78533688.555 9  98966672.771 8
  23410351.815    23410353.628     7830293.887 9   4927492.166 9
  23289312.292    23289312.698   -80516509.853 9  94902406.960 9
  20784945.570    20784947.487   -75073006.178 8  99352892.227 9
 89 11 12 13 58 59.0800000  0  4G13G 6G 3G 9
  20487375.667    20487376.722   -78535942.634 8  98964916.333 9
  23432135.864    23432137.334     7944766.982 9   5016691.842 9
  23275008.378    23275010.926   -80591674.871 9  94843836.807 9
  20795870.064    20795870.535   -75015597.747 8  99397626.036 9
 89 11 12 13 59 29.0800000  0  4G13G 6G 3G 9
  20487022.209    20487023.003   -78537800.005 9  98963469.026 8
  23453969.231    23453969.855     8059501.969 9   5106095.602 8
  23260755.573    23260757.156   -80666572.590 9  94785474.954 9
  20806907.345    20806908.545   -74957598.705 8  99442820.060 8
 89 11 12 13 59 59.0800000  0  4G13G 6G 3G 9
  20486743.003    20486743.921   -78539264.140 9  98962328.122 8
  23475852.126    23475853.580     8174494.705 9   5195700.195 9
  23246554.447    23246555.677   -80741203.729 9  94727320.813 8
  20818056.032    20818056.407   -74899011.945 9  99488472.041 8
 89 11 12 14  0 29.0800000  0  4G13G 6G 3G 9
  20486540.007    20486541.127   -78540335.721 9  98961493.114 8
  23497782.542    23497785.078     8289742.810 9   5285503.763 9
  23232402.974    23232404.299   -80815567.993 9  94669374.633 9
  20829316.676    20829316.177   -74839838.383 9  99534581.279 8
 89 11 12 14  0 59.0800000  0  4G13G 6G 3G 9
  20486408.955    20486409.760   -78541016.337 9  98960962.760 8
  23519762.090    23519763.925     8405243.804 9   5375504.376 8
  23218303.739    23218303.501   -80889664.124 9  94611637.385 7
  20840688.420    20840688.149   -74780079.457 9  99581146.630 8
 89 11 12 14  1 29.0800000  0  4G13G 6G 3G 9
  20486354.239    20486356.628   -78541306.982 9  98960736.260 7
  23541789.144    23541790.973     8520994.824 9   5465699.815 9
  23204254.007    23204254.491   -80963492.452 8  94554108.792 9
  20852171.086    20852172.602   -74719736.840 9  99628166.823 8
 89 11 12 14  1 59.0800000  0  4G13G 6G 3G 9
  20486372.804    20486373.992   -78541209.701 9  98960812.056 8
  23563862.860    23563864.752     8636993.081 9   5556087.918 9
  23190256.542    23190257.354   -81037052.314 9  94496789.419 8
  20863764.533    20863764.420   -74658812.302 8  99675640.443 8
 89 11 12 14  2 29.0800000  0  4G13G 6G 3G 9
  20486464.454    20486466.217   -78540726.622 9  98961188.455 9
  23585982.331    23585985.168     8753234.954 9   5646665.832 9
  23176309.029    23176310.088   -81110344.493 9  94439678.614 7
  20875468.333    20875468.635   -74597307.878 9  99723565.929 8
 89 11 12 14  2 59.0800000  0  4G13G 6G 3G 9
  20486629.613    20486631.643   -78539857.940 9  98961865.352 8
  23608149.803    23608151.427     8869719.613 8   5737432.925 9
  23162413.324    23162415.211   -81183366.545 8  94382778.309 9
  20887282.831    20887283.504   -74535223.614 9  99771943.235 8
 89 11 12 14  3 29.0800000  0  4G13G 6G 3G 9
  20486868.818    20486869.961   -78538604.273 9  98962842.222 8
  23630362.304    23630363.258     8986444.517 8   5828387.233 9
  23148569.359    23148570.930   -81256118.100 9  94326088.765 8
  20899207.336    20899206.234   -74472561.009 8  99820771.194 8
 89 11 12 14  3 59.0800000  0  4G13G 6G 3G 9
  20487179.216    20487181.713   -78536968.292 9  98964117.002 8
  23652617.252    23652620.697     9103405.641 9   5919525.586 9
  23134776.906    23134777.529   -81328600.040 9  94269609.325 9
  20911240.592    20911240.921   -74409322.661 9  99870047.782 9
 89 11 12 14  4 29.0800000  0  4G13G 6G 3G 9
  20487563.534    20487564.893   -78534952.364 9  98965687.843 9
  23674919.610    23674923.876     9220599.416 9   6010845.231 9
  23121033.964    23121035.237   -81400812.962 9  94213339.500 8
  20923383.484    20923384.501   -74345511.353 8  99919770.837 9
 89 11 12 14  4 59.0800000  0  4G13G 6G 3G 9
  20488019.609    20488020.408   -78532558.295 9  98967553.341 8
  23697265.164    23697268.058     9338023.199 9   6102344.105 9
  23107345.091    23107345.526   -81472756.183 9  94157279.854 9
  20935634.699    20935636.171   -74281128.279 9  99969939.422 8
 89 11 12 14  5 29.0800000  0  4G13G 6G 3G 9
  20488547.423    20488548.823   -78529785.315 8  98969714.102 8
  23719654.478    23719654.967     9455676.300 9   6194021.664 9
  23093704.367    23093706.633   -81544427.407 9  94101432.123 9
  20947996.692    20947997.081   -74216173.401 9 100020553.574 8
 89 11 12 14  5 59.0800000  0  4G13G 6G 3G 9
  20489146.111    20489147.989   -78526635.627 9  98972168.392 9
  23742085.308    23742089.340     9573555.140 9   6285875.118 9
  23080120.148    23080119.914   -81615827.411 9  94045795.755 8
  20960465.977    20960465.148   -74150649.094 9 100071611.419 8
 89 11 12 14  6 29.0800000  0  4G13G 6G 3G 9
  20489816.756    20489818.391   -78523111.809 9  98974914.202 9
  23764560.827    23764562.247     9691656.034 9   6377901.604 9
  23066582.774    23066584.191   -81686956.578 9  93990370.421 9
  20973041.610    20973041.782   -74084558.247 9 100123110.742 8
 89 11 12 14  6 59.0800000  0  4G13G 6G 3G 9
  20490558.823    20490559.771   -78519215.202 9  98977950.493 9
  23787075.361    23787077.503     9809976.369 9   6470099.086 9
  23053100.484    23053100.708   -81757814.494 9  93935156.442 8
  20985725.989    20985725.789   -74017902.387 9 100175050.320 8
 89 11 12 14  7 29.0800000  0  4G13G 6G 3G 9
  20491369.964    20491372.815   -78514947.282 9  98981276.136 9
  23809632.847    23809635.479     9928513.526 9   6562465.489 9
  23039667.542    23039668.957   -81828400.979 9  93880153.982 9
  20998517.263    20998517.776   -73950683.029 9 100227428.999 8
 89 11 12 14  7 59.0800000  0  4G13G 6G 3G 9
  20492253.455    20492255.541   -78510307.759 8  98984891.313 9
  23832230.511    23832232.782    10047266.255 9   6654999.881 9
  23026286.267    23026288.207   -81898713.903 8  93825364.678 9
  21011415.736    21011416.009   -73882900.547 9 100280246.452 8
 89 11 12 14  8 29.0800000  0  4G13G 6G 3G 9
  20493206.373    20493207.160   -78505300.222 8  98988793.276 8
  23854869.620    23854871.540    10166230.302 9   6747698.948 9
  23012960.189    23012960.541   -81968754.659 9  93770787.464 9
  21024421.103    21024421.516   -73814558.265 9 100333500.133 9
 89 11 12 14  8 59.0800000  0  4G13G 6G 3G 9
  20494228.775    20494229.838   -78499926.758 9  98992980.366 9
  23877547.221    23877548.605    10285401.782 9   6840559.645 9
  22999682.730    22999683.569   -82038523.965 9  93716421.740 9
  21037532.698    21037532.556   -73745658.980 8 100387187.828 8
 89 11 12 14  9 29.0800000  0  4G13G 6G 3G 9
  20495320.866    20495323.106   -78494187.566 8  98997452.443 9
  23900263.298    23900266.443    10404779.201 9   6933580.800 8
  22986457.583    22986459.232   -82108020.745 9  93662268.390 8
  21050748.438    21050749.653   -73676203.673 8 100441308.789 9
 89 11 12 14  9 59.0800000  0  4G13G 6G 3G 9
  20496482.557    20496483.762   -78488085.415 9  99002207.341 8
  23923017.253    23923020.970    10524359.296 8   7026759.874 9
  22973285.724    22973286.477   -82177244.686 8  93608327.641 9
  21064070.808    21064072.168   -73606194.401 8 100495861.417 8
 89 11 12 14 10 29.0800000  0  4G13G 6G 3G 9
  20497712.302    20497713.816   -78481621.143 9  99007244.403 8
  23945810.657    23945814.661    10644139.699 8   7120095.023 9
  22960164.335    22960164.335   -82246195.650 9  93554599.600 8
  21077499.353    21077500.754   -73535632.723 8 100550844.489 8
 89 11 12 14 10 59.0800000  0  4G13G 6G 3G 9
  20499011.358    20499013.022   -78474795.381 9  99012563.165 8
  23968643.692    23968645.898    10764118.146 8   7213584.481 9
  22947094.385    22947096.415   -82314872.703 9  93501084.994 8
  21091030.836    21091032.453   -73464520.218 9 100606256.749 8
 89 11 12 14 11 29.0800000  0  4G13G 6G 3G 9
  20500377.896    20500380.375   -78467611.406 8  99018161.037 8
  23991511.045    23991516.101    10884290.305 7   7307224.873 8
  22934079.259    22934079.279   -82383277.254 9  93447782.735 8
  21104668.266    21104669.370   -73392860.120 8 100662095.727 8
 89 11 12 14 11 59.0800000  0  4G13G 6G 3G 9
  20501813.186    20501814.055   -78460070.277 9  99024037.214 8
  24014415.725    24014420.008    11004654.505 7   7401014.902 9
  22921112.650    22921114.002   -82451407.828 9  93394693.954 9
  21118407.838    21118408.639   -73320653.649 9 100718360.459 8
 89 11 12 14 12 29.0800000  0  4G13G 6G 3G 9
  20503315.892    20503317.407   -78452173.689 8  99030190.388 9
  24037357.983    24037361.083    11125207.454 8   7494952.001 9
  22908200.194    22908202.670   -82519265.108 9  93341818.130 9
  21132252.552    21132253.651   -73247903.156 9 100775049.084 8
 89 11 12 14 12 59.0800000  0  4G13G 6G 3G 9
  20504886.921    20504888.074   -78443923.096 9  99036619.384 8
  24060333.736    24060337.632    11245946.489 8   7589034.105 9
  22895338.806    22895340.784   -82586848.359 9  93289155.848 8
  21146199.690    21146200.606   -73174610.374 9 100832160.272 9
 89 11 12 14 13 29.0800000  0  4G13G 6G 3G 9
  20506523.867    20506525.446   -78435319.224 9  99043323.676 8
  24083344.469    24083348.328    11366868.986 9   7683259.163 9
  22882532.231    22882532.135   -82654157.318 9  93236707.295 8
  21160250.114    21160250.083   -73100777.349 9 100889692.448 8
 89 11 12 14 13 59.0800000  0  4G13G 6G 3G 9
  20508227.836    20508228.768   -78426364.848 9  99050301.088 8
  24106389.632    24106393.248    11487971.716 9   7777624.675 9
  22869775.322    22869777.051   -82721192.581 9  93184471.994 8
  21174401.616    21174403.262   -73026406.449 9 100947643.736 9
 89 11 12 14 14 29.0800000  0  4G13G 6G 3G 9
  20509997.597    20509999.403   -78417063.021 8  99057549.244 8
  24129467.222    24129472.299    11609250.672 9   7872127.496 9
  22857069.236    22857071.910   -82787954.852 8  93132449.424 9
  21188655.486    21188657.173   -72951501.088 9 101006011.494 9
 89 11 12 14 14 59.0800000  0  4G13G 6G 3G 9
  20511834.121    20511836.549   -78407412.249 9  99065069.291 8
  24152581.477    24152584.676    11730705.599 9   7966767.432 9
  22844418.177    22844420.255   -82854441.793 9  93080641.393 8
  21203011.895    21203012.925   -72876060.789 9 101064796.071 8
 89 11 12 14 15 29.0800000  0  4G13G 6G 3G 9
  20513736.910    20513738.253   -78397414.992 9  99072859.325 9
  24175726.150    24175730.308    11852333.111 9   8061541.853 9
  22831819.426    22831820.640   -82920653.592 9  93029047.766 9
  21217468.470    21217471.004   -72800088.111 9 101123995.492 9
 89 11 12 14 15 59.0800000  0  4G13G 6G 3G 9
  20515704.036    20515706.372   -78387074.507 9  99080916.810 8
  24198903.500    24198907.200    11974128.688 9   8156447.229 9
  22819272.325    22819272.168   -82986591.848 9  92977667.292 9
  21232026.727    21232028.258   -72723586.860 9 101183606.787 8
 89 11 12 14 16 29.0800000  0  4G13G12G 3G 9
  20517738.170    20517739.930   -78376391.275 9  99089241.375 8
                  20651227.269   -91300633.313 9
  22806776.017    22806778.210   -83052255.286 9  92926500.942 9
  21246684.361    21246686.401   -72646558.056 8 101243629.152 9
 89 11 12 14 16 59.0800000  0  4G13G12G 3G 9
  20519835.307    20519837.093   -78365366.787 9  99097831.851 8
  20645986.237    20645987.892   -91328346.456 8 115931860.457 9
  22794332.821    22794333.813   -83117644.366 9  92875548.380 9
  21261443.346    21261444.042   -72569004.298 9 101304060.586 9
 89 11 12 14 17 29.0800000  0  4G13G12G 3G 9
  20521997.628    20521998.432   -78354003.943 9  99106685.963 8
  20640823.214    20640825.742   -91355477.301 9 115910719.498 8
  22781941.410    22781943.348   -83182759.347 9  92824809.407 8
  21276300.349    21276301.589   -72490928.386 9 101364898.880 9
 89 11 12 14 17 59.0800000  0  4G13G12G 3G 9
  20524223.262    20524226.201   -78342303.116 9  99115803.463 8
  20635772.803    20635773.127   -91382023.556 9 115890034.065 9
  22769604.375    22769605.771   -83247598.859 9  92774285.088 9
  21291257.231    21291258.113   -72412331.292 9 101426143.295 9
 89 11 12 14 18 29.0800000  0  4G13G12G 3G 9
  20526514.930    20526516.719   -78330267.011 9  99125182.214 8
  20630831.737    20630833.429   -91407984.511 9 115869804.705 8
  22757317.679    22757317.922   -83312164.302 9  92723974.321 8
  21306312.387    21306313.599   -72333216.331 8 101487791.234 8
 89 11 12 14 18 59.0800000  0  4G13G12G 3G 9
  20528869.450    20528870.004   -78317896.456 9  99134821.574 8
  20626003.674    20626005.160   -91433357.914 9 115850033.188 9
  22745082.894    22745085.072   -83376454.834 9  92673877.776 9
  21321465.076    21321467.331   -72253585.186 9 101549841.404 9
 89 11 12 14 19 29.0800000  0  4G13G12G 3G 9
  20531286.441    20531287.297   -78305193.421 9  99144719.994 9
  20621287.046    20621289.238   -91458142.434 9 115830720.534 9
  22732900.241    22732901.953   -83440470.464 9  92623995.434 9
  21336716.841    21336718.397   -72173440.221 9 101612291.951 9
 89 11 12 14 19 59.0800000  0  4G13G12G 3G 9
  20533766.666    20533767.203   -78292160.520 9  99154875.457 8
  20616683.104    20616684.543   -91482337.332 9 115811867.330 9
  22720771.497    22720773.209   -83504212.008 9  92574326.676 8
  21352064.875    21352066.133   -72092784.676 9 101675140.346 9
 89 11 12 14 20 29.0800000  0  4G13G12G 3G 9
  20536308.902    20536309.775   -78278797.972 9  99165287.801 8
  20612190.391    20612192.970   -91505939.638 9 115793475.892 9
  22708694.374    22708695.713   -83567678.671 9  92524872.107 9
  21367509.989    21367511.844   -72011619.816 9 101738385.613 8
 89 11 12 14 20 59.0800000  0  4G13G12G 3G 9
  20538915.019    20538916.092   -78265106.586 9  99175956.373 8
  20607812.724    20607815.390   -91528947.241 8 115775547.838 9
  22696669.570    22696671.090   -83630869.412 8  92475632.549 9
  21383051.630    21383052.841   -71929947.217 9 101802026.503 8
 89 11 12 14 21 29.0800000  0  4G13G12G 3G 9
  20541582.237    20541583.469   -78251089.993 9  99186878.341 7
  20603548.014    20603550.421   -91551360.598 9 115758082.852 9
  22684697.084    22684698.574   -83693785.921 9  92426606.670 9
  21398689.630    21398691.341   -71847770.827 9 101866059.962 9
 89 11 12 14 21 59.0800000  0  4G13G12G 3G 9
  20544310.333    20544312.101   -78236750.587 9  99198051.864 8
  20599396.753    20599398.732   -91573178.501 9 115741081.833 9
  22672776.358    22672777.321   -83756428.933 8  92377793.896 9
  21414422.956    21414424.354   -71765093.539 9 101930483.744 8
 89 11 12 14 22 29.0800000  0  4G13G12G 3G 9
  20547100.055    20547101.883   -78222088.999 9  99209476.436 8
  20595358.820    20595360.350   -91594399.008 9 115724546.326 9
  22660908.134    22660909.532   -83818797.664 9  92329194.855 9
  21430251.323    21430252.564   -71681917.358 9 101995296.263 8
 89 11 12 14 22 59.0800000  0  4G13G12G 3G 9
  20549952.597    20549953.026   -78207106.331 9  99221151.201 8
  20591434.348    20591436.423   -91615019.930 9 115708478.044 9
  22649092.017    22649093.129   -83880891.595 9  92280809.943 9
  21446172.987    21446175.171   -71598243.544 9 102060496.554 9
 89 11 12 14 23 29.0800000  0  4G13G12G 3G 9
  20552863.792    20552865.450   -78191804.143 9  99233074.944 7
  20587624.830    20587626.120   -91635039.534 9 115692878.292 9
  22637328.488    22637329.849   -83942710.312 9  92232639.476 8
  21462190.296    21462191.720   -71514074.492 9 102126082.732 9
 89 11 12 14 23 59.0800000  0  4G13G12G 3G 9
  20555835.969    20555836.762   -78176184.151 9  99245246.319 8
  20583930.033    20583931.572   -91654456.819 9 115677747.908 9
  22625617.092    22625618.674   -84004254.128 9  92184683.223 9
  21478300.926    21478301.967   -71429413.035 9 102192052.627 8
 89 11 12 14 24 29.0800000  0  4G13G12G 3G 9
  20558868.506    20558869.407   -78160250.325 9  99257662.240 9
  20580350.136    20580351.942   -91673272.074 9 115663086.635 8
  22613958.132    22613959.287   -84065525.048 9  92136939.611 9
  21494504.225    21494506.422   -71344263.153 9 102258403.096 9
 89 11 12 14 24 59.0800000  0  4G13G12G 3G 9
  20561960.030    20561960.741   -78144003.471 9  99270322.080 7
  20576883.358    20576885.534   -91691483.661 8 115648895.728 9
  22602350.271    22602351.561   -84126522.272 9  92089409.263 9
  21510800.018    21510802.146   -71258626.960 9 102325132.504 7
 89 11 12 14 25 29.0800000  0  4G13G12G 3G 9
  20565111.676    20565113.346   -78127442.884 9  99283226.388 8
  20573534.833    20573536.738   -91709087.668 9 115635178.285 9
  22590795.104    22590796.406   -84187243.900 9  92042093.671 9
  21527188.849    21527191.290   -71172504.548 9 102392240.788 9
 89 11 12 14 25 59.0800000  0  4G13G12G 3G 9
  20568321.566    20568322.767   -78110571.002 9  99296373.257 8
  20570299.679    20570301.022   -91726083.647 9 115621934.613 8
  22579292.924    22579294.664   -84247690.867 9  91994992.098 9
  21543669.803    21543670.727   -71085899.490 8 102459725.160 9
 89 11 12 14 26 29.0800000  0  4G13G12G 3G 9
  20571591.437    20571593.755   -78093391.367 9  99309759.936 8
  20567180.842    20567183.227   -91742471.902 9 115609164.499 8
  22567841.641    22567843.252   -84307864.505 9  91948103.520 8
  21560240.931    21560242.272   -70998815.558 9 102527582.677 9
 89 11 12 14 26 59.0800000  0  4G13G12G 3G 9
  20574919.062    20574921.651   -78075904.993 9  99323385.625 8
  20564179.234    20564180.808   -91758250.618 9 115596869.340 9
  22556443.938    22556445.180   -84367764.409 9  91901428.229 8
  21576904.241    21576904.196   -70911254.698 8 102595811.820 8
 89 11 12 14 27 29.0800000  0  4G13G12G 3G 9
  20578305.087    20578306.634   -78058113.223 9  99337249.303 9
  20561292.052    20561294.341   -91773418.313 9 115585050.313 8
  22545096.647    22545099.053   -84427390.691 9  91854966.161 9
  21593656.413    21593657.951   -70823219.334 9 102664410.715 9
 89 11 12 14 27 59.0800000  0  4G13G12G 3G 9
  20581747.746    20581749.831   -78040018.326 9  99351349.162 8
  20558522.218    20558524.702   -91787974.362 9 115573707.893 9
  22533802.565    22533804.414   -84486743.895 9  91808716.870 9
  21610498.415    21610500.155   -70734712.484 9 102733376.992 9
 89 11 12 14 28 29.0800000  0  4G13G12G 3G 9
  20585248.406    20585251.025   -78021621.166 9  99365684.555 8
  20555870.022    20555871.930   -91801916.916 9 115562843.513 9
  22522560.291    22522561.852   -84545823.164 9  91762681.034 9
  21627430.108    21627432.105   -70645735.952 9 102802709.263 8
 89 11 12 14 28 59.0800000  0  4G13G12G 3G 9
  20588806.636    20588809.067   -78002923.922 9  99380253.794 9
  20553332.511    20553335.126   -91815245.824 9 115552457.285 9
  22511369.735    22511370.997   -84604629.445 9  91716857.920 9
  21644450.891    21644452.501   -70556293.087 9 102872404.901 9
 89 11 12 14 29 29.0800000  0  4G13G12G 3G 9
  20592419.785    20592422.710   -77983929.430 9  99395054.629 8
  20550913.434    20550915.062   -91827960.314 9 115542549.838 8
  22500231.517    22500233.065   -84663163.687 9  91671246.770 8
  21661559.731    21661561.100   -70466387.010 9 102942461.474 8
 89 11 12 14 29 59.0800000  0  4G13G12G 3G 9
  20596092.366    20596094.392   -77964637.533 9  99410087.235 8
  20548611.212    20548614.173   -91840058.010 9 115533123.011 9
  22489144.660    22489145.565   -84721424.456 9  91625848.719 8
  21678756.402    21678757.328   -70376019.154 9 103012877.893 9
 89 11 12 14 30 29.0800000  0  4G13G12G 3G 9
  20599819.302    20599821.029   -77945050.675 9  99425349.657 8
  20546426.915    20546429.003   -91851538.268 9 115524177.304 8
  22478109.876    22478110.915   -84779412.279 9  91580663.352 7
  21696039.501    21696041.398   -70285192.690 9 103083651.656 9
 89 11 12 14 30 59.0800000  0  4G13G12G 3G 9
  20603602.327    20603603.987   -77925171.070 8  99440840.201 9
  20544359.766    20544362.046   -91862400.228 9 115515713.374 9
  22467127.081    22467128.595   -84837127.902 9  91535690.101 8
  21713410.112    21713412.283   -70193910.273 9 103154780.708 9
 89 11 12 14 31 29.0800000  0  4G13G12G 3G 9
  20607441.498    20607442.881   -77904998.957 9  99456558.678 9
  20542411.525    20542413.461   -91872641.816 9 115507732.872 9
  22456195.122    22456197.208   -84894570.408 9  91490929.640 9
  21730867.726    21730868.665   -70102173.825 9 103226263.553 9
 89 11 12 14 31 59.0800000  0  4G13G12G 3G 9
  20611335.125    20611337.035   -77884537.111 9  99472502.909 8
  20540580.024    20540582.275   -91882263.055 9 115500235.743 9
  22445317.338    22445319.087   -84951741.071 9  91446381.032 8
  21748410.308    21748411.822   -70009986.879 9 103298097.434 9
 89 11 12 14 32 29.0800000  0  4G13G12G 3G 9
  20615283.502    20615285.435   -77863788.172 9  99488670.857 8
  20538868.131    20538869.576   -91891263.677 9 115493222.219 8
  22434488.612    22434490.781   -85008640.521 9  91402043.752 9
  21766037.601    21766038.653   -69917352.826 9 103370279.702 8
 89 11 12 14 32 59.0800000  0  4G13G12G 3G 9
  20619287.406    20619288.775   -77842752.879 9  99505061.935 8
  20537273.144    20537274.864   -91899641.996 9 115486693.606 8
  22423713.302    22423714.757   -85065268.210 8  91357918.237 8
  21783749.744    21783751.916   -69824273.377 9 103442809.032 9
 89 11 12 14 33 29.0800000  0  4G13G12G 3G 9
  20623344.598    20623346.266   -77821433.581 9  99521674.310 8
  20535797.879    20535799.650   -91907397.292 9 115480650.471 9
  22412988.248    22412990.224   -85121624.851 9  91314003.921 9
  21801546.200    21801548.699   -69730752.062 9 103515682.684 9
 89 11 12 14 33 59.0800000  0  4G13G12G 3G 9
  20627454.458    20627456.945   -77799832.010 9  99538506.631 8
  20534441.048    20534442.253   -91914528.813 9 115475093.377 8
  22402317.095    22402316.969   -85177710.179 9  91270301.018 8
  21819426.536    21819428.806   -69636790.968 9 103588899.001 9
 89 11 12 14 34 29.0800000  0  4G13G12G 3G 9
  20631618.539    20631620.491   -77777949.008 9  99555558.248 8
  20533201.273    20533204.696   -91921035.886 9 115470022.869 9
  22391695.345    22391697.400   -85233524.765 9  91226809.079 9
  21837391.238    21837392.894   -69542393.127 9 103662455.656 9
 89 11 12 14 34 59.0800000  0  4G13G12G 3G 9
  20635836.691    20635837.631   -77755786.850 9  99572827.397 8
  20532083.503    20532085.294   -91926917.921 9 115465439.418 8
  22381125.200    22381127.814   -85289069.132 9  91183527.707 9
  21855437.273    21855437.828   -69447561.503 9 103736350.310 9
 89 11 12 14 35 29.0800000  0  4G13G12G 3G 9
  20640106.546    20640107.269   -77733347.410 9  99590312.625 8
  20531083.074    20531085.020   -91932174.031 9 115461343.684 8
  22370607.528    22370608.553   -85344343.364 9  91140456.823 8
  21873564.473    21873565.856   -69352298.767 9 103810580.901 9
 89 11 12 14 35 59.0800000  0  4G13G12G 3G 9
  20644428.962    20644430.419   -77710631.153 9  99608013.518 8
  20530202.287    20530203.758   -91936802.635 9 115457736.912 8
  22360139.788    22360144.155   -85399346.856 9  91097596.898 8
  21891774.090    21891775.989   -69256607.175 9 103885145.669 8
 89 11 12 14 36 29.0800000  0  4G13G12G 3G 9
  20648803.713    20648806.894   -77687640.722 9  99625928.066 8
  20529440.227    20529443.300   -91940803.301 9 115454619.438 8
  22349725.794    22349727.032   -85454079.935 9  91054947.699 8
  21910064.987    21910066.827   -69160489.271 9 103960042.620 9
 89 11 12 14 36 59.0800000  0  4G13G12G 3G 9
  20653230.454    20653232.601   -77664378.868 9  99644054.121 8
  20528800.156    20528801.692   -91944176.121 9 115451991.215 9
  22339360.856    22339363.142   -85508544.243 9  91012507.924 8
  21928435.868    21928437.481   -69063949.268 9 104035268.477 9
 89 11 12 14 37 29.0800000  0  4G13G12G 3G 9
  20657708.510    20657711.104   -77640845.757 9  99662391.548 8
  20528276.938    20528279.352   -91946919.999 9 115449853.062 9
  22329048.021    22329049.482   -85562739.406 9  90970277.876 9
  21946886.226    21946889.467   -68966989.415 9 104110821.491 8
 89 11 12 14 37 59.0800000  0  4G13G12G 3G 9
  20662237.733    20662240.147   -77617044.154 9  99680938.179 8
  20527874.268    20527877.276   -91949034.569 9 115448205.288 9
  22318785.953    22318788.325   -85616666.258 9  90928256.897 9
  21965416.399    21965418.626   -68869613.089 9 104186699.021 9
 89 11 12 14 38 29.0800000  0  4G13G12G 3G 9
  20666818.269    20666819.162   -77592974.340 9  99699693.817 8
  20527592.384    20527595.251   -91950517.919 9 115447049.367 9
  22308575.056    22308576.724   -85670323.549 9  90886445.971 8
  21984026.102    21984028.158   -68771821.613 9 104262900.070 9
 89 11 12 14 38 59.0800000  0  4G13G12G 3G 9
  20671449.757    20671451.518   -77568638.862 9  99718656.453 8
  20527431.452    20527433.496   -91951370.169 9 115446385.215 9
  22298415.515    22298417.434   -85723712.240 9  90844844.334 8
  22002713.103    22002715.876   -68673618.606 9 104339421.774 9
 89 11 12 14 39 29.0800000  0  4G13G12G 3G 9
  20676130.876    20676132.627   -77544039.869 9  99737824.438 8
  20527387.937    20527390.753   -91951591.484 9 115446212.700 9
  22288307.227    22288309.419   -85776833.555 9  90803451.065 8
  22021478.922    22021481.293   -68575007.704 9 104416261.320 9
 89 11 12 14 39 59.0800000  0  4G13G12G 3G 9
  20680862.147    20680862.854   -77519179.454 9  99757196.118 9
  20527465.981    20527469.068   -91951181.166 9 115446532.377 9
  22278249.524    22278251.980   -85829687.565 9  90762266.065 8
  22040321.551    22040323.219   -68475991.504 9 104493416.676 9
 89 11 12 14 40 29.0800000  0  4G13G12G 3G 9
  20685641.540    20685643.919   -77494059.238 9  99776770.234 8
  20527664.369    20527667.094   -91950139.130 9 115447344.283 9
  22268242.233    22268244.273   -85882275.009 9  90721288.788 9
  22059239.703    22059241.570   -68376573.360 9 104570885.225 9
 89 11 12 14 40 59.0800000  0  4G13G12G 3G 9
  20690471.963    20690473.010   -77468678.978 9  99796546.989 7
  20527983.438    20527986.240   -91948463.343 9 115448650.028 8
  22258286.890    22258287.994   -85934594.806 9  90680520.060 9
  22078233.836    22078237.079   -68276754.833 9 104648665.775 9
 89 11 12 14 41 29.0800000  0  4G13G12G 3G 9
  20695350.169    20695352.367   -77443040.575 9  99816524.888 9
  20528423.832    20528426.066   -91946152.916 9 115450450.304 9
  22248381.693    22248382.805   -85986646.944 9  90639959.889 9
  22097305.614    22097306.524   -68176538.272 9 104726756.463 9
 89 11 12 14 41 59.0800000  0  4G13G12G 3G 9
  20700278.619    20700280.514   -77417147.310 9  99836701.380 8
  20528984.134    20528986.029   -91943208.940 9 115452744.243 8
  22238526.873    22238529.085   -86038432.905 9  90599607.137 9
  22116451.024    22116453.153   -68075927.879 9 104805154.041 9
 89 11 12 14 42 29.0800000  0  4G13G12G 3G 9
  20705253.298    20705255.264   -77391000.478 9  99857075.463 8
  20529664.652    20529666.452   -91939631.489 9 115455531.802 9
  22228723.093    22228725.182   -86089953.388 9  90559461.252 8
  22135670.873    22135673.573   -67974926.861 8 104883855.993 8
 89 11 12 14 42 59.0800000  0  4G13G12G 3G 9
  20710276.806    20710278.752   -77364603.164 9  99877644.725 9
  20530465.504    20530467.605   -91935421.353 9 115458812.366 8
  22218968.574    22218971.552   -86141210.032 9  90519520.949 8
  22154964.184    22154966.640   -67873539.425 8 104962859.068 9
 89 11 12 14 43 29.0800000  0  4G13G12G 3G 9
  20715347.636    20715348.821   -77337955.482 9  99898409.077 8
  20531387.339    20531389.883   -91930576.412 9 115462587.573 8
  22209266.282    22209268.172   -86192201.372 9  90479787.371 8
  22174331.016    22174334.059   -67771766.829 9 105042162.250 8
 89 11 12 14 43 59.0800000  0  4G13G12G 3G 9
  20720465.863    20720467.465   -77311058.327 9  99919367.829 8
  20532430.555    20532433.792   -91925095.368 8 115466858.451 8
  22199613.129    22199614.426   -86242926.808 9  90440260.999 8
  22193769.709    22193773.324   -67669611.012 9 105121764.044 8
 89 11 12 14 44 29.0800000  0  4G13G12G 3G 9
  20725631.569    20725633.120   -77283915.115 9  99940518.308 8
  20533594.551    20533596.045   -91918979.773 9 115471623.779 8
  22190010.809    22190013.143   -86293388.632 9  90400940.032 8
  22213283.180    22213285.979   -67567077.025 8 105201660.514 9
 89 11 12 14 44 59.0800000  0  4G13G12G 3G 9
  20730842.693    20730845.558   -77256526.734 9  99961859.822 8
  20534878.791    20534882.148   -91912228.539 9 115476884.404 9
  22180458.469    22180460.797   -86343586.326 9  90361824.878 8
  22232865.079    22232867.507   -67464166.768 9 105281850.201 8
 89 11 12 14 45 29.0800000  0  4G13G12G 3G 9
  20736101.290    20736104.027   -77228894.851 9  99983391.088 9
  20536285.347    20536287.278   -91904841.562 9 115482640.421 9
  22170956.298    22170958.634   -86393520.658 9  90322914.940 9
  22252520.442    22252522.369   -67360883.523 9 105362330.518 9
 89 11 12 14 45 59.0800000  0  4G13G12G 3G 9
  20741405.845    20741408.351   -77201020.694 9 100005111.136 8
  20537812.035    20537813.853   -91896818.497 9 115488892.095 9
  22161504.209    22161505.464   -86443192.227 9  90284209.764 8
  22272244.003    22272247.903   -67257230.319 9 105443099.099 9
 89 11 12 14 46 29.0800000  0  4G13G12G 3G 9
  20746755.747    20746757.053   -77172906.605 9 100027018.125 8
  20539459.798    20539462.354   -91888160.077 9 115495638.835 9
  22152101.703    22152103.550   -86492601.600 9  90245708.892 9
  22292039.108    22292041.206   -67153210.691 9 105524153.209 9
 89 11 12 14 46 59.0800000  0  4G13G12G 3G 9
  20752150.918    20752153.213   -77144554.889 8 100049110.294 8
  20541228.123    20541230.715   -91878865.876 9 115502881.010 9
  22142749.543    22142750.585   -86541749.123 9  90207412.063 8
  22311903.271    22311906.170   -67048827.480 9 105605490.634 9
 89 11 12 14 47 29.0800000  0  4G13G12G 3G 9
  20757590.604    20757594.043   -77115964.944 9 100071388.092 9
  20543118.301    20543120.953   -91868934.322 9 115510619.812 9
  22133447.001    22133449.107   -86590633.398 9  90169320.373 9
  22331835.486    22331836.998   -66944082.277 9 105687110.140 9
 89 11 12 14 47 59.0800000  0  4G13G12G 3G 9
  20763076.512    20763078.372   -77087139.184 9 100093849.650 8
  20545130.036    20545131.480   -91858366.066 9 115518854.743 8
  22124195.276    22124196.903   -86639255.959 9  90131432.598 8
  22351835.043    22351838.575   -66838978.484 9 105769009.057 8
 89 11 12 14 48 29.0800000  0  4G13G12G 3G 9
  20768606.203    20768609.189   -77058081.130 9 100116492.203 8
  20547261.484    20547263.568   -91847162.524 9 115527584.709 9
  22114991.511    22114993.574   -86687618.838 9  90093747.193 8
  22371903.713    22371906.070   -66733521.047 9 105851183.557 9
 89 11 12 14 48 59.0800000  0  4G13G12G 3G 9
  20774180.439    20774182.121   -77028791.268 9 100139315.399 8
  20549514.141    20549516.766   -91835322.872 9 115536810.323 9
  22105838.492    22105840.303   -86735721.244 9  90056264.736 8
  22392038.576    22392041.420   -66627711.753 9 105933632.203 8
 89 11 12 14 49 29.0800000  0  4G13G12G 3G 9
  20779797.286    20779799.628   -76999271.947 9 100162317.381 8
  20551887.975    20551890.912   -91822847.469 9 115546531.357 9
  22096734.180    22096736.295   -86783564.487 9  90018984.224 9
  22412239.721    22412242.417   -66521554.338 9 106016352.134 8
 89 11 12 14 49 59.0800000  0  4G13G12G 3G 9
  20785458.871    20785460.946   -76969525.084 9 100185496.667 8
  20554382.430    20554386.164   -91809736.520 9 115556747.595 9
  22087678.443    22087680.637   -86831148.813 9  89981905.473 9
  22432506.714    22432509.128   -66415051.998 9 106099340.818 8
 89 11 12 14 50 29.0800000  0  4G13G12G 3G 9
  20791162.497    20791165.714   -76939550.358 9 100208853.499 9
  20556999.598    20557002.066   -91795988.728 9 115567460.078 8
  22078673.424    22078675.601   -86878473.078 9  89945029.371 8
  22452838.787    22452841.701   -66308206.090 9 106182597.238 9
 89 11 12 14 50 59.0800000  0  4G13G12G 3G 9
  20796909.349    20796912.134   -76909349.851 9 100232386.284 8
  20559736.507    20559739.833   -91781604.988 9 115578668.124 9
  22069716.586    22069719.548   -86925538.592 9  89908354.881 9
  22473236.024    22473238.381   -66201020.357 9 106266118.446 8
 89 11 12 14 51 29.0800000  0  4G13G12G 3G 9
  20802699.191    20802701.433   -76878926.235 9 100256092.905 8
  20562594.387    20562597.045   -91766586.204 9 115590370.988 8
  22060809.605    22060812.835   -86972346.701 9  89871880.978 9
  22493696.822    22493698.419   -66093499.050 9 106349901.139 8
 89 11 12 14 51 59.0800000  0  4G13G12G 3G 9
  20808530.371    20808533.463   -76848281.243 9 100279972.025 9
  20565572.619    20565575.881   -91750932.697 9 115602568.451 9
  22051951.671    22051953.654   -87018898.050 9  89835607.136 8
  22514220.409    22514222.952   -65985645.021 9 106433943.084 9
 89 11 12 14 52 29.0800000  0  4G13G12G 3G 9
  20814404.676    20814407.436   -76817414.915 9 100304023.604 7
  20568673.319    20568676.610   -91734642.847 9 115615261.751 8
  22043142.143    22043143.841   -87065191.327 9  89799534.379 9
  22534807.872    22534810.887   -65877460.127 9 106518242.857 9
 89 11 12 14 52 59.0800000  0  4G13G12G 3G 9
  20820319.581    20820321.985   -76786330.148 9 100328245.419 8
  20571894.302    20571897.106   -91717717.879 9 115628449.963 8
  22034381.868    22034383.738   -87111228.240 9  89763661.395 8
  22555456.722    22555460.123   -65768948.210 9 106602797.434 8
 89 11 12 14 53 29.0800000  0  4G13G12G 3G 9
  20826276.128    20826278.730   -76755028.241 9 100352636.423 8
  20575236.066    20575238.696   -91700157.766 9 115642133.098 9
  22025670.130    22025671.749   -87157008.967 9  89727988.033 8
  22576168.018    22576170.486   -65660112.350 9 106687604.429 9
 89 11 12 14 53 59.0800000  0  4G13G12G 3G 9
  20832273.839    20832275.562   -76723511.371 9 100377194.926 9
  20578698.606    20578700.776   -91681963.332 9 115656310.496 9
  22017006.465    22017009.473   -87202534.748 9  89692513.333 8
  22596939.041    22596941.954   -65550956.095 9 106772661.090 9
 89 11 12 14 54 29.0800000  0  4G13G12G 3G 9
  20838311.439    20838314.033   -76691781.232 9 100401919.613 8
  20582280.874    20582284.497   -91663134.677 9 115670982.097 9
  22008392.043    22008393.836   -87247805.533 9  89657237.338 9
  22617772.306    22617774.992   -65441482.462 9 106857965.059 9
 89 11 12 14 54 59.0800000  0  4G13G12G 3G 9
  20844390.139    20844393.510   -76659838.281 9 100426810.136 8
  20585985.199    20585987.614   -91643672.165 9 115686147.621 9
  21999826.130    21999827.363   -87292821.962 9  89622159.537 8
  22638663.554    22638667.241   -65331694.192 9 106943514.204 9
 89 11 12 14 55 29.0800000  0  4G13G12G 3G 9
  20850508.864    20850512.305   -76627684.519 9 100451864.924 8
  20589809.125    20589812.076   -91623576.216 9 115701806.723 9
  21991307.474    21991309.472   -87337584.604 9  89587279.490 9
  22659616.329    22659618.388   -65221594.813 8 107029305.759 9
 89 11 12 14 55 59.0800000  0  4G13G12G 3G 9
  20856667.571    20856669.513   -76595321.714 8 100477082.599 8
  20593754.148    20593757.050   -91602847.096 9 115717959.211 9
  21982837.748    21982841.111   -87382093.896 9  89552596.857 8
  22680625.857    22680628.885   -65111187.096 9 107115337.578 9
 89 11 12 14 56 29.0800000  0  4G13G12G 3G 9
  20862865.876    20862868.529   -76562751.551 9 100502461.850 8
  20597818.234    20597822.088   -91581485.286 8 115734604.708 9
  21974415.838    21974418.001   -87426350.235 9  89518111.354 9
  22701693.394    22701696.538   -65000474.280 8 107201607.146 9
 89 11 12 14 56 59.0800000  0  4G13G12G 3G 9
  20869102.955    20869105.018   -76529975.955 9 100528001.182 7
  20602004.540    20602007.682   -91559491.854 9 115751742.358 8
  21966042.110    21966044.767   -87470354.677 9  89483822.132 9
  22722819.126    22722822.410   -64889459.932 9 107288111.655 9
 89 11 12 14 57 29.0800000  0  4G13G12G 3G 9
  20875378.650    20875380.628   -76496996.371 9 100553699.473 8
  20606309.198    20606313.390   -91536867.293 9 115769371.807 9
  21957717.000    21957718.198   -87514107.658 9  89449728.842 8
  22744001.105    22744004.375   -64778147.287 9 107374848.613 9
 89 11 12 14 57 59.0800000  0  4G13G12G 3G 9
  20881693.384    20881695.588   -76463813.601 9 100579556.090 8
  20610735.124    20610737.942   -91513611.090 9 115787493.446 8
  21949439.216    21949441.916   -87557608.961 9  89415831.662 9
  22765239.761    22765243.131   -64666538.479 9 107461816.340 9
 89 11 12 14 58 29.0800000  0  4G13G12G 3G 9
  20888045.360    20888048.895   -76430430.324 9 100605568.929 8
  20615280.720    20615284.058   -91489724.902 9 115806105.979 9
  21941208.010    21941210.754   -87600860.208 9  89382129.326 8
  22786533.560    22786537.290   -64554637.828 8 107549011.474 8
 89 11 12 14 58 59.0800000  0  4G13G12G 3G 9
  20894436.905    20894439.180   -76396847.193 9 100631737.517 8
  20619945.908    20619949.134   -91465208.647 9 115825209.468 9
  21933026.071    21933027.561   -87643861.711 8  89348621.613 8
  22807882.519    22807886.311   -64442448.170 9 107636431.807 9
 89 11 12 14 59 29.0800000  0  4G13G12G 3G 9
  20900865.351    20900868.558   -76363066.102 9 100658060.359 7
  20624731.098    20624735.036   -91440062.957 9 115844803.435 9
  21924890.248    21924892.255   -87686613.530 9  89315308.441 9
  22829286.761    22829289.982   -64329972.564 9 107724074.950 9
 89 11 12 14 59 59.0800000  0  4G13G12G 3G 9
  20907330.416    20907332.764   -76329088.513 9 100684536.309 7
  20629635.965    20629638.892   -91414288.692 9 115864887.197 8
  21916802.957    21916803.784   -87729116.630 9  89282189.071 9
  22850744.274    22850747.333   -64217214.212 8 107811938.423 9
 89 11 12 15  0 29.0800000  0  4G13G12G 3G 9
  20913833.355    20913836.890   -76294915.947 9 100711164.191 8
  20634660.621    20634663.246   -91387886.198 9 115885460.486 9
  21908761.862    21908764.212   -87771371.160 9  89249263.402 8
  22872254.420    22872257.878   -64104176.038 8 107900019.920 9
 89 11 12 15  0 59.0800000  0  4G13G12G 3G 9
  20920374.001    20920376.793   -76260549.571 9 100737943.095 8
  20639804.553    20639806.895   -91360856.497 9 115906522.519 9
  21900768.274    21900770.138   -87813378.050 9  89216530.697 8
  22893817.563    22893821.058   -63990861.498 9 107988316.784 9
 89 11 12 15  1 29.0800000  0  4G13G12G 3G 9
  20926950.333    20926952.923   -76225990.440 9 100764872.191 8
  20645066.984    20645070.579   -91333199.436 9 115928073.393 9
  21892821.614    21892824.220   -87855137.156 9  89183991.070 8
  22915432.592    22915437.803   -63877272.679 9 108076827.352 8
 89 11 12 15  1 59.0800000  0  4G13G12G 3G 9
  20933562.566    20933565.316   -76191241.046 9 100791949.544 8
  20650449.612    20650451.795   -91304916.371 9 115950112.072 9
  21884921.272    21884924.264   -87896649.432 9  89151643.794 9
  22937099.505    22937103.689   -63763413.927 9 108165548.265 8
 89 11 12 15  2 29.0800000  0  4G13G12G 3G 9
  20940211.574    20940213.938   -76156303.837 9 100819173.250 7
  20655950.175    20655953.443   -91276009.390 9 115972636.901 9
  21877069.001    21877072.067   -87937916.938 9  89119487.238 9
  22958817.012    22958821.400   -63649289.295 9 108254476.353 8
 89 11 12 15  2 59.0800000  0  4G13G12G 3G 9
  20946894.997    20946897.848   -76121180.047 9 100846542.346 8
  20661569.435    20661572.962   -91246478.871 9 115995647.612 9
  21869262.855    21869265.326   -87978939.684 9  89087521.393 9
  22980584.486    22980588.247   -63534901.563 9 108343609.450 9
 89 11 12 15  3 29.0800000  0  4G13G12G 3G 9
  20953614.752    20953617.270   -76085870.224 9 100874056.398 8
  20667307.160    20667311.176   -91216324.872 9 116019144.148 9
  21861503.182    21861506.271   -88019717.377 9  89055746.499 8
  23002401.569    23002404.873   -63420253.148 9 108432945.655 9
 89 11 12 15  3 59.0800000  0  4G13G12G 3G 9
  20960368.488    20960371.611   -76050375.257 9 100901714.713 7
  20673164.292    20673167.795   -91185547.992 9 116043126.049 9
  21853789.480    21853791.993   -88060250.485 9  89024162.207 9
  23024266.591    23024271.449   -63305346.968 9 108522482.724 9
 89 11 12 15  4 29.0800000  0  4G13G12G 3G 9
  20967158.342    20967162.265   -76014697.970 9 100929515.097 8
  20679138.701    20679141.462   -91154149.637 9 116067592.219 9
  21846122.930    21846126.216   -88100539.809 9  88992767.858 8
  23046181.896    23046186.057   -63190186.764 9 108612217.747 8
 89 11 12 15  4 59.0800000  0  4G13G12G 3G 9
  20973982.125    20973984.370   -75978839.738 9 100957456.480 8
  20685232.158    20685234.691   -91122130.555 9 116092542.069 8
  21838502.218    21838506.390   -88140586.660 9  88961562.455 8
  23068143.579    23068147.967   -63074775.951 9 108702148.033 9
 89 11 12 15  5 29.0800000  0  4G13G12G 3G 9
  20980839.273    20980843.167   -75942801.456 9 100985538.153 8
  20691443.001    20691446.057   -91089491.932 9 116117974.678 9
  21830927.931    21830931.241   -88180391.505 9  88930545.622 8
  23090152.596    23090157.855   -62959118.037 9 108792270.870 9
 89 11 12 15  5 59.0800000  0  4G13G12G 3G 9
  20987732.012    20987734.274   -75906584.298 9 101013759.214 8
  20697772.319    20697775.848   -91056234.644 9 116143889.366 9
  21823399.493    21823401.198   -88219954.432 9  88899717.306 8
  23112208.364    23112212.717   -62843215.296 9 108882584.482 9
 89 11 12 15  6 29.0800000  0  4G13G12G 3G 9
  20994657.143    20994659.777   -75870189.944 9 101042118.356 8
  20704218.629    20704221.815   -91022359.638 9 116170285.389 9
  21815917.095    21815919.708   -88259276.181 9  88869076.907 8
  23134309.798    23134314.859   -62727071.399 9 108973085.986 8
 89 11 12 15  6 59.0800000  0  4G13G12G 3G 9
  21001616.061    21001619.053   -75833620.535 9 101070613.896 8
  20710781.999    20710784.856   -90987868.419 9 116197161.580 9
  21808480.219    21808482.805   -88298357.779 9  88838623.631 8
  23156456.078    23156461.120   -62610689.886 9 109063772.650 9
 89 11 12 15  7 29.0800000  0  4G13G12G 3G 9
  21008607.746    21008611.155   -75796876.907 9 101099245.198 8
  20717463.099    20717465.992   -90952761.736 9 116224517.354 8
  21801087.774    21801090.766   -88337199.452 9  88808357.324 8
  23178649.075    23178653.823   -62494073.477 9 109154642.358 9
 89 11 12 15  7 59.0800000  0  4G13G12G 3G 9
  21015633.746    21015636.854   -75759960.228 9 101128011.329 7
  20724260.356    20724263.850   -90917040.697 9 116252351.837 8
  21793743.086    21793746.065   -88375801.635 9  88778277.621 8
  23200885.834    23200888.435   -62377225.155 9 109245692.779 9
 89 11 12 15  8 29.0800000  0  4G13G12G 3G 9
  21022691.224    21022693.629   -75722873.428 9 101156910.024 7
  20731173.946    20731177.798   -90880707.263 9 116280663.525 9
  21786441.792    21786445.487   -88414166.283 9  88748383.021 8
  23223163.803    23223168.310   -62260149.629 9 109336920.230 8
 89 11 12 15  8 59.0800000  0  4G13G12G 3G 9
  21029780.225    21029783.978   -75685617.020 9 101185940.896 7
  20738204.855    20738207.792   -90843761.345 9 116309452.465 9
  21779187.124    21779189.359   -88452293.283 9  88718673.615 8
  23245485.624    23245489.359   -62142848.979 9 109428323.120 9
 89 11 12 15  9 29.0800000  0  4G13G12G 3G 9
  21036901.953    21036905.975   -75648191.089 9 101215103.851 7
  20745352.007    20745355.315   -90806203.177 9 116338718.487 9
  21771977.938    21771980.317   -88490181.789 9  88689150.034 9
  23267848.573    23267854.457   -62025325.438 9 109519899.677 9
 89 11 12 15  9 59.0800000  0  4G13G12G 3G 9
  21044055.633    21044058.225   -75610598.477 9 101244396.689 8
  20752614.919    20752618.750   -90768035.936 9 116368459.104 9
  21764812.400    21764814.928   -88527834.268 9  88659810.370 9
  23290254.029    23290260.003   -61907583.913 9 109611646.088 8
 89 11 12 15 10 29.0800000  0  4G13G12G 3G 9
  21051241.151    21051244.844   -75572841.716 9 101273817.447 8
  20759994.474    20759996.792   -90729261.356 9 116398672.981 9
  21757691.951    21757695.532   -88565251.462 9  88630654.054 8
  23312701.317    23312707.056   -61789627.804 9 109703559.717 9
 89 11 12 15 10 59.0800000  0  4G13G12G 3G 9
  21058458.175    21058460.655   -75534921.070 9 101303365.901 7
  20767487.890    20767491.822   -90689879.621 9 116429359.960 9
  21750616.971    21750619.400   -88602433.611 9  88601680.882 8
  23335188.073    23335192.511   -61671459.797 9 109795638.461 9
 89 11 12 15 11 29.0800000  0  4G13G12G 3G 9
  21065704.538    21065708.174   -75496837.160 9 101333041.569 8
  20775097.588    20775101.189   -90649891.463 9 116460519.480 9
  21743585.485    21743588.786   -88639380.462 9  88572891.067 8
  23357715.035    23357719.942   -61553082.248 8 109887880.495 8
 89 11 12 15 11 59.0800000  0  4G13G12G 3G 9
  21072982.893    21072985.428   -75458592.320 9 101362842.654 8
  20782822.293    20782825.298   -90609299.095 9 116492149.801 9
  21736599.764    21736601.576   -88676094.112 9  88544282.970 9
  23380280.574    23380285.415   -61434499.671 9 109980282.269 9
 89 11 12 15 12 29.0800000  0  4G13G12G 3G 9
  21080290.626    21080292.959   -75420187.320 9 101392768.522 7
  20790660.898    20790665.189   -90568103.260 9 116524250.382 8
  21729657.737    21729660.580   -88712574.408 9  88515856.708 9
  23402884.547    23402889.980   -61315714.545 9 110072841.891 9
 89 11 12 15 12 59.0800000  0  4G13G12G 3G 9
  21087629.396    21087631.917   -75381624.344 9 101422817.495 9
  20798615.282    20798619.001   -90526305.710 9 116556819.807 8
  21722759.990    21722762.397   -88748822.371 9  88487611.493 9
  23425527.008    23425532.332   -61196730.573 9 110165556.438 9
 89 11 12 15 13 29.0800000  0  4G13G12G 3G 9
  21094997.941    21095000.948   -75342903.812 9 101452989.241 7
  20806683.579    20806686.558   -90483907.512 9 116589857.274 9
  21715906.786    21715909.095   -88784837.791 9  88459547.467 8
  23448206.407    23448211.946   -61077550.074 9 110258424.136 9
 89 11 12 15 13 59.0800000  0  4G13G12G 3G 9
  21102395.291    21102399.313   -75304027.177 9 101483282.626 7
  20814866.034    20814868.885   -90440910.718 9 116623361.176 8
  21709097.235    21709099.625   -88820621.935 9  88431663.670 8
  23470922.258    23470927.370   -60958176.991 8 110351441.878 9
 89 11 12 15 14 29.0800000  0  4G13G12G 3G 9
  21109822.279    21109826.928   -75264995.793 9 101513696.592 7
  20823161.657    20823165.036   -90397316.543 9 116657330.580 9
  21702331.526    21702334.512   -88856175.538 9  88403959.514 8
  23493675.047    23493679.948   -60838614.629 9 110444607.110 8
 89 11 12 15 14 59.0800000  0  4G13G12G 3G 9
  21117279.841    21117283.304   -75225811.198 9 101544229.950 8
  20831570.748    20831573.444   -90353126.530 9 116691764.287 9
  21695609.558    21695611.939   -88891499.552 9  88376434.296 8
  23516462.383    23516467.464   -60718866.132 9 110537917.370 9
 89 11 12 15 15 29.0800000  0  4G13G12G 3G 9
  21124765.266    21124769.129   -75186474.701 9 101574881.665 8
  20840092.989    20840096.819   -90308341.245 9 116726661.797 9
  21688930.972    21688934.131   -88926593.776 9  88349088.041 8
  23539285.364    23539289.740   -60598934.102 9 110631370.676 9
 89 11 12 15 15 59.0800000  0  4G13G12G 3G 9
  21132279.408    21132282.399   -75146987.542 9 101605650.780 7
  20848727.770    20848731.628   -90262962.848 9 116762021.494 9
  21682296.486    21682299.514   -88961459.188 9  88321920.160 8
  23562141.024    23562147.493   -60478822.196 9 110724964.113 9
 89 11 12 15 16 29.0800000  0  4G13G12G 3G 9
  21139822.669    21139825.490   -75107351.847 9 101636535.628 8
  20857475.787    20857479.050   -90216993.987 9 116797841.286 9
  21675705.177    21675707.826   -88996097.520 9  88294929.193 8
  23585030.937    23585037.211   -60358534.475 8 110818694.532 9
 89 11 12 15 16 59.0800000  0  4G13G12G 3G 9
  21147392.805    21147395.395   -75067569.087 9 101667535.080 7
  20866335.217    20866339.060   -90170436.037 9 116834120.118 9
  21669157.106    21669159.762   -89030509.469 9  88268114.623 9
  23607954.352    23607960.451   -60238074.384 9 110912559.282 9
 89 11 12 15 17 29.0800000  0  4G13G12G 3G 9
  21154990.083    21154995.063   -75027638.633 9 101698649.617 8
  20875306.989    20875310.824   -90123289.195 9 116870857.818 9
  21662651.807    21662655.065   -89064694.105 9  88241477.160 8
  23630909.903    23630915.707   -60117443.419 9 111006557.161 9
 89 11 12 15 17 59.0800000  0  4G13G12G 3G 9
  21162617.238    21162622.033   -74987562.472 9 101729877.680 8
  20884390.151    20884394.932   -90075554.986 9 116908053.204 9
  21656189.941    21656193.219   -89098652.307 9  88215016.159 9
  23653897.612    23653903.245   -59996645.239 9 111100685.353 8
 89 11 12 15 18 29.0800000  0  4G13G12G 3G 9
  21170270.196    21170274.791   -74947342.139 9 101761218.085 8
  20893585.789    20893590.485   -90027235.428 9 116945704.713 8
  21649771.079    21649774.386   -89132385.292 9  88188730.642 9
  23676915.996    23676922.788   -59875683.407 9 111194941.082 8
 89 11 12 15 18 59.0800000  0  4G13G12G 3G 9
  21177952.142    21177955.505   -74906979.822 9 101792669.126 9
  20902891.419    20902895.015   -89978333.534 9 116983809.977 8
  21643394.501    21643397.273   -89165894.878 9  88162619.202 8
  23699964.920    23699970.299   -59754562.093 9 111289321.058 9
 89 11 12 15 19 29.0800000  0  4G13G12G 3G 9
  21185659.258    21185663.380   -74866476.405 9 101824230.109 7
  20912307.646    20912311.685   -89928850.564 9 117022368.050 8
  21637059.986    21637063.294   -89199181.099 9  88136681.811 8
  23723043.369    23723049.740   -59633284.375 9 111383822.919 9
 89 11 12 15 19 59.0800000  0  4G13G12G 3G 9
  21193393.548    21193397.871   -74825832.499 9 101855900.587 7
  20921834.650    20921839.049   -89878786.897 9 117061378.589 9
  21630769.298    21630772.592   -89232243.202 9  88110919.064 8
  23746152.098    23746157.181   -59511851.754 9 111478445.481 9
 89 11 12 15 20 29.0800000  0  4G13G12G 3G 9
  21201153.867    21201159.176   -74785049.248 9 101887679.606 8
  20931472.105    20931476.538   -89828145.194 9 117100839.549 9
  21624519.873    21624522.539   -89265083.005 9  88085329.519 9
  23769288.573    23769294.216   -59390268.481 8 111573185.423 9
 89 11 12 15 20 59.0800000  0  4G13G12G 3G 9
  21208942.070    21208945.721   -74744128.029 8 101919566.150 8
  20941218.853    20941222.827   -89776926.911 9 117140749.807 9
  21618313.081    21618315.530   -89297700.819 9  88059912.952 8
  23792453.144    23792458.646   -59268537.333 8 111668040.610 9
 89 11 12 15 21 29.0800000  0  4G13G12G 3G 9
  21216754.790    21216759.886   -74703070.587 9 101951558.842 8
  20951074.321    20951077.377   -89725135.103 9 117181106.966 9
  21612147.199    21612150.872   -89330098.180 9  88034668.183 8
  23815644.706    23815651.040   -59146662.711 8 111763007.603 9
 89 11 12 15 21 59.0800000  0  4G13G12G 3G 9
  21224593.294    21224597.517   -74661878.745 9 101983656.261 9
  20961038.311    20961042.260   -89672771.638 9 117221909.561 9
  21606024.701    21606028.095   -89362276.045 9  88009594.441 8
  23838863.320    23838870.357   -59024647.770 8 111858083.920 9
 89 11 12 15 22 29.0800000  0  4G13G12G 3G 9
  21232457.369    21232462.076   -74620552.386 9 102015858.498 8
  20971111.428    20971115.972   -89619837.119 9 117263157.138 8
  21599943.781    21599945.753   -89394233.572 9  87984692.392 8
  23862109.294    23862114.925   -58902494.520 9 111953268.002 9
 89 11 12 15 22 59.0800000  0  4G13G12G 3G 9
  21240347.327    21240352.250   -74579091.691 9 102048165.397 8
  20981293.811    20981298.129   -89566332.452 9 117304848.992 9
  21593903.385    21593906.620   -89425970.883 9  87959961.943 9
  23885381.123    23885385.596   -58780205.407 8 112048557.967 9
 89 11 12 15 23 29.0800000  0  4G13G12G 3G 9
  21248262.400    21248265.978   -74537499.564 9 102080574.732 8
  20991583.660    20991587.398   -89512261.191 9 117346982.332 9
  21587905.900    21587909.603   -89457490.203 9  87935401.360 8
  23908676.083    23908682.267   -58657785.274 9 112143950.003 9
 89 11 12 15 23 59.0800000  0  4G13G12G 3G 9
  21256201.883    21256205.920   -74495777.905 9 102113084.996 7
  21001979.691    21001984.193   -89457626.153 9 117389555.001 9
  21581949.534    21581953.184   -89488793.095 9  87911009.435 8
  23931996.223    23932003.992   -58535237.916 9 112239441.179 8
 89 11 12 15 24 29.0800000  0  4G13G12G 3G 9
  21264165.964    21264170.989   -74453926.460 9 102145696.378 8
  21012482.765    21012488.123   -89402427.384 9 117432566.917 9
  21576033.232    21576036.854   -89519878.653 9  87886786.843 8
  23955340.668    23955346.962   -58412565.087 8 112335030.097 9
 89 11 12 15 24 59.0800000  0  4G13G12G 3G 9
  21272154.426    21272158.204   -74411947.247 9 102178407.342 8
  21023094.783    21023098.779   -89346667.733 9 117476015.896 9
  21570160.389    21570163.625   -89550747.940 9  87862732.795 9
  23978706.962    23978714.003   -58289770.757 9 112430713.705 9
 89 11 12 15 25 29.0800000  0  4G13G12G 3G 9
  21280167.818    21280172.011   -74369840.690 9 102211217.535 9
  21033811.374    21033816.268   -89290349.170 9 117519900.385 9
  21564326.272    21564330.609   -89581402.035 9  87838846.437 8
  24002097.139    24002104.267   -58166857.959 8 112526489.585 9
 89 11 12 15 25 59.0800000  0  4G13G12G 3G 9
  21288203.945    21288207.937   -74327607.876 9 102244126.099 7
  21044634.842    21044639.041   -89233473.082 9 117564219.312 8
  21558534.118    21558537.363   -89611841.000 9  87815127.696 8
  24025509.382    24025515.900   -58043829.637 8 112622355.502 9
 89 11 12 15 26 29.0800000  0  4G13G12G 3G 9
  21296264.956    21296269.336   -74285249.580 9 102277132.435 9
  21055564.067    21055568.062   -89176041.811 9 117608970.839 8
  21552782.959    21552786.312   -89642065.460 8  87791576.111 8
  24048942.332    24048948.594   -57920688.749 9 112718309.119 9
 89 11 12 15 26 59.0800000  0  4G13G12G 3G 9
  21304348.775    21304351.454   -74242768.439 9 102310234.506 8
  21066597.886    21066601.985   -89118058.475 9 117654152.546 9
  21547071.223    21547075.589   -89672077.384 9  87768190.152 9
  24072395.723    24072403.194   -57797439.620 8 112814347.092 8
 89 11 12 15 27 29.0800000  0  4G13G12G 3G 9
  21312455.921    21312460.103   -74200165.169 9 102343431.741 8
  21077737.016    21077740.755   -89059524.721 9 117699763.163 8
  21541401.069    21541404.448   -89701876.897 9  87744969.690 8
  24095870.497    24095877.044   -57674085.399 8 112910466.961 9
 89 11 12 15 27 59.0800000  0  4G13G12G 3G 9
  21320586.359    21320590.897   -74157439.509 9 102376724.356 7
  21088979.474    21088984.610   -89000441.769 9 117745801.712 9
  21535770.602    21535773.737   -89731463.824 9  87721914.892 8
  24119363.317    24119370.628   -57550628.020 9 113006667.203 9
 89 11 12 15 28 29.0800000  0  4G13G12G 3G 9
  21328740.352    21328744.218   -74114593.667 9 102410110.600 8
  21100326.379    21100330.877   -88940812.439 9 117792266.028 8
  21530180.957    21530183.828   -89760839.491 9  87699024.702 9
  24142875.891    24142883.674   -57427071.238 9 113102944.898 8
 89 11 12 15 28 59.0800000  0  4G13G12G 3G 9
  21336915.825    21336919.860   -74071628.885 9 102443589.537 8
  21111777.632    21111781.407   -88880639.158 9 117839154.181 9
  21524631.007    21524634.268   -89790005.032 9  87676298.247 8
  24166405.820    24166413.387   -57303418.565 9 113199297.326 9
 89 11 12 15 29 29.0800000  0  4G13G12G 3G 9
  21345113.816    21345118.427   -74028546.459 9 102477160.160 8
  21123331.442    21123334.967   -88819923.573 9 117886464.923 8
  21519121.119    21519124.320   -89818960.518 9  87653735.477 8
  24189955.182    24189962.259   -57179672.855 9 113295722.226 8
 89 11 12 15 29 59.0800000  0  4G13G12G 3G 9
  21353334.634    21353339.085   -73985347.106 9 102510821.869 8
  21134988.254    21134992.289   -88758667.652 9 117934196.696 9
  21513650.687    21513654.766   -89847706.671 9  87631335.814 8
  24213520.262    24213526.754   -57055837.186 9 113392217.234 8
 89 11 12 15 30 29.0800000  0  4G13G12G 3G 9
  21361577.415    21361582.637   -73942031.871 9 102544573.886 7
  21146747.218    21146750.887   -88696874.686 9 117982346.944 9
  21508220.207    21508223.565   -89876244.868 9  87609098.194 8
  24237101.868    24237108.258   -56931915.312 9 113488779.397 8
 89 11 12 15 30 59.0800000  0  4G13G12G 3G 9
  21369842.088    21369846.854   -73898600.883 9 102578416.098 8
  21158608.228    21158612.224   -88634545.431 9 118030915.099 8
  21502829.221    21502833.415   -89904574.569 9  87587023.038 9
  24260699.821    24260706.348   -56807909.331 9 113585407.111 8
 89 11 12 15 31 29.0800000  0  4G13G12G 3G 9
  21378128.540    21378131.876   -73855056.195 9 102612346.897 8
  21170570.548    21170573.864   -88571683.517 9 118079898.294 8
  21497477.784    21497481.884   -89932697.175 9  87565109.254 8
  24284312.533    24284318.846   -56683823.266 9 113682097.204 7
 89 11 12 15 31 59.0800000  0  4G13G12G 3G 9
  21386436.373    21386440.110   -73811398.695 9 102646365.623 8
  21182633.782    21182637.173   -88508290.956 9 118129294.978 9
  21492165.639    21492168.774   -89960613.495 9  87543356.196 9
  24307940.159    24307947.402   -56559659.951 8 113778847.484 8
 89 11 12 15 32 29.0800000  0  4G13G12G 3G 9
  21394765.137    21394770.032   -73767630.048 9 102680470.925 8
  21194797.725    21194801.551   -88444370.261 9 118179103.193 9
  21486893.087    21486895.739   -89988324.590 9  87521763.069 9
  24331581.248    24331590.500   -56435423.432 7 113875654.821 8
 89 11 12 15 32 59.0800000  0  4G13G12G 3G 9
  21403115.925    21403120.447   -73723749.788 9 102714663.218 8
  21207061.557    21207065.360   -88379922.370 9 118229322.216 9
  21481658.802    21481661.801   -90015829.546 9  87500330.560 8
  24355237.353    24355245.214   -56311115.164 8 113972518.026 8
 89 11 12 15 33 29.0800000  0  4G13G12G 3G 9
  21411487.043    21411491.780   -73679759.815 9 102748940.990 8
  21219426.084    21219430.102   -88314950.533 9 118279949.507 9
  21476463.329    21476467.429   -90043130.550 9  87479056.976 8
  24378905.278    24378913.237   -56186739.346 7 114069433.844 8
 89 11 12 15 33 59.0800000  0  4G13G12G 3G 9
  21419878.484    21419883.321   -73635661.601 9 102783303.098 8
  21231888.353    21231892.311   -88249457.723 9 118330982.741 9
  21471307.415    21471310.400   -90070228.303 9  87457941.780 8
  24402585.092    24402593.879   -56062299.575 8 114166399.499 8
 89 11 12 15 34 29.0800000  0  4G13G12G 3G 9
  21428291.059    21428296.152   -73591455.504 9 102817749.272 8
  21244450.568    21244454.336   -88183445.892 9 118382420.422 9
  21466189.151    21466193.237   -90097123.103 9  87436984.739 8
  24426277.593    24426285.630   -55937798.530 8 114263412.914 8
 89 11 12 15 34 59.0800000  0  4G13G12G 3G 9
  21436723.764    21436728.503   -73547141.991 8 102852279.155 8
  21257110.023    21257113.854   -88116917.255 9 118434260.805 8
  21461110.095    21461113.629   -90123815.126 9  87416185.678 8
  24449980.725    24449989.558   -55813238.783 9 114360472.082 8
 89 11 12 15 35 29.0800000  0  4G13G12G 3G 9
  21445175.675    21445181.940   -73502721.703 9 102886892.227 9
  21269868.955    21269872.357   -88049873.435 9 118486502.614 8
  21456069.090    21456072.865   -90150304.725 9  87395544.369 8
  24473694.730    24473703.536   -55688623.028 9 114457574.873 8
 89 11 12 15 35 59.0800000  0  4G13G12G 3G 9
  21453648.732    21453653.356   -73458198.589 9 102921585.422 8
  21282723.775    21282727.613   -87982319.404 9 118539142.003 8
  21451066.512    21451069.468   -90176594.922 9  87375058.440 7
  24497419.096    24497427.299   -55563956.964 9 114554716.875 9
 89 11 12 15 36 29.0800000  0  4G13G12G 3G 9
  21462141.640    21462146.319   -73413570.920 9 102956360.089 8
  21295675.866    21295679.596   -87914255.682 9 118592178.542 8
  21446101.454    21446105.208   -90202684.692 9  87354728.689 8
  24521151.058    24521160.147   -55439241.782 9 114651897.150 9
 89 11 12 15 36 59.0800000  0  4G13G12G 3G 9
  21470653.747    21470658.943   -73368839.257 9 102991215.811 8
  21308724.730    21308728.948   -87845684.351 9 118645610.635 9
  21441174.713    21441178.447   -90228574.115 8  87334555.056 8
  24544892.538    24544901.326   -55314480.348 9 114749113.451 9
 89 11 12 15 37 29.0800000  0  4G13G12G 3G 9
  21479185.616    21479190.398   -73324005.853 9 103026150.782 7
  21321869.032    21321873.199   -87776609.085 9 118699435.390 9
  21436286.209    21436289.732   -90254265.179 9  87314535.991 8
  24568642.403    24568651.421   -55189676.653 9 114846362.681 9
 89 11 12 15 37 59.0800000  0  4G13G12G 3G 9
  21487736.217    21487741.427   -73279071.282 9 103061164.594 9
  21335110.046    21335113.877   -87707031.769 9 118753651.366 8
  21431435.385    21431439.104   -90279757.600 9  87294671.699 8
  24592399.416    24592409.482   -55064833.182 9 114943642.897 9
 89 11 12 15 38 29.0800000  0  4G13G12G 3G 9
  21496306.393    21496311.604   -73234036.498 9 103096256.499 7
  21348444.817    21348449.334   -87636954.815 9 118808256.662 9
  21426621.965    21426625.558   -90305052.326 9  87274961.467 8
  24616164.730    24616173.536   -54939953.335 9 115040951.464 8
 89 11 12 15 38 59.0800000  0  4G13G12G 3G 9
  21504894.698    21504901.183   -73188901.830 9 103131426.227 8
  21361874.398    21361879.348   -87566380.886 9 118863249.215 9
  21421846.529    21421850.000   -90330149.832 9  87255404.906 8
  24639934.748    24639943.365   -54815039.653 9 115138286.390 8
 89 11 12 15 39 29.0800000  0  4G13G12G 3G 9
  21513502.193    21513507.617   -73143669.531 9 103166672.038 8
  21375398.787    21375403.355   -87495313.610 9 118918626.173 9
  21417107.002    21417111.748   -90355051.594 9  87236000.874 8
  24663711.498    24663720.148   -54690096.320 8 115235644.408 8
 89 11 12 15 39 59.0800000  0  4G13G12G 3G 9
  21522129.217    21522134.484   -73098339.079 9 103201994.318 8
  21389015.456    21389020.366   -87423754.935 9 118974386.062 9
  21412405.433    21412410.271   -90379758.077 9  87216749.004 8
  24687492.470    24687503.183   -54565125.962 8 115333023.475 8
 89 11 12 15 40 29.0800000  0  4G13G12G 3G 9
  21530773.586    21530777.495   -73052911.581 9 103237392.233 8
  21402725.921    21402731.320   -87351706.993 9 119030527.171 9
  21407742.124    21407745.642   -90404269.285 9  87197649.298 8
  24711278.102    24711287.824   -54440131.449 8 115430421.356 8
 89 11 12 15 40 59.0800000  0  4G13G12G 3G 9
  21539435.970    21539442.224   -73007388.367 9 103272864.714 7
  21416528.717    21416533.485   -87279172.778 9 119087047.215 9
  21403114.516    21403118.842   -90428586.439 9  87178700.796 8
  24735067.776    24735077.530   -54315116.020 7 115527835.540 7
 89 11 12 15 41 29.0800000  0  4G13G12G 3G 9
  21548117.971    21548122.294   -72961769.573 9 103308411.687 8
  21430423.669    21430428.695   -87206154.064 9 119143944.780 9
  21398523.554    21398527.823   -90452709.044 9  87159903.895 9
  24758861.731    24758871.421   -54190082.007 7 115625264.206 7
 89 11 12 15 41 59.0800000  0  4G13G12G 3G 9
  21556816.544    21556821.769   -72916056.729 9 103344031.964 9
  21444410.388    21444414.843   -87132654.099 9 119201217.356 9
  21393970.878    21393973.690   -90476638.465 9  87141257.515 8
  24782658.129    24782668.002   -54065032.986 7 115722704.560 7
 89 11 12 15 42 29.0800000  0  4G13G12G 3G 9
  21565532.475    21565538.442   -72870251.038 9 103379724.556 8
  21458488.384    21458492.724   -87058676.157 9 119258862.374 9
  21389453.258    21389457.178   -90500376.325 9  87122760.410 8
  24806455.941    24806466.325   -53939972.811 8 115820153.583 7
 89 11 12 15 42 59.0800000  0  4G13G12G 3G 9
  21574266.834    21574272.800   -72824352.859 9 103415489.234 8
  21472656.678    21472660.769   -86984222.794 9 119316877.854 9
  21384973.089    21384976.773   -90523922.722 9  87104412.486 8
  24830257.135    24830266.627   -53814903.930 9 115917609.444 8
 89 11 12 15 43 29.0800000  0  4G13G12G 3G 9
  21583019.679    21583024.132   -72778362.149 9 103451326.015 8
  21486914.506    21486919.613   -86909296.121 9 119375262.138 8
  21380528.922    21380531.864   -90547277.367 8  87086213.981 8
  24854058.725    24854067.764   -53689828.776 9 116015070.177 7
 89 11 12 15 43 59.0800000  0  4G13G12G 3G 9
  21591787.393    21591793.462   -72732281.190 9 103487233.115 8
  21501261.923    21501266.082   -86833900.219 9 119434012.063 9
  21376120.527    21376124.694   -90570442.430 9  87068163.204 8
  24877860.435    24877869.315   -53564751.884 9 116112532.261 8
 89 11 12 15 44 29.0800000  0  4G13G12G 3G 9
  21600574.038    21600579.963   -72686110.713 8 103523209.980 8
  21515698.701    21515703.177   -86758037.229 9 119493125.940 9
  21371748.194    21371752.202   -90593418.251 9  87050259.883 8
  24901661.052    24901670.736   -53439675.974 9 116209993.574 8
 89 11 12 15 44 59.0800000  0  4G13G12G 3G 9
  21609377.553    21609383.406   -72639850.503 9 103559256.749 8
  21530223.568    21530229.101   -86681708.941 9 119552602.394 8
  21367412.059    21367415.822   -90616204.719 9  87032504.113 8
  24925462.018    24925471.905   -53314603.234 9 116307452.426 8
 89 11 12 15 45 29.0800000  0  4G13G12G 3G 9
  21618197.409    21618202.677   -72593501.452 9 103595372.776 8
  21544836.220    21544841.574   -86604918.350 9 119612439.083 8
  21363112.482    21363115.235   -90638801.968 9  87014895.783 8
  24949262.035    24949272.843   -53189536.419 9 116404906.653 8
 89 11 12 15 45 59.0800000  0  4G13G12G 3G 9
  21627034.007    21627040.433   -72547064.137 8 103631557.545 8
  21559536.688    21559541.755   -86527668.321 9 119672633.766 9
  21358848.249    21358852.012   -90661211.214 9  86997433.947 8
  24973060.234    24973071.182   -53064478.836 9 116502353.686 9
 89 11 12 15 46 29.0800000  0  4G13G12G 3G 9
  21635887.306    21635892.932   -72500539.914 9 103667810.068 8
  21574324.147    21574329.194   -86449962.064 9 119733183.957 9
  21354618.624    21354622.542   -90683433.546 9  86980117.764 7
  24996855.516    24996865.518   -52939433.828 9 116599790.893 8
 89 11 12 15 46 59.0800000  0  4G13G12G 3G 9
  21644757.516    21644762.140   -72453930.151 9 103704129.224 8
  21589196.577    21589202.232   -86371803.251 9 119794086.792 9
  21350426.262    21350428.894   -90705469.937 9  86962946.466 9
  25020647.502    25020659.199   -52814405.362 9 116697215.209 9
 89 11 12 15 47 29.0800000  0  4G13G12G 3G 9
  21653642.896    21653647.520   -72407235.087 9 103740514.863 8
  21604155.113    21604161.075   -86293193.777 9 119855340.776 9
  21346267.914    21346271.505   -90727320.274 9  86945920.159 8
  25044436.976    25044447.719   -52689395.288 8 116794625.200 9
 89 11 12 15 47 59.0800000  0  4G13G12G 3G 9
  21662545.415    21662550.982   -72360454.768 9 103776966.937 7
  21619199.903    21619205.357   -86214136.021 9 119916944.068 9
  21342145.935    21342150.061   -90748984.827 9  86929038.601 8
  25068222.408    25068233.046   -52564406.537 9 116892018.555 9
 89 11 12 15 48 29.0800000  0  4G13G12G 3G 9
  21671462.617    21671468.901   -72313589.946 9 103813484.841 8
  21634328.529    21634334.579   -86134633.155 9 119978894.209 9
  21338058.535    21338062.906   -90770464.120 9  86912301.425 8
  25092000.936    25092013.909   -52439441.952 7 116989393.062 9
 89 11 12 15 48 59.0800000  0  4G13G12G 3G 9
  21680396.519    21680402.501   -72266641.892 9 103850067.602 8
  21649542.097    21649547.595   -86054688.840 9 120041188.327 9
  21334005.440    21334009.860   -90791760.207 9  86895706.991 8
  25115777.599    25115788.772   -52314505.490 6 117086745.654 9
 89 11 12 15 49 29.0800000  0  4G13G12G 3G 9
  21689347.819    21689352.988   -72219610.687 9 103886715.159 8
  21664838.835    21664843.835   -85974304.841 9 120103825.048 9
  21329987.905    21329991.786   -90812872.310 9  86879255.917 8
  25139546.857    25139557.946   -52189599.138 6 117184074.758 9
 89 11 12 15 49 59.0800000  0  4G13G12G 3G 9
  21698312.858    21698318.154   -72172497.171 9 103923426.863 8
  21680218.525    21680223.337   -85893484.133 9 120166802.079 9
  21326005.963    21326010.016   -90833801.025 9  86862947.742 8
  25163308.431    25163320.411   -52064725.970 7 117281377.999 9
 89 11 12 15 50 29.0800000  0  4G13G12G 3G 9
  21707294.208    21707299.317   -72125302.152 9 103960202.074 7
  21695680.715    21695686.206   -85812230.296 9 120230116.595 9
  21322058.182    21322061.959   -90854547.355 9  86846781.698 9
  25187065.228    25187077.543   -51939889.160 7 117378652.912 8
 89 11 12 15 50 59.0800000  0  4G13G12G 3G 9
  21716289.596    21716295.704   -72078026.012 9 103997040.465 8
  21711224.594    21711230.488   -85730546.187 9 120293766.386 9
  21318145.422    21318148.501   -90875111.629 9  86830757.512 8
  25210814.245    25210825.835   -51815091.487 9 117475897.356 8
 89 11 12 15 51 29.0800000  0  3G13G12G 3
  21725302.306    21725306.215   -72030670.540 3 104033940.675 1
  21726849.710    21726855.414   -85648435.490 9 120357748.599 9
  21314265.188    21314269.492   -90895495.566 9  86814873.854 8
 89 11 12 15 51 59.0800000  0  3G13G12G 3
  21734328.763    21734334.008   -71983235.684 1 104070902.758 1
  21742556.206    21742561.289   -85565900.515 9 120422061.398 9
  21310421.359    21310425.655   -90915699.089 9  86799130.767 9
 89 11 12 15 52 29.0800000  0  3G13G12G 3
  21743369.920    21743374.801   -71935723.338 9 104107925.217 7
  21758342.263    21758347.144   -85482945.198 9 120486701.745 9
  21306611.172    21306614.516   -90935723.736 9  86783527.079 9
 89 11 12 15 52 59.0800000  0  3G13G12G 3
  21752426.978    21752432.402   -71888130.842 9 104145010.130 8
  21774207.878    21774213.405   -85399569.742 9 120551669.466 9
  21302834.924    21302838.668   -90955567.367 9  86768064.431 8
 89 11 12 15 53 29.0800000  0  3G13G12G 3
  21761497.806    21761504.745   -71840459.060 9 104182156.796 7
  21790153.503    21790159.910   -85315777.075 9 120616962.297 9
  21299093.109    21299097.272   -90975230.472 9  86752742.458 8
 89 11 12 15 53 59.0800000  0  3G13G12G 3
  21770584.040    21770590.566   -71792711.925 9 104219362.186 8
  21806176.786    21806182.234   -85231573.627 9 120682575.205 9
  21295385.092    21295388.644   -90994716.905 8  86737558.159 8
 89 11 12 15 54 29.0800000  0  3G13G12G 3
  21779684.385    21779689.354   -71744889.797 9 104256626.037 9
  21822278.346    21822284.323   -85146962.003 8 120748506.181 9
  21291710.819    21291714.538   -91014027.181 9  86722511.127 9
 89 11 12 15 54 59.0800000  0  3G13G12G 3
  21788800.171    21788805.053   -71696991.703 9 104293949.071 7
  21838456.897    21838462.430   -85061944.121 9 120814753.729 8
  21288069.158    21288074.125   -91033160.377 9  86707602.085 8
 89 11 12 15 55 29.0800000  0  3G13G12G 3
  21797928.377    21797935.205   -71649018.676 9 104331330.484 8
  21854710.935    21854718.243   -84976522.807 9 120881315.620 9
  21284462.510    21284465.735   -91052116.738 9  86692830.824 8
 89 11 12 15 55 59.0800000  0  3G13G12G 3
  21807071.320    21807078.548   -71600970.538 8 104368770.430 7
  21871043.151    21871049.331   -84890700.574 9 120948189.919 9
  21280888.227    21280892.979   -91070896.639 9  86678197.084 8
 89 11 12 15 56 29.0800000  0  3G13G12G 3
  21816229.633    21816236.200   -71552847.477 8 104406268.759 8
  21887449.991    21887456.905   -84804480.492 9 121015374.236 9
  21277348.466    21277351.523   -91089500.075 9  86663700.842 8
 89 11 12 15 56 59.0800000  0  3G13G12G 3
  21825401.483    21825407.221   -71504652.468 9 104443823.149 8
  21903932.698    21903938.274   -84717867.697 9 121082864.559 8
  21273841.436    21273844.896   -91107929.942 9  86649339.837 8
 89 11 12 15 57 29.0800000  0  3G13G12G 3
  21834586.222    21834591.777   -71456383.942 9 104481434.842 7
  21920488.567    21920494.538   -84630863.674 9 121150659.742 9
  21270367.205    21270371.818   -91126185.230 9  86635114.878 7
 89 11 12 15 57 59.0800000  0  3G13G12G 3
  21843786.458    21843791.242   -71408041.574 9 104519104.082 7
  21937119.317    21937124.935   -84543470.195 9 121218758.400 8
  21266926.168    21266930.789   -91144265.221 9  86621026.506 8
 89 11 12 15 58 29.0800000  0  3G13G12G 3
  21852998.060    21853004.643   -71359627.178 8 104556829.440 7
  21953823.094    21953829.909   -84455691.804 9 121287156.973 8
  21263519.401    21263524.498   -91162172.083 9  86607073.035 8
 89 11 12 15 58 59.0800000  0  3G13G12G 3
  21862224.741    21862231.040   -71311142.908 9 104594609.254 8
  21970599.284    21970605.847   -84367533.407 9 121355851.657 9
  21260145.121    21260148.645   -91179907.772 9  86593252.957 9
 89 11 12 15 59 29.0800000  0  3G13G12G 3
  21871463.570    21871470.570   -71262587.904 8 104632444.183 7
  21987446.839    21987454.517   -84278997.096 9 121424840.820 9
  21256802.116    21256807.232   -91197471.614 9  86579566.782 9
 89 11 12 15 59 59.0800000  0  3G13G12G 3
  21880717.525    21880723.893   -71213961.647 9 104670334.652 8
  22004366.997    22004373.397   -84190084.368 9 121494123.289 9
  21253493.277    21253496.760   -91214862.649 9  86566015.262 9
 89 11 12 16  0 29.0800000  0  3G13G12G 3
  21889985.088    21889992.041   -71165264.670 8 104708280.204 8
  22021357.574    22021364.346   -84100798.837 9 121563696.261 9
  21250216.129    21250220.331   -91232082.030 9  86552597.492 8
 89 11 12 16  0 59.0800000  0  3G13G12G 3
  21899265.515    21899271.667   -71116498.245 9 104746279.895 8
  22038418.437    22038424.749   -84011144.190 9 121633556.861 8
  21246972.139    21246976.641   -91249130.717 9  86539312.735 8
 89 11 12 16  1 29.0800000  0  3G13G12G 3
  21908557.018    21908563.342   -71067663.801 9 104784332.552 8
  22055549.114    22055555.536   -83921124.243 9 121703702.094 9
  21243759.813    21243764.297   -91266009.831 9  86526160.114 7
 89 11 12 16  1 59.0800000  0  3G13G12G 3
  21917864.244    21917870.644   -71018759.751 9 104822439.489 8
  22072748.246    22072755.183   -83830740.876 9 121774130.506 8
  21240580.617    21240585.310   -91282718.277 9  86513140.466 8
 89 11 12 16  2 29.0800000  0  3G13G12G 3
  21927182.407    21927190.476   -70969787.587 8 104860599.475 7
  22090016.205    22090024.237   -83739997.854 9 121844839.183 8
  21237432.722    21237437.554   -91299257.667 9  86500252.553 9
 89 11 12 16  2 59.0800000  0  3G13G12G 3
  21936515.720    21936522.846   -70920748.357 9 104898811.734 9
  22107351.534    22107358.425   -83648898.891 9 121915825.202 9
  21234318.147    21234322.508   -91315628.464 9  86487496.009 8
 89 11 12 16  3 29.0800000  0  3G13G12G 3
  21945860.637    21945867.349   -70871641.817 9 104937076.408 7
  22124755.680    22124761.377   -83557446.982 8 121987086.259 8
  21231235.556    21231239.298   -91331831.005 9  86474870.584 9
 89 11 12 16  3 59.0800000  0  3G13G12G 3
  21955217.760    21955224.216   -70822468.063 8 104975393.474 8
  22142224.397    22142231.527   -83465644.970 9 122058620.111 9
  21228183.921    21228189.502   -91347865.395 9  86462376.168 9
 89 11 12 16  4 29.0800000  0  3G13G12G 3
  21964588.736    21964595.761   -70773227.704 8 105013762.434 7
  22159759.975    22159766.554   -83373496.243 8 122130424.137 8
  21225165.351    21225168.648   -91363732.309 9  86450012.242 8
 89 11 12 16  4 59.0800000  0  3G13G12G 3
  21973969.972    21973976.782   -70723921.732 9 105052182.521 8
  22177361.018    22177367.318   -83281004.101 9 122202495.761 9
  21222176.637    21222180.729   -91379432.730 9  86437778.068 9
 89 11 12 16  5 29.0800000  0  3G13G12G 3
  21983366.702    21983373.428   -70674550.276 8 105090653.618 8
  22195027.009    22195033.557   -83188171.668 9 122274832.541 9
  21219221.571    21219225.586   -91394966.750 9  86425673.542 8
 89 11 12 16  5 59.0800000  0  3G13G12G 3
  21992773.192    21992780.179   -70625113.635 9 105129175.517 8
  22212756.047    22212762.596   -83095002.460 9 122347431.738 9
  21216296.592    21216300.350   -91410335.160 9  86413698.088 7
 89 11 12 16  6 29.0800000  0  3G13G12G 3
  22002193.177    22002199.347   -70575612.072 9 105167747.999 8
  22230549.339    22230556.960   -83001499.180 9 122420291.250 9
  21213403.713    21213407.629   -91425537.841 9  86401851.755 9
 89 11 12 16  6 59.0800000  0  3G13G12G 3
  22011625.696    22011632.021   -70526045.120 9 105206371.445 7
  22248405.936    22248412.258   -82907664.726 8 122493408.819 9
  21210541.921    21210546.465   -91440574.611 9  86390134.714 8
 89 11 12 16  7 29.0800000  0  3G13G12G 3
  22021070.250    22021077.691   -70476413.406 9 105245045.339 7
  22266324.114    22266331.272   -82813502.855 9 122566781.505 9
  21207712.083    21207716.724   -91455446.291 9  86378546.314 8
 89 11 12 16  7 59.0800000  0  3G13G12G 3
  22030527.037    22030534.064   -70426718.282 9 105283768.634 7
  22284303.998    22284311.006   -82719017.795 9 122640406.040 9
  21204913.558    21204918.897   -91470154.117 9  86367085.586 8
 89 11 12 16  8 29.0800000  0  3G13G12G 3
  22039996.303    22040003.171   -70376960.758 9 105322540.565 8
  22302344.991    22302351.262   -82624213.772 9 122714279.119 9
  21202146.387    21202149.341   -91484699.544 9  86355751.417 9
 89 11 12 16  8 59.0800000  0  3G13G12G 3
  22049477.472    22049484.443   -70327139.093 9 105361362.459 6
  22320445.795    22320452.695   -82529091.718 9 122788400.004 9
  21199408.622    21199413.366   -91499080.635 9  86344545.302 8
 89 11 12 16  9 29.0800000  0  3G13G12G 3
  22058969.903    22058978.130   -70277254.622 9 105400233.290 8
  22338606.957    22338614.364   -82433655.169 9 122862765.965 9
  21196703.081    21196708.655   -91513298.620 9  86333466.275 9
 89 11 12 16  9 59.0800000  0  3G13G12G 3
  22068475.628    22068481.067   -70227306.956 9 105439153.378 7
  22356827.229    22356834.959   -82337907.171 9 122937374.596 9
  21194030.020    21194035.056   -91527353.255 9  86322514.546 9
 89 11 12 16 10 29.0800000  0  3G13G12G 3
  22077991.527    22077998.768   -70177297.048 9 105478121.956 7
  22375106.734    22375114.287   -82241852.009 9 123012222.562 8
  21191386.170    21191389.544   -91541245.948 9  86311689.003 8
 89 11 12 16 10 59.0800000  0  3G13G12G 3
  22087518.958    22087527.288   -70127225.891 9 105517138.290 7
  22393442.890    22393449.812   -82145493.611 9 123087306.834 8
  21188772.586    21188777.511   -91554977.779 9  86300988.793 8
 89 11 12 16 11 29.0800000  0  3G13G12G 3
  22097059.885    22097066.713   -70077092.665 9 105556202.963 8
  22411836.768    22411843.466   -82048834.280 9 123162625.576 8
  21186191.056    21186194.862   -91568547.920 9  86290414.588 8
 89 11 12 16 11 59.0800000  0  3G13G12G 3
  22106611.799    22106619.497   -70026896.734 8 105595316.494 9
  22430286.417    22430293.860   -81951876.698 9 123238176.738 9
  21183638.765    21183644.068   -91581955.847 9  86279966.789 9
 89 11 12 16 12 29.0800000  0  3G13G12G 3
  22116175.964    22116183.190   -69976639.635 9 105634477.719 8
  22448793.201    22448801.226   -81854624.517 9 123313957.432 9
  21181118.068    21181122.797   -91595202.876 9  86269644.360 8
 89 11 12 16 12 59.0800000  0  3G13G12G 3
  22125751.158    22125757.985   -69926321.421 9 105673686.541 7
  22467355.543    22467363.596   -81757081.989 9 123389964.397 9
  21178628.356    21178632.274   -91608289.506 9  86259446.911 8
 89 11 12 16 13 29.0800000  0  3G13G12G 3
  22135337.946    22135346.230   -69875943.358 9 105712942.007 8
  22485972.023    22485979.517   -81659252.489 9 123466194.958 9
  21176168.244    21176172.478   -91621216.935 9  86249373.530 8
 89 11 12 16 13 59.0800000  0  3G13G12G 3
  22144936.107    22144944.010   -69825505.211 8 105752244.287 7
  22504642.320    22504650.959   -81561139.219 9 123542646.635 9
  21173738.421    21173743.117   -91633985.339 9  86239424.029 7
 89 11 12 16 14 29.0800000  0  3G13G12G 3
  22154545.775    22154553.377   -69775006.363 8 105791593.857 8
  22523365.625    22523374.198   -81462744.796 9 123619317.407 9
  21171338.790    21171344.484   -91646594.110 9  86229598.940 9
 89 11 12 16 14 59.0800000  0  3G13G12G 3
  22164166.746    22164175.535   -69724446.442 9 105830991.031 7
  22542143.534    22542151.938   -81364072.076 9 123696205.020 9
  21168969.833    21168974.914   -91659042.716 9  86219898.649 8
 89 11 12 16 15 29.0800000  0  3G13G12G 3
  22173799.752    22173805.791   -69673828.093 9 105870433.714 7
  22560972.411    22560980.378   -81265126.495 9 123773305.263 8
  21166631.227    21166635.672   -91671334.194 9  86210320.809 8
 89 11 12 16 15 59.0800000  0  3G13G12G 3
  22183444.374    22183451.073   -69623149.747 8 105909923.161 8
  22579853.232    22579860.576   -81165909.707 9 123850616.839 9
  21164322.441    21164326.295   -91683467.210 9  86200866.417 8
 89 11 12 16 16 29.0800000  0  3G13G12G 3
  22193100.104    22193106.228   -69572411.902 9 105949458.968 8
  22598784.571    22598792.795   -81066425.840 9 123928136.524 9
  21162044.188    21162048.795   -91695442.245 9  86191535.129 9
 89 11 12 16 16 59.0800000  0  3G13G12G 3
  22202765.332    22202772.373   -69521614.368 9 105989041.275 7
  22617766.071    22617774.509   -80966677.671 9 124005862.142 8
  21159795.407    21159799.382   -91707259.225 9  86182327.003 8
 89 11 12 16 17 29.0800000  0  3G13G12G 3
  22212442.125    22212452.599   -69470757.346 9 106028669.943 8
  22636797.198    22636804.147   -80866668.463 9 124083791.167 9
  21157576.910    21157581.429   -91718918.563 9  86173241.717 9
 89 11 12 16 17 59.0800000  0  3G13G12G 3
  22222131.523    22222140.351   -69419841.714 9 106068344.283 7
  22655877.758    22655884.852   -80766402.367 8 124161920.377 8
  21155387.921    21155392.932   -91730421.150 9  86164278.570 9
 89 11 12 16 18 29.0800000  0  3G13G12G 3
  22231833.182    22231840.153   -69368866.784 9 106108064.823 8
  22675005.798    22675014.028   -80665882.486 9 124240247.334 9
  21153229.236    21153233.969   -91741766.905 9  86155437.626 9
 89 11 12 16 18 59.0800000  0  3G13G12G 3
  22241543.973    22241551.601   -69317833.260 9 106147831.027 8
  22694182.361    22694189.843   -80565112.028 9 124318769.539 9
  21151100.143    21151104.647   -91752956.342 9  86146718.492 9
 89 11 12 16 19 29.0800000  0  3G13G12G 3
  22251266.253    22251275.182   -69266740.966 9 106187643.016 8
  22713406.066    22713414.483   -80464094.037 9 124397484.622 8
  21149000.326    21149005.501   -91763989.440 9  86138121.193 8
 89 11 12 16 19 59.0800000  0  3G13G12G 3
  22261001.540    22261009.182   -69215591.006 8 106227499.958 8
  22732674.595    22732682.955   -80362833.333 9 124476388.851 9
  21146929.377    21146935.071   -91774867.256 9  86129644.877 9
 89 11 12 16 20 29.0800000  0  3G13G12G 3
  22270745.613    22270753.911   -69164382.145 9 106267402.777 8
  22751989.835    22751998.348   -80261331.529 8 124555480.923 9
  21144889.880    21144894.969   -91785588.599 9  86121290.509 8
 89 11 12 16 20 59.0800000  0  3G13G12G 3
  22280500.949    22280510.037   -69113114.645 9 106307351.270 8
  22771350.772    22771358.969   -80159592.367 9 124634757.964 8
  21142879.316    21142884.450   -91796154.282 9  86113057.409 9
 89 11 12 16 21 29.0800000  0  3G13G12G 3
  22290267.987    22290276.859   -69061789.868 9 106347344.424 7
  22790755.637    22790763.163   -80057620.294 9 124714216.478 9
  21140898.457    21140903.731   -91806565.317 9  86104944.837 8
 89 11 12 16 21 59.0800000  0  3G13G12G 3
  22300046.061    22300054.931   -69010407.065 9 106387382.801 8
  22810204.519    22810212.730   -79955418.009 9 124793854.387 9
  21138946.406    21138952.325   -91816821.521 9  86096952.921 8
 89 11 12 16 22 29.0800000  0  3G13G12G 3
  22309834.877    22309842.850   -68958966.677 9 106427466.013 8
  22829696.171    22829703.789   -79852989.435 9 124873668.616 8
  21137024.906    21137029.681   -91826922.953 9  86089081.594 8
 89 11 12 16 22 59.0800000  0  3G13G12G 3
  22319635.257    22319645.014   -68907467.885 8 106467594.769 8
  22849229.863    22849238.102   -79750337.051 9 124953657.256 9
  21135131.569    21135136.558   -91836869.517 8  86081330.953 8
 89 11 12 16 23 29.0800000  0  3G13G12G 3
  22329445.667    22329454.340   -68855911.204 9 106507768.610 7
  22868806.146    22868814.656   -79647464.426 9 125033817.506 9
  21133268.475    21133273.562   -91846661.499 9  86073700.743 8
 89 11 12 16 23 59.0800000  0  3G13G12G 3
  22339268.269    22339277.000   -68804297.022 9 106547987.258 7
  22888423.083    22888432.745   -79544375.338 9 125114146.422 9
  21131434.544    21131440.077   -91856299.731 9  86066190.368 8
 89 11 12 16 24 29.0800000  0  3G13G12G 3
  22349101.117    22349110.704   -68752624.889 9 106588251.053 7
  22908081.994    22908090.234   -79441072.512 9 125194641.882 8
  21129630.517    21129635.033   -91865783.752 9  86058800.130 8
 89 11 12 16 24 59.0800000  0  3G13G12G 3
  22358945.096    22358954.428   -68700896.009 9 106628559.075 8
  22927779.097    22927788.189   -79337561.024 9 125275299.943 9
  21127854.290    21127859.426   -91875115.230 9  86051528.764 8
 89 11 12 16 25 29.0800000  0  3G13G12G 3
  22368799.952    22368808.768   -68649109.026 9 106668912.373 8
  22947515.732    22947524.549   -79233843.107 9 125356118.866 8
  21126107.340    21126112.802   -91884293.158 9  86044377.032 7
 89 11 12 16 25 59.0800000  0  3G13G12G 3
  22378665.881    22378673.180   -68597264.030 8 106709310.861 8
  22967292.522    22967301.274   -79129921.656 9 125437096.383 8
  21124390.325    21124396.156   -91893317.104 9  86037345.307 9
 89 11 12 16 26 29.0800000  0  3G13G12G 3
  22388543.345    22388551.187   -68545362.098 8 106749753.717 8
  22987105.764    22987114.783   -79025800.700 9 125518229.355 9
  21122702.156    21122707.905   -91902188.159 9  86030432.684 8
 89 11 12 16 26 59.0800000  0  3G13G12G 3
  22398430.868    22398438.956   -68493403.286 9 106790240.901 7
  23006958.200    23006966.410   -78921483.749 9 125599515.041 9
  21121043.242    21121047.834   -91910906.796 9  86023638.865 8
 89 11 12 16 27 29.0800000  0  3G13G12G 3
  22408328.808    22408338.625   -68441386.394 8 106830773.328 7
  23026844.514    23026853.303   -78816974.300 9 125680950.738 9
  21119413.705    21119420.254   -91919472.513 9  86016964.193 8
 89 11 12 16 27 59.0800000  0  3G13G12G 3
  22418238.723    22418247.596   -68389311.621 8 106871350.886 9
  23046767.882    23046778.274   -78712275.306 9 125762534.104 9
  21117811.942    21117819.051   -91927884.982 9  86010408.929 9
 89 11 12 16 28 29.0800000  0  3G13G12G 3
  22428159.088    22428168.960   -68337178.820 9 106911973.621 7
  23066727.509    23066736.969   -78607390.222 8 125844262.469 9
  21116240.852    21116246.532   -91936144.728 9  86003972.674 9
 89 11 12 16 28 59.0800000  0  3G13G12G 3
  22438091.110    22438099.026   -68284988.087 9 106952641.531 7
  23086721.836    23086731.217   -78502322.281 9 125926133.310 9
  21114698.790    21114703.907   -91944251.619 9  85997655.518 8
 89 11 12 16 29 29.0800000  0  3G13G12G 3
  22448033.052    22448043.426   -68232740.415 9 106993353.802 8
  23106749.216    23106759.370   -78397075.441 9 126008143.559 9
  21113184.840    21113189.606   -91952206.895 9  85991456.515 8
 89 11 12 16 29 59.0800000  0  3G13G12G 3
  22457987.869    22457995.471   -68180434.733 9 107034111.275 8
  23126811.009    23126820.536   -78291652.796 9 126090290.796 9
  21111700.129    21111706.066   -91960009.890 9  85985376.172 7
 89 11 12 16 30 29.0800000  0  3G13G12G 3
  22467951.304    22467961.078   -68128071.423 9 107074913.655 8
  23146905.205    23146915.177   -78186057.956 8 126172572.215 9
  21110244.455    21110249.877   -91967660.649 9  85979414.466 8
 89 11 12 16 30 59.0800000  0  3G13G12G 3
  22477927.041    22477936.988   -68075651.213 9 107115760.367 7
  23167031.399    23167040.856   -78080294.882 8 126254984.723 9
  21108817.705    21108822.400   -91975160.258 9  85973570.537 9
 89 11 12 16 31 29.0800000  0  3G13G12G 3
  22487913.827    22487922.802   -68023173.693 9 107156651.745 8
  23187188.831    23187199.994   -77974366.225 9 126337526.254 8
  21107418.964    21107424.171   -91982508.114 9  85967844.855 8
 89 11 12 16 31 59.0800000  0  3G13G12G 3
  22497911.647    22497920.976   -67970637.487 9 107197588.848 8
  23207378.013    23207388.190   -77868274.709 9 126420194.687 9
  21106049.459    21106055.509   -91989703.719 9  85962237.801 8
 89 11 12 16 32 29.0800000  0  3G13G12G 3
  22507920.396    22507930.255   -67918043.194 9 107238571.203 8
  23227596.694    23227606.978   -77762024.486 9 126502986.799 9
  21104709.252    21104714.979   -91996747.699 9  85956748.916 9
 89 11 12 16 32 59.0800000  0  3G13G12G 3
  22517939.277    22517949.006   -67865391.210 9 107279598.501 8
  23247846.023    23247855.808   -77655619.102 9 126585899.807 8
  21103397.458    21103404.724   -92003640.148 9  85951378.093 9
 89 11 12 16 33 29.0800000  0  3G13G12G 3
  22527969.734    22527979.637   -67812681.629 8 107320670.722 8
  23268123.986    23268132.854   -77549062.389 9 126668930.766 9
  21102114.499    21102120.302   -92010381.570 9  85946124.965 8
 89 11 12 16 33 59.0800000  0  3G13G12G 3
  22538011.252    22538020.141   -67759913.492 9 107361788.541 7
  23288429.159    23288438.877   -77442356.793 9 126752077.723 9
  21100860.378    21100866.118   -92016971.269 9  85940990.060 7
 89 11 12 16 34 29.0800000  0  3G13G12G 3
  22548064.533    22548073.352   -67707086.918 9 107402951.897 7
  23308762.500    23308771.640   -77335505.799 9 126835337.963 9
  21099636.820    21099641.369   -92023409.346 9  85935973.291 8
 89 11 12 16 34 59.0800000  0  3G13G12G 3
  22558128.576    22558137.518   -67654201.804 9 107444160.872 8
  23329122.162    23329132.348   -77228513.039 8 126918708.655 9
  21098440.277    21098445.113   -92029695.911 9  85931074.577 8
 89 11 12 16 35 29.0800000  0  3G13G12G 3
  22568202.248    22568211.709   -67601259.129 9 107485414.698 7
  23349507.938    23349518.883   -77121382.591 8 127002186.630 9
  21097272.371    21097277.675   -92035831.919 9  85926293.179 8
 89 11 12 16 35 59.0800000  0  3G13G12G 3
  22578288.738    22578297.881   -67548257.455 9 107526714.492 8
  23369920.371    23369931.609   -77014117.049 8 127085769.867 8
  21096133.065    21096139.436   -92041816.434 9  85921629.822 8
 89 11 12 16 36 29.0800000  0  3G13G12G 3
  22588385.819    22588394.076   -67495196.744 8 107568060.277 8
  23390357.582    23390369.049   -76906719.443 9 127169456.019 9
  21095024.027    21095029.006   -92047649.279 9  85917084.665 8
 89 11 12 16 36 59.0800000  0  3G13G12G 3
  22598493.188    22598503.835   -67442078.573 8 107609450.838 8
  23410818.925    23410829.975   -76799194.939 8 127253241.054 9
  21093942.825    21093947.775   -92053332.225 9  85912656.277 8
 89 11 12 16 37 29.0800000  0  3G13G12G 3
  22608613.447    22608623.010   -67388902.036 9 107650886.873 7
  23431304.056    23431314.620   -76691546.808 9 127337122.414 8
  21092889.824    21092895.951   -92058864.804 9  85908345.083 8
 89 11 12 16 37 59.0800000  0  3G13G12G 3
  22618744.257    22618753.574   -67335665.983 8 107692369.283 8
  23451812.849    23451823.233   -76583776.727 9 127421098.815 9
  21091865.629    21091870.808   -92064245.641 9  85904152.120 7
 89 11 12 16 38 29.0800000  0  3G13G12G 3
  22628886.098    22628896.473   -67282371.485 9 107733897.221 8
  23472342.897    23472353.912   -76475889.278 9 127505166.664 9
  21090869.587    21090876.328   -92069475.894 9  85900076.498 8
 89 11 12 16 38 59.0800000  0  3G13G12G 3
  22639039.071    22639049.102   -67229017.358 9 107775471.628 8
  23492895.119    23492906.656   -76367886.835 9 127589324.122 9
  21089903.812    21089909.504   -92074554.359 9  85896119.150 8
 89 11 12 16 39 29.0800000  0  3G13G12G 3
  22649203.162    22649212.721   -67175602.344 9 107817093.480 8
  23513469.998    23513480.146   -76259771.730 9 127673569.367 9
  21088966.523    21088973.013   -92079480.290 9  85892280.664 8
 89 11 12 16 39 59.0800000  0  3G13G12G 3
  22659379.601    22659389.731   -67122127.422 8 107858762.013 8
  23534063.743    23534074.649   -76151548.754 9 127757898.663 8
  21088058.912    21088065.561   -92084254.969 9  85888560.037 8
 89 11 12 16 40 29.0800000  0  3G13G12G 3
  22669566.471    22669577.276   -67068593.964 9 107900476.146 8
  23554677.530    23554688.889   -76043223.168 9 127842307.899 9
  21087178.277    21087184.581   -92088879.715 9  85884956.238 9
 89 11 12 16 40 59.0800000  0  3G13G12G 3
  22679766.452    22679774.952   -67015000.789 9 107942236.808 7
  23575310.482    23575322.042   -75934797.060 9 127926795.482 8
  21086326.891    21086333.314   -92093353.505 9  85881470.061 8
 89 11 12 16 41 29.0800000  0  3G13G12G 3
  22689975.272    22689985.875   -66961346.744 9 107984044.915 7
  23595962.382    23595973.668   -75826272.560 9 128011359.741 8
  21085504.835    21085510.154   -92097674.754 9  85878102.763 9
 89 11 12 16 41 59.0800000  0  3G13G12G 3
  22700197.353    22700207.307   -66907631.246 9 108025900.908 6
  23616632.932    23616643.505   -75717652.754 9 128095998.243 8
  21084712.346    21084718.108   -92101843.626 9  85874854.194 9
 89 11 12 16 42 29.0800000  0  3G13G12G 3
  22710431.315    22710442.092   -66853855.092 8 108067804.127 8
  23637320.197    23637330.896   -75608942.082 9 128180707.496 6
  21083947.076    21083953.024   -92105861.408 9  85871723.358 8
 89 11 12 16 42 59.0800000  0  3G13G12G 3
  22720675.074    22720685.982   -66800018.086 9 108109754.803 8
  23658024.882    23658035.239   -75500143.594 9 128265485.313 8
  21083212.128    21083218.217   -92109727.231 9  85868710.942 8
 89 11 12 16 43 29.0800000  0  3G13G12G 3
  22730931.960    22730943.501   -66746120.433 8 108151752.736 8
  23678742.545    23678754.513   -75391261.187 9 128350328.431 9
  21082504.867    21082511.486   -92113441.933 9  85865816.282 7
 89 11 12 16 43 59.0800000  0  3G13G12G 3
  22741200.028    22741210.866   -66692162.216 9 108193797.840 8
  23699479.270    23699490.320   -75282298.275 8 128435234.283 8
  21081826.597    21081833.460   -92117005.176 9  85863039.622 8
 89 11 12 16 44 29.0800000  0  3G13G12G 3
  22751481.211    22751492.221   -66638141.978 9 108235891.285 8
  23720228.843    23720240.137   -75173257.218 8 128520201.026 9
  21081177.246    21081183.137   -92120415.860 9  85860381.864 7
 89 11 12 16 44 59.0800000  0  3G13G12G 3
  22761772.806    22761782.627   -66584059.412 9 108278033.300 8
  23740992.259    23741004.041   -75064141.783 7 128605225.692 8
  21080557.913    21080563.746   -92123674.395 9  85857842.649 8
 89 11 12 16 45 29.0800000  0  3G13G12G 3
  22772076.213    22772087.094   -66529913.577 9 108320224.607 8
  23761769.935    23761782.247   -74954954.190 8 128690306.596 9
  21079966.730    21079973.263   -92126779.374 9  85855423.096 8
 89 11 12 16 45 59.0800000  0  3G13G12G 3
  22782391.681    22782403.396   -66475704.865 9 108362464.903 8
  23782561.737    23782572.656   -74845698.361 9 128775440.690 8
  21079404.821    21079411.141   -92129731.129 9  85853122.935 8
 89 11 12 16 46 29.0800000  0  3G13G12G 3
  22792719.502    22792731.383   -66421435.059 9 108404752.834 9
  23803364.748    23803376.207   -74736379.381 9 128860623.992 9
  21078872.976    21078879.468   -92132531.599 9  85850940.666 9
 89 11 12 16 46 59.0800000  0  3G13G12G 3
  22803059.196    22803068.744   -66367104.347 9 108447088.221 8
  23824178.868    23824190.215   -74627001.414 9 128945853.243 9
  21078367.876    21078374.409   -92135181.367 9  85848875.818 9
 89 11 12 16 47 29.0800000  0  3G13G12G 3
  22813409.787    22813421.543   -66312709.355 9 108489473.670 8
  23845004.839    23845016.404   -74517564.767 9 129031128.219 8
  21077893.454    21077899.371   -92137677.254 9  85846930.871 9
 89 11 12 16 47 59.0800000  0  3G13G12G 3
  22823773.201    22823783.625   -66258249.104 9 108531909.977 8
  23865840.883    23865852.670   -74408071.795 9 129116447.064 9
  21077448.580    21077453.497   -92140018.319 9  85845106.576 7
 89 11 12 16 48 29.0800000  0  3G13G12G 3
  22834149.646    22834159.037   -66203725.586 9 108574395.597 8
  23886685.942    23886698.459   -74298527.905 9 129201805.567 9
  21077032.266    21077038.615   -92142206.330 8  85843401.558 8
 89 11 12 16 48 59.0800000  0  3G13G12G 3
  22844536.601    22844547.412   -66149139.230 9 108616930.205 8
  23907541.068    23907552.969   -74188937.424 9 129287200.386 8
  21076644.000    21076650.664   -92144242.037 8  85841815.214 9
 89 11 12 16 49 29.0800000  0  3G13G12G 3
  22854936.732    22854947.145   -66094488.261 9 108659515.134 8
  23928404.269    23928415.621   -74079302.321 9 129372629.969 9
  21076286.029    21076292.132   -92146123.773 9  85840348.846 8
 89 11 12 16 49 59.0800000  0  3G13G12G 3
  22865348.653    22865359.773   -66039772.082 9 108702150.874 7
  23949274.648    23949287.731   -73969625.333 9 129458092.199 8
  21075957.817    21075963.764   -92147851.131 9  85839002.782 8
 89 11 12 16 50 29.0800000  0  3G13G12G 3
  22875773.960    22875784.117   -65984991.115 9 108744837.092 7
  23970153.728    23970165.307   -73859910.303 9 129543584.048 9
  21075657.480    21075664.960   -92149424.278 9  85837776.884 8
 89 11 12 16 50 59.0800000  0  3G13G12G 3
  22886210.627    22886221.672   -65930145.699 9 108787573.538 8
  23991039.459    23991050.733   -73750161.094 9 129629102.521 9
  21075388.897    21075393.601   -92150843.709 9  85836670.729 8
 89 11 12 16 51 29.0800000  0  3G13G12G 3
  22896660.039    22896671.257   -65875234.746 9 108830361.061 8
  24011929.291    24011940.910   -73640380.645 8 129714645.302 8
  21075147.441    21075153.548   -92152109.084 9  85835684.671 7
 89 11 12 16 51 59.0800000  0  3G13G12G 3
  22907121.968    22907132.565   -65820257.718 9 108873200.064 8
  24032824.863    24032838.396   -73530571.829 8 129800210.184 9
  21074936.024    21074942.084   -92153219.069 8  85834819.678 8
 89 11 12 16 52 29.0800000  0  3G13G12G 3
  22917596.974    22917607.266   -65765214.804 9 108916090.392 8
  24053725.111    24053738.994   -73420738.137 8 129885794.420 9
  21074754.165    21074760.791   -92154174.325 9  85834075.251 7
 89 11 12 16 52 59.0800000  0  3G13G12G 3
  22928083.972    22928094.776   -65710105.468 9 108959032.509 8
  24074630.498    24074645.177   -73310883.230 8 129971395.165 8
  21074602.116    21074607.650   -92154974.503 9  85833451.657 8
 89 11 12 16 53 29.0800000  0  3G13G12G 3
  22938583.246    22938594.521   -65654929.556 9 109002026.461 7
  24095540.112    24095553.065   -73201009.840 9 130057010.346 8
  21074479.759    21074486.075   -92155619.065 8  85832949.338 8
 89 11 12 16 53 59.0800000  0  3G13G12G 3
  22949096.420    22949106.732   -65599686.424 9 109045072.827 7
  24116450.944    24116464.286   -73091121.153 9 130142637.424 7
  21074386.849    21074393.210   -92156107.621 9  85832568.563 9
 89 11 12 16 54 29.0800000  0  3G13G12G 3
  22959621.844    22959633.020   -65544375.543 9 109088171.961 7
  24137365.137    24137378.228   -72981220.004 9 130228274.206 7
  21074324.202    21074329.533   -92156439.700 9  85832309.742 8
 89 11 12 16 54 59.0800000  0  3G13G12G 3
  22970160.097    22970171.883   -65488996.687 9 109131324.098 8
  24158280.719    24158294.386   -72871310.135 9 130313917.768 8
  21074290.788    21074296.138   -92156615.483 9  85832172.689 7
 89 11 12 16 55 29.0800000  0  3G13G12G 3
  22980711.675    22980722.926   -65433549.660 9 109174529.318 8
  24179197.022    24179212.008   -72761394.796 9 130399565.579 7
  21074286.467    21074293.330   -92156634.620 9  85832157.713 9
 89 11 12 16 55 59.0800000  0  3G13G12G 3
  22991275.428    22991287.271   -65378034.558 9 109217787.610 8
  24200113.072    24200127.433   -72651477.942 9 130485214.551 9
  21074312.753    21074320.117   -92156497.387 9  85832264.571 8
 89 11 12 16 56 29.0800000  0  3G13G12G 3
  23001852.897    23001864.880   -65322450.917 9 109261099.293 7
  24221031.691    24221044.665   -72541562.410 9 130570862.467 9
  21074369.632    21074376.722   -92156203.054 9  85832493.848 8
 89 11 12 16 56 59.0800000  0  3G13G12G 3
  23012443.177    23012455.096   -65266797.501 9 109304465.345 9
  24241947.432    24241960.600   -72431650.771 9 130656507.350 8
  21074454.942    21074461.207   -92155750.705 9  85832846.245 7
 89 11 12 16 57 29.0800000  0  3G13G12G 3
  23023046.642    23023060.792   -65211074.341 9 109347885.758 8
  24262861.032    24262875.417   -72321746.980 9 130742146.102 8
  21074571.663    21074576.708   -92155140.775 9  85833321.424 9
 89 11 12 16 57 59.0800000  0  3G13G12G 3
  23033664.244    23033676.777   -65155281.864 8 109391360.179 8
  24283774.595    24283786.504   -72211854.413 9 130827776.115 9
  21074717.656    21074722.662   -92154373.322 9  85833919.374 9
 89 11 12 16 58 29.0800000  0  3G13G12G 3
  23044295.592    23044306.998   -65099418.487 9 109434889.837 8
  24304684.589    24304697.671   -72101975.410 9 130913395.539 8
  21074894.719    21074899.638   -92153446.812 9  85834641.255 8
 89 11 12 16 58 59.0800000  0  3G13G12G 3
  23054940.088    23054953.475   -65043483.982 8 109478474.909 8
  24325591.206    24325605.076   -71992113.172 9 130999001.859 8
  21075101.041    21075107.403   -92152361.320 9  85835487.000 8
 89 11 12 16 59 29.0800000  0  3G13G12G 3
  23065597.709    23065609.620   -64987478.264 9 109522115.485 8
  24346492.830    24346507.971   -71882270.961 9 131084592.561 8
  21075338.157    21075343.762   -92151116.704 9  85836456.751 9
 89 11 12 16 59 59.0800000  0  3G13G12G 3
  23076268.818    23076281.293   -64931402.054 9 109565810.964 8
  24367392.014    24367406.290   -71772452.863 9 131170164.459 8
  21075604.653    21075611.345   -92149713.066 9  85837550.419 9
 89 11 12 17  0 29.0800000  0  3G13G12G 3
  23086953.128    23086966.335   -64875253.361 9 109609562.942 8
  24388285.064    24388299.450   -71662660.946 9 131255715.957 9
  21075902.714    21075909.633   -92148149.186 9  85838768.952 9
